Wetterdaten: Mittwoch, 22.05.2019
Datum Zeit Temp. A. Pool Temp. Temp. 5cm Feuchte A. Luftdruck Regen Wind Richtung Richtung Sonnenschein ET UV Solar Taupunkt Windchill Windben Empfang
22.05.2019 00:00 11,2 C 15,6 C 10,6 C 92 % 1010,3 hPa 0,2 l/m 23,8 km/h (4 Bft) W-SW 242 0 min 0,000 mm 0,0 UV-I 0 W/m 9,9 C 3,8 C 30,6 km/h (5 Bft) 91,30 %
22.05.2019 00:02 11,2 C 15,6 C 10,6 C 92 % 1010,4 hPa 0,0 l/m 17,3 km/h (3 Bft) SW 236 0 min 0,000 mm 0,0 UV-I 0 W/m 9,9 C 5,7 C 27,4 km/h (4 Bft) 93,02 %
22.05.2019 00:04 11,2 C 15,6 C 10,6 C 92 % 1010,3 hPa 0,0 l/m 23,0 km/h (4 Bft) W-SW 254 0 min 0,000 mm 0,0 UV-I 0 W/m 9,9 C 4,0 C 33,8 km/h (5 Bft) 91,49 %
22.05.2019 00:06 11,2 C 15,6 C 10,6 C 92 % 1010,3 hPa 0,0 l/m 20,9 km/h (4 Bft) SW 230 0 min 0,000 mm 0,0 UV-I 0 W/m 9,9 C 4,6 C 33,8 km/h (5 Bft) 97,87 %
22.05.2019 00:08 11,2 C 15,6 C 10,6 C 92 % 1010,5 hPa 0,0 l/m 25,2 km/h (4 Bft) SW 217 0 min 0,000 mm 0,0 UV-I 0 W/m 9,9 C 3,4 C 41,8 km/h (6 Bft) 93,62 %
22.05.2019 00:10 11,2 C 15,6 C 10,6 C 92 % 1010,3 hPa 0,0 l/m 24,0 km/h (4 Bft) W-NW 284 0 min 0,000 mm 0,0 UV-I 0 W/m 9,9 C 3,7 C 37,0 km/h (5 Bft) 91,49 %
22.05.2019 00:12 11,2 C 15,6 C 10,6 C 92 % 1010,3 hPa 0,0 l/m 21,5 km/h (4 Bft) SW 227 0 min 0,000 mm 0,0 UV-I 0 W/m 9,9 C 4,4 C 30,6 km/h (5 Bft) 95,74 %
22.05.2019 00:14 11,2 C 15,6 C 10,6 C 92 % 1010,4 hPa 0,0 l/m 20,0 km/h (4 Bft) SW 230 0 min 0,000 mm 0,0 UV-I 0 W/m 9,9 C 4,8 C 29,0 km/h (5 Bft) 93,62 %
22.05.2019 00:16 11,2 C 15,6 C 10,6 C 92 % 1010,3 hPa 0,0 l/m 20,8 km/h (4 Bft) SW 232 0 min 0,000 mm 0,0 UV-I 0 W/m 9,9 C 4,6 C 32,2 km/h (5 Bft) 95,74 %
22.05.2019 00:18 11,2 C 15,6 C 10,6 C 92 % 1010,3 hPa 0,0 l/m 25,7 km/h (4 Bft) W-SW 243 0 min 0,000 mm 0,0 UV-I 0 W/m 9,9 C 3,3 C 38,6 km/h (5 Bft) 95,74 %
22.05.2019 00:20 11,2 C 15,6 C 10,6 C 92 % 1010,3 hPa 0,0 l/m 22,9 km/h (4 Bft) S-SW 213 0 min 0,000 mm 0,0 UV-I 0 W/m 9,9 C 4,0 C 35,4 km/h (5 Bft) 95,83 %
22.05.2019 00:22 11,2 C 15,6 C 10,6 C 92 % 1010,3 hPa 0,0 l/m 22,1 km/h (4 Bft) W-SW 239 0 min 0,000 mm 0,0 UV-I 0 W/m 9,9 C 4,2 C 30,6 km/h (5 Bft) 97,87 %
22.05.2019 00:24 11,2 C 15,6 C 10,6 C 92 % 1010,3 hPa 0,0 l/m 20,8 km/h (4 Bft) SW 225 0 min 0,000 mm 0,0 UV-I 0 W/m 9,9 C 4,6 C 30,6 km/h (5 Bft) 93,62 %
22.05.2019 00:26 11,2 C 15,6 C 10,6 C 92 % 1010,3 hPa 0,0 l/m 20,0 km/h (4 Bft) W-SW 248 0 min 0,000 mm 0,0 UV-I 0 W/m 9,9 C 4,8 C 29,0 km/h (5 Bft) 94,74 %
22.05.2019 00:28 11,2 C 15,6 C 10,6 C 92 % 1010,3 hPa 0,0 l/m 24,0 km/h (4 Bft) W-SW 240 0 min 0,000 mm 0,0 UV-I 0 W/m 9,9 C 3,7 C 35,4 km/h (5 Bft) 97,87 %
22.05.2019 00:30 11,2 C 15,6 C 10,6 C 92 % 1010,2 hPa 0,0 l/m 22,8 km/h (4 Bft) SW 221 0 min 0,000 mm 0,0 UV-I 0 W/m 9,9 C 4,0 C 35,4 km/h (5 Bft) 95,74 %
22.05.2019 00:32 11,2 C 15,6 C 10,6 C 92 % 1010,3 hPa 0,0 l/m 21,3 km/h (4 Bft) W-SW 250 0 min 0,000 mm 0,0 UV-I 0 W/m 9,9 C 4,4 C 32,2 km/h (5 Bft) 98,00 %
22.05.2019 00:34 11,2 C 15,6 C 10,6 C 92 % 1010,3 hPa 0,0 l/m 22,4 km/h (4 Bft) SW 231 0 min 0,000 mm 0,0 UV-I 0 W/m 9,9 C 4,1 C 37,0 km/h (5 Bft) 97,87 %
22.05.2019 00:36 11,2 C 15,6 C 10,6 C 92 % 1010,3 hPa 0,0 l/m 16,5 km/h (3 Bft) W-SW 242 0 min 0,000 mm 0,0 UV-I 0 W/m 9,9 C 6,0 C 22,5 km/h (4 Bft) 100,00 %
22.05.2019 00:38 11,2 C 15,6 C 10,6 C 92 % 1010,3 hPa 0,0 l/m 20,6 km/h (4 Bft) W-SW 255 0 min 0,000 mm 0,0 UV-I 0 W/m 9,9 C 4,7 C 35,4 km/h (5 Bft) 100,00 %
22.05.2019 00:40 11,2 C 15,6 C 10,6 C 92 % 1010,4 hPa 0,0 l/m 19,4 km/h (3 Bft) SW 233 0 min 0,000 mm 0,0 UV-I 0 W/m 9,9 C 5,0 C 37,0 km/h (5 Bft) 100,00 %
22.05.2019 00:42 11,2 C 15,6 C 10,6 C 92 % 1010,4 hPa 0,0 l/m 17,8 km/h (3 Bft) W-SW 240 0 min 0,000 mm 0,0 UV-I 0 W/m 9,9 C 5,6 C 27,4 km/h (4 Bft) 100,00 %
22.05.2019 00:44 11,2 C 15,6 C 10,6 C 92 % 1010,4 hPa 0,0 l/m 21,4 km/h (4 Bft) W 259 0 min 0,000 mm 0,0 UV-I 0 W/m 9,9 C 4,4 C 37,0 km/h (5 Bft) 100,00 %
22.05.2019 00:46 11,2 C 15,6 C 10,6 C 92 % 1010,4 hPa 0,0 l/m 25,1 km/h (4 Bft) SW 227 0 min 0,000 mm 0,0 UV-I 0 W/m 9,9 C 3,4 C 35,4 km/h (5 Bft) 97,37 %
22.05.2019 00:48 11,2 C 15,6 C 10,6 C 92 % 1010,3 hPa 0,0 l/m 22,0 km/h (4 Bft) W-SW 243 0 min 0,000 mm 0,0 UV-I 0 W/m 9,9 C 4,2 C 32,2 km/h (5 Bft) 97,92 %
22.05.2019 00:50 11,2 C 15,6 C 10,6 C 92 % 1010,4 hPa 0,0 l/m 22,2 km/h (4 Bft) W 263 0 min 0,000 mm 0,0 UV-I 0 W/m 9,9 C 4,2 C 32,2 km/h (5 Bft) 100,00 %
22.05.2019 00:52 11,2 C 15,6 C 10,6 C 92 % 1010,4 hPa 0,0 l/m 17,3 km/h (3 Bft) W-SW 246 0 min 0,000 mm 0,0 UV-I 0 W/m 9,9 C 5,7 C 29,0 km/h (5 Bft) 100,00 %
22.05.2019 00:54 11,2 C 15,6 C 10,6 C 92 % 1010,3 hPa 0,0 l/m 21,0 km/h (4 Bft) W-SW 240 0 min 0,000 mm 0,0 UV-I 0 W/m 9,9 C 4,5 C 29,0 km/h (5 Bft) 97,92 %
22.05.2019 00:56 11,2 C 15,6 C 10,6 C 92 % 1010,3 hPa 0,0 l/m 21,2 km/h (4 Bft) W 272 0 min 0,000 mm 0,0 UV-I 0 W/m 9,9 C 4,5 C 33,8 km/h (5 Bft) 100,00 %
22.05.2019 00:58 11,2 C 15,6 C 10,6 C 92 % 1010,3 hPa 0,0 l/m 21,0 km/h (4 Bft) W-SW 241 0 min 0,000 mm 0,0 UV-I 0 W/m 9,9 C 4,5 C 32,2 km/h (5 Bft) 100,00 %
22.05.2019 01:00 11,2 C 15,6 C 10,6 C 92 % 1010,3 hPa 0,0 l/m 21,0 km/h (4 Bft) SW 221 0 min 0,025 mm 0,0 UV-I 0 W/m 9,9 C 4,5 C 33,8 km/h (5 Bft) 100,00 %
22.05.2019 01:02 11,2 C 15,6 C 10,6 C 92 % 1010,3 hPa 0,0 l/m 22,7 km/h (4 Bft) W-SW 256 0 min 0,000 mm 0,0 UV-I 0 W/m 9,9 C 4,1 C 33,8 km/h (5 Bft) 100,00 %
22.05.2019 01:04 11,2 C 15,6 C 10,6 C 92 % 1010,3 hPa 0,0 l/m 20,6 km/h (4 Bft) SW 214 0 min 0,000 mm 0,0 UV-I 0 W/m 9,9 C 4,7 C 33,8 km/h (5 Bft) 97,87 %
22.05.2019 01:06 11,2 C 15,6 C 10,6 C 92 % 1010,3 hPa 0,0 l/m 20,5 km/h (4 Bft) W-SW 250 0 min 0,000 mm 0,0 UV-I 0 W/m 9,9 C 4,7 C 29,0 km/h (5 Bft) 97,87 %
22.05.2019 01:08 11,2 C 15,6 C 10,6 C 92 % 1010,3 hPa 0,0 l/m 23,7 km/h (4 Bft) W 264 0 min 0,000 mm 0,0 UV-I 0 W/m 9,9 C 3,8 C 32,2 km/h (5 Bft) 97,22 %
22.05.2019 01:10 11,2 C 15,6 C 10,6 C 92 % 1010,3 hPa 0,0 l/m 22,5 km/h (4 Bft) W-SW 240 0 min 0,000 mm 0,0 UV-I 0 W/m 9,9 C 4,1 C 35,4 km/h (5 Bft) 96,00 %
22.05.2019 01:12 11,3 C 15,6 C 10,6 C 92 % 1010,3 hPa 0,0 l/m 20,1 km/h (4 Bft) W-SW 244 0 min 0,000 mm 0,0 UV-I 0 W/m 10,0 C 4,9 C 30,6 km/h (5 Bft) 98,00 %
22.05.2019 01:14 11,3 C 15,6 C 10,6 C 92 % 1010,2 hPa 0,0 l/m 21,4 km/h (4 Bft) W 260 0 min 0,000 mm 0,0 UV-I 0 W/m 10,0 C 4,6 C 32,2 km/h (5 Bft) 95,74 %
22.05.2019 01:16 11,3 C 15,6 C 10,6 C 92 % 1010,2 hPa 0,0 l/m 21,4 km/h (4 Bft) W-SW 250 0 min 0,000 mm 0,0 UV-I 0 W/m 10,0 C 4,6 C 35,4 km/h (5 Bft) 98,00 %
22.05.2019 01:18 11,3 C 15,6 C 10,6 C 92 % 1010,1 hPa 0,0 l/m 22,1 km/h (4 Bft) W 265 0 min 0,000 mm 0,0 UV-I 0 W/m 10,0 C 4,4 C 33,8 km/h (5 Bft) 97,87 %
22.05.2019 01:20 11,3 C 15,6 C 10,6 C 92 % 1010,2 hPa 0,0 l/m 20,7 km/h (4 Bft) W-SW 252 0 min 0,000 mm 0,0 UV-I 0 W/m 10,0 C 4,8 C 32,2 km/h (5 Bft) 93,62 %
22.05.2019 01:22 11,2 C 15,6 C 10,6 C 92 % 1010,2 hPa 0,0 l/m 16,8 km/h (3 Bft) W-SW 253 0 min 0,000 mm 0,0 UV-I 0 W/m 9,9 C 5,9 C 24,1 km/h (4 Bft) 97,56 %
22.05.2019 01:24 11,2 C 15,6 C 10,6 C 92 % 1010,1 hPa 0,0 l/m 25,6 km/h (4 Bft) W-SW 249 0 min 0,000 mm 0,0 UV-I 0 W/m 9,9 C 3,3 C 37,0 km/h (5 Bft) 95,74 %
22.05.2019 01:26 11,2 C 15,6 C 10,6 C 92 % 1010,2 hPa 0,0 l/m 17,8 km/h (3 Bft) W-SW 244 0 min 0,000 mm 0,0 UV-I 0 W/m 9,9 C 5,6 C 33,8 km/h (5 Bft) 98,00 %
22.05.2019 01:28 11,2 C 15,6 C 10,6 C 92 % 1010,2 hPa 0,0 l/m 20,7 km/h (4 Bft) W-SW 240 0 min 0,000 mm 0,0 UV-I 0 W/m 9,9 C 4,6 C 32,2 km/h (5 Bft) 93,62 %
22.05.2019 01:30 11,2 C 15,6 C 10,6 C 92 % 1010,3 hPa 0,0 l/m 19,9 km/h (4 Bft) W-SW 254 0 min 0,000 mm 0,0 UV-I 0 W/m 9,9 C 4,9 C 33,8 km/h (5 Bft) 97,87 %
22.05.2019 01:32 11,2 C 15,6 C 10,6 C 92 % 1010,2 hPa 0,0 l/m 22,4 km/h (4 Bft) W 265 0 min 0,000 mm 0,0 UV-I 0 W/m 9,9 C 4,1 C 32,2 km/h (5 Bft) 97,92 %
22.05.2019 01:34 11,3 C 15,6 C 10,6 C 92 % 1010,2 hPa 0,0 l/m 26,3 km/h (4 Bft) W-SW 241 0 min 0,000 mm 0,0 UV-I 0 W/m 10,0 C 3,3 C 38,6 km/h (5 Bft) 100,00 %
22.05.2019 01:36 11,3 C 15,6 C 10,6 C 92 % 1010,3 hPa 0,0 l/m 19,8 km/h (3 Bft) W 260 0 min 0,000 mm 0,0 UV-I 0 W/m 10,0 C 5,0 C 33,8 km/h (5 Bft) 97,92 %
22.05.2019 01:38 11,3 C 15,6 C 10,6 C 92 % 1010,3 hPa 0,0 l/m 19,0 km/h (3 Bft) SW 224 0 min 0,000 mm 0,0 UV-I 0 W/m 10,0 C 5,3 C 30,6 km/h (5 Bft) 100,00 %
22.05.2019 01:40 11,3 C 15,6 C 10,6 C 92 % 1010,3 hPa 0,0 l/m 15,9 km/h (3 Bft) W-SW 254 0 min 0,000 mm 0,0 UV-I 0 W/m 10,0 C 6,4 C 22,5 km/h (4 Bft) 97,14 %
22.05.2019 01:42 11,3 C 15,6 C 10,6 C 92 % 1010,3 hPa 0,0 l/m 23,5 km/h (4 Bft) W-SW 238 0 min 0,000 mm 0,0 UV-I 0 W/m 10,0 C 4,0 C 33,8 km/h (5 Bft) 100,00 %
22.05.2019 01:44 11,3 C 15,6 C 10,6 C 92 % 1010,2 hPa 0,0 l/m 25,8 km/h (4 Bft) W-SW 246 0 min 0,000 mm 0,0 UV-I 0 W/m 10,0 C 3,4 C 43,5 km/h (6 Bft) 97,87 %
22.05.2019 01:46 11,3 C 15,6 C 10,6 C 92 % 1010,2 hPa 0,0 l/m 26,4 km/h (4 Bft) W 263 0 min 0,000 mm 0,0 UV-I 0 W/m 10,0 C 3,3 C 40,2 km/h (6 Bft) 100,00 %
22.05.2019 01:48 11,3 C 15,6 C 10,6 C 92 % 1010,2 hPa 0,0 l/m 24,6 km/h (4 Bft) W 271 0 min 0,000 mm 0,0 UV-I 0 W/m 10,0 C 3,7 C 35,4 km/h (5 Bft) 97,87 %
22.05.2019 01:50 11,3 C 15,6 C 10,6 C 92 % 1010,3 hPa 0,0 l/m 21,8 km/h (4 Bft) W-SW 238 0 min 0,000 mm 0,0 UV-I 0 W/m 10,0 C 4,4 C 30,6 km/h (5 Bft) 100,00 %
22.05.2019 01:52 11,3 C 15,6 C 10,6 C 92 % 1010,3 hPa 0,0 l/m 18,2 km/h (3 Bft) SW 217 0 min 0,000 mm 0,0 UV-I 0 W/m 10,0 C 5,5 C 27,4 km/h (4 Bft) 95,83 %
22.05.2019 01:54 11,3 C 15,6 C 10,6 C 92 % 1010,2 hPa 0,0 l/m 23,4 km/h (4 Bft) SW 234 0 min 0,000 mm 0,0 UV-I 0 W/m 10,0 C 4,0 C 35,4 km/h (5 Bft) 93,85 %
22.05.2019 01:56 11,3 C 15,6 C 10,6 C 92 % 1010,2 hPa 0,0 l/m 25,0 km/h (4 Bft) W-SW 239 0 min 0,000 mm 0,0 UV-I 0 W/m 10,0 C 3,6 C 35,4 km/h (5 Bft) 97,87 %
22.05.2019 01:58 11,3 C 15,6 C 10,6 C 93 % 1010,2 hPa 0,0 l/m 23,2 km/h (4 Bft) W-SW 245 0 min 0,000 mm 0,0 UV-I 0 W/m 10,2 C 4,1 C 30,6 km/h (5 Bft) 98,00 %
22.05.2019 02:00 11,3 C 15,6 C 10,6 C 93 % 1010,2 hPa 0,0 l/m 20,4 km/h (4 Bft) W-SW 248 0 min 0,026 mm 0,0 UV-I 0 W/m 10,2 C 4,8 C 33,8 km/h (5 Bft) 97,87 %
22.05.2019 02:02 11,3 C 15,6 C 10,6 C 93 % 1010,2 hPa 0,0 l/m 23,3 km/h (4 Bft) SW 232 0 min 0,000 mm 0,0 UV-I 0 W/m 10,2 C 4,0 C 37,0 km/h (5 Bft) 97,37 %
22.05.2019 02:04 11,2 C 15,6 C 10,6 C 93 % 1010,2 hPa 0,0 l/m 19,1 km/h (3 Bft) W-SW 250 0 min 0,000 mm 0,0 UV-I 0 W/m 10,1 C 5,1 C 27,4 km/h (4 Bft) 93,62 %
22.05.2019 02:06 11,2 C 15,6 C 10,6 C 93 % 1010,1 hPa 0,0 l/m 23,3 km/h (4 Bft) W-NW 284 0 min 0,000 mm 0,0 UV-I 0 W/m 10,1 C 3,9 C 33,8 km/h (5 Bft) 95,83 %
22.05.2019 02:08 11,2 C 15,6 C 10,6 C 93 % 1010,2 hPa 0,0 l/m 23,3 km/h (4 Bft) SW 229 0 min 0,000 mm 0,0 UV-I 0 W/m 10,1 C 3,9 C 35,4 km/h (5 Bft) 97,87 %
22.05.2019 02:10 11,2 C 15,6 C 10,6 C 93 % 1010,2 hPa 0,0 l/m 21,6 km/h (4 Bft) SW 231 0 min 0,000 mm 0,0 UV-I 0 W/m 10,1 C 4,4 C 33,8 km/h (5 Bft) 98,00 %
22.05.2019 02:12 11,2 C 15,6 C 10,6 C 93 % 1010,2 hPa 0,0 l/m 23,3 km/h (4 Bft) W-SW 237 0 min 0,000 mm 0,0 UV-I 0 W/m 10,1 C 3,9 C 33,8 km/h (5 Bft) 96,00 %
22.05.2019 02:14 11,2 C 15,6 C 10,6 C 93 % 1010,3 hPa 0,0 l/m 19,4 km/h (3 Bft) W-SW 250 0 min 0,000 mm 0,0 UV-I 0 W/m 10,1 C 5,0 C 32,2 km/h (5 Bft) 97,87 %
22.05.2019 02:16 11,2 C 15,6 C 10,6 C 93 % 1010,2 hPa 0,0 l/m 19,8 km/h (3 Bft) SW 234 0 min 0,000 mm 0,0 UV-I 0 W/m 10,1 C 4,9 C 27,4 km/h (4 Bft) 95,74 %
22.05.2019 02:18 11,2 C 15,6 C 10,6 C 93 % 1010,3 hPa 0,0 l/m 22,1 km/h (4 Bft) SW 231 0 min 0,000 mm 0,0 UV-I 0 W/m 10,1 C 4,2 C 33,8 km/h (5 Bft) 98,00 %
22.05.2019 02:20 11,2 C 15,6 C 10,6 C 93 % 1010,3 hPa 0,0 l/m 19,9 km/h (4 Bft) SW 234 0 min 0,000 mm 0,0 UV-I 0 W/m 10,1 C 4,9 C 30,6 km/h (5 Bft) 97,87 %
22.05.2019 02:22 11,2 C 15,6 C 10,6 C 93 % 1010,4 hPa 0,2 l/m 17,2 km/h (3 Bft) W-SW 253 0 min 0,000 mm 0,0 UV-I 0 W/m 10,1 C 5,8 C 30,6 km/h (5 Bft) 94,74 %
22.05.2019 02:24 11,2 C 15,6 C 10,6 C 93 % 1010,3 hPa 0,0 l/m 18,6 km/h (3 Bft) W 260 0 min 0,000 mm 0,0 UV-I 0 W/m 10,1 C 5,3 C 25,7 km/h (4 Bft) 100,00 %
22.05.2019 02:26 11,2 C 15,6 C 10,6 C 93 % 1010,3 hPa 0,2 l/m 22,7 km/h (4 Bft) W-SW 252 0 min 0,000 mm 0,0 UV-I 0 W/m 10,1 C 4,1 C 33,8 km/h (5 Bft) 100,00 %
22.05.2019 02:28 11,1 C 15,6 C 10,6 C 94 % 1010,3 hPa 0,0 l/m 18,5 km/h (3 Bft) W 272 0 min 0,000 mm 0,0 UV-I 0 W/m 10,2 C 5,2 C 24,1 km/h (4 Bft) 100,00 %
22.05.2019 02:30 11,1 C 15,6 C 10,6 C 93 % 1010,3 hPa 0,0 l/m 18,4 km/h (3 Bft) W 269 0 min 0,000 mm 0,0 UV-I 0 W/m 10,0 C 5,2 C 32,2 km/h (5 Bft) 97,87 %
22.05.2019 02:32 11,1 C 15,6 C 10,6 C 94 % 1010,3 hPa 0,2 l/m 22,9 km/h (4 Bft) SW 236 0 min 0,000 mm 0,0 UV-I 0 W/m 10,2 C 3,9 C 33,8 km/h (5 Bft) 97,87 %
22.05.2019 02:34 11,1 C 15,6 C 10,6 C 94 % 1010,3 hPa 0,0 l/m 19,2 km/h (3 Bft) W 267 0 min 0,000 mm 0,0 UV-I 0 W/m 10,2 C 5,0 C 27,4 km/h (4 Bft) 97,87 %
22.05.2019 02:36 11,1 C 15,6 C 10,6 C 94 % 1010,5 hPa 0,0 l/m 21,7 km/h (4 Bft) W-SW 244 0 min 0,000 mm 0,0 UV-I 0 W/m 10,2 C 4,2 C 35,4 km/h (5 Bft) 97,87 %
22.05.2019 02:38 11,1 C 15,6 C 10,6 C 94 % 1010,5 hPa 0,0 l/m 16,6 km/h (3 Bft) W 263 0 min 0,000 mm 0,0 UV-I 0 W/m 10,2 C 5,9 C 30,6 km/h (5 Bft) 97,37 %
22.05.2019 02:40 11,1 C 15,6 C 10,6 C 94 % 1010,5 hPa 0,0 l/m 14,9 km/h (3 Bft) W-SW 237 0 min 0,000 mm 0,0 UV-I 0 W/m 10,2 C 6,5 C 24,1 km/h (4 Bft) 96,00 %
22.05.2019 02:42 11,1 C 15,6 C 10,6 C 94 % 1010,6 hPa 0,0 l/m 20,9 km/h (4 Bft) W-SW 238 0 min 0,000 mm 0,0 UV-I 0 W/m 10,2 C 4,4 C 33,8 km/h (5 Bft) 97,87 %
22.05.2019 02:44 11,1 C 15,6 C 10,6 C 94 % 1010,5 hPa 0,2 l/m 19,2 km/h (3 Bft) SW 231 0 min 0,000 mm 0,0 UV-I 0 W/m 10,2 C 5,0 C 29,0 km/h (5 Bft) 98,00 %
22.05.2019 02:46 11,1 C 15,6 C 10,6 C 94 % 1010,5 hPa 0,2 l/m 17,3 km/h (3 Bft) W-SW 258 0 min 0,000 mm 0,0 UV-I 0 W/m 10,2 C 5,6 C 29,0 km/h (5 Bft) 97,87 %
22.05.2019 02:48 11,1 C 15,6 C 10,6 C 94 % 1010,6 hPa 0,4 l/m 17,7 km/h (3 Bft) W-SW 238 0 min 0,000 mm 0,0 UV-I 0 W/m 10,2 C 5,5 C 29,0 km/h (5 Bft) 96,00 %
22.05.2019 02:50 11,1 C 15,6 C 10,6 C 94 % 1010,6 hPa 0,0 l/m 18,3 km/h (3 Bft) SW 226 0 min 0,000 mm 0,0 UV-I 0 W/m 10,2 C 5,3 C 27,4 km/h (4 Bft) 97,87 %
22.05.2019 02:52 11,1 C 15,6 C 10,6 C 94 % 1010,6 hPa 0,2 l/m 15,2 km/h (3 Bft) W-SW 258 0 min 0,000 mm 0,0 UV-I 0 W/m 10,2 C 6,4 C 24,1 km/h (4 Bft) 100,00 %
22.05.2019 02:54 11,1 C 15,6 C 10,6 C 94 % 1010,5 hPa 0,0 l/m 21,1 km/h (4 Bft) W-SW 252 0 min 0,000 mm 0,0 UV-I 0 W/m 10,2 C 4,4 C 29,0 km/h (5 Bft) 97,87 %
22.05.2019 02:56 11,1 C 15,6 C 10,6 C 94 % 1010,5 hPa 0,0 l/m 20,1 km/h (4 Bft) W 259 0 min 0,000 mm 0,0 UV-I 0 W/m 10,2 C 4,7 C 25,7 km/h (4 Bft) 97,87 %
22.05.2019 02:58 11,1 C 15,6 C 10,6 C 94 % 1010,5 hPa 0,0 l/m 17,7 km/h (3 Bft) W 261 0 min 0,000 mm 0,0 UV-I 0 W/m 10,2 C 5,5 C 29,0 km/h (5 Bft) 100,00 %
22.05.2019 03:00 11,1 C 15,6 C 10,6 C 94 % 1010,5 hPa 0,0 l/m 20,5 km/h (4 Bft) W 270 0 min 0,025 mm 0,0 UV-I 0 W/m 10,2 C 4,6 C 29,0 km/h (5 Bft) 100,00 %
22.05.2019 03:02 11,1 C 15,6 C 10,6 C 94 % 1010,6 hPa 0,2 l/m 16,7 km/h (3 Bft) W-SW 257 0 min 0,000 mm 0,0 UV-I 0 W/m 10,2 C 5,8 C 27,4 km/h (4 Bft) 100,00 %
22.05.2019 03:04 11,1 C 15,6 C 10,6 C 94 % 1010,6 hPa 0,0 l/m 18,4 km/h (3 Bft) W-SW 242 0 min 0,000 mm 0,0 UV-I 0 W/m 10,2 C 5,2 C 29,0 km/h (5 Bft) 100,00 %
22.05.2019 03:06 11,1 C 15,6 C 10,6 C 94 % 1010,7 hPa 0,0 l/m 20,8 km/h (4 Bft) W 271 0 min 0,000 mm 0,0 UV-I 0 W/m 10,2 C 4,5 C 32,2 km/h (5 Bft) 100,00 %
22.05.2019 03:08 11,1 C 15,6 C 10,6 C 94 % 1010,7 hPa 0,0 l/m 14,8 km/h (3 Bft) SW 232 0 min 0,000 mm 0,0 UV-I 0 W/m 10,2 C 6,5 C 19,3 km/h (3 Bft) 100,00 %
22.05.2019 03:10 11,1 C 15,6 C 10,6 C 94 % 1010,7 hPa 0,2 l/m 18,9 km/h (3 Bft) SW 232 0 min 0,000 mm 0,0 UV-I 0 W/m 10,2 C 5,1 C 25,7 km/h (4 Bft) 100,00 %
22.05.2019 03:12 11,1 C 15,6 C 10,6 C 94 % 1010,7 hPa 0,2 l/m 22,3 km/h (4 Bft) W-SW 250 0 min 0,000 mm 0,0 UV-I 0 W/m 10,2 C 4,0 C 37,0 km/h (5 Bft) 100,00 %
22.05.2019 03:14 11,1 C 15,6 C 10,6 C 94 % 1010,7 hPa 0,0 l/m 19,5 km/h (3 Bft) W 261 0 min 0,000 mm 0,0 UV-I 0 W/m 10,2 C 4,9 C 32,2 km/h (5 Bft) 100,00 %
22.05.2019 03:16 11,1 C 15,6 C 10,6 C 95 % 1010,6 hPa 0,0 l/m 18,4 km/h (3 Bft) W-SW 242 0 min 0,000 mm 0,0 UV-I 0 W/m 10,3 C 5,2 C 32,2 km/h (5 Bft) 97,87 %
22.05.2019 03:18 11,1 C 15,6 C 10,6 C 95 % 1010,7 hPa 0,0 l/m 16,0 km/h (3 Bft) W-SW 254 0 min 0,000 mm 0,0 UV-I 0 W/m 10,3 C 6,1 C 25,7 km/h (4 Bft) 100,00 %
22.05.2019 03:20 11,1 C 15,6 C 10,6 C 95 % 1010,7 hPa 0,2 l/m 16,9 km/h (3 Bft) W 266 0 min 0,000 mm 0,0 UV-I 0 W/m 10,3 C 5,7 C 29,0 km/h (5 Bft) 100,00 %
22.05.2019 03:22 11,1 C 15,6 C 11,1 C 95 % 1010,6 hPa 0,0 l/m 13,0 km/h (3 Bft) W-NW 286 0 min 0,000 mm 0,0 UV-I 0 W/m 10,3 C 7,3 C 24,1 km/h (4 Bft) 100,00 %
22.05.2019 03:24 11,1 C 15,6 C 11,1 C 95 % 1010,7 hPa 0,0 l/m 16,2 km/h (3 Bft) W-SW 237 0 min 0,000 mm 0,0 UV-I 0 W/m 10,3 C 6,0 C 25,7 km/h (4 Bft) 96,00 %
22.05.2019 03:26 11,1 C 15,6 C 11,1 C 95 % 1010,6 hPa 0,0 l/m 15,7 km/h (3 Bft) SW 235 0 min 0,000 mm 0,0 UV-I 0 W/m 10,3 C 6,2 C 25,7 km/h (4 Bft) 97,92 %
22.05.2019 03:28 11,1 C 15,6 C 11,1 C 95 % 1010,7 hPa 0,0 l/m 19,4 km/h (3 Bft) W 267 0 min 0,000 mm 0,0 UV-I 0 W/m 10,3 C 4,9 C 25,7 km/h (4 Bft) 97,87 %
22.05.2019 03:30 11,1 C 15,0 C 11,1 C 95 % 1010,6 hPa 0,2 l/m 16,6 km/h (3 Bft) SW 227 0 min 0,000 mm 0,0 UV-I 0 W/m 10,3 C 5,9 C 27,4 km/h (4 Bft) 98,00 %
22.05.2019 03:32 11,1 C 15,0 C 11,1 C 95 % 1010,7 hPa 0,0 l/m 19,3 km/h (3 Bft) SW 219 0 min 0,000 mm 0,0 UV-I 0 W/m 10,3 C 4,9 C 30,6 km/h (5 Bft) 97,87 %
22.05.2019 03:34 11,1 C 15,6 C 11,1 C 95 % 1010,6 hPa 0,0 l/m 16,3 km/h (3 Bft) W 263 0 min 0,000 mm 0,0 UV-I 0 W/m 10,3 C 6,0 C 25,7 km/h (4 Bft) 97,37 %
22.05.2019 03:36 11,1 C 15,6 C 10,6 C 95 % 1010,7 hPa 0,2 l/m 20,2 km/h (4 Bft) SW 221 0 min 0,000 mm 0,0 UV-I 0 W/m 10,3 C 4,6 C 30,6 km/h (5 Bft) 97,87 %
22.05.2019 03:38 11,1 C 15,6 C 11,1 C 95 % 1010,6 hPa 0,2 l/m 16,2 km/h (3 Bft) W-SW 240 0 min 0,000 mm 0,0 UV-I 0 W/m 10,3 C 6,0 C 25,7 km/h (4 Bft) 94,00 %
22.05.2019 03:40 11,1 C 15,0 C 10,6 C 95 % 1010,7 hPa 0,0 l/m 18,2 km/h (3 Bft) SW 232 0 min 0,000 mm 0,0 UV-I 0 W/m 10,3 C 5,3 C 27,4 km/h (4 Bft) 97,87 %
22.05.2019 03:42 11,1 C 15,6 C 10,6 C 95 % 1010,6 hPa 0,0 l/m 18,8 km/h (3 Bft) SW 232 0 min 0,000 mm 0,0 UV-I 0 W/m 10,3 C 5,1 C 25,7 km/h (4 Bft) 97,87 %
22.05.2019 03:44 11,1 C 15,6 C 10,6 C 95 % 1010,7 hPa 0,2 l/m 19,6 km/h (3 Bft) W 269 0 min 0,000 mm 0,0 UV-I 0 W/m 10,3 C 4,8 C 24,1 km/h (4 Bft) 96,00 %
22.05.2019 03:46 11,1 C 15,0 C 11,1 C 95 % 1010,7 hPa 0,0 l/m 22,5 km/h (4 Bft) SW 235 0 min 0,000 mm 0,0 UV-I 0 W/m 10,3 C 4,0 C 35,4 km/h (5 Bft) 95,74 %
22.05.2019 03:48 11,1 C 15,0 C 11,1 C 95 % 1010,8 hPa 0,2 l/m 19,5 km/h (3 Bft) SW 236 0 min 0,000 mm 0,0 UV-I 0 W/m 10,3 C 4,9 C 25,7 km/h (4 Bft) 97,37 %
22.05.2019 03:50 11,1 C 15,0 C 11,1 C 95 % 1010,8 hPa 0,0 l/m 18,0 km/h (3 Bft) W-NW 284 0 min 0,000 mm 0,0 UV-I 0 W/m 10,3 C 5,4 C 25,7 km/h (4 Bft) 100,00 %
22.05.2019 03:52 11,1 C 15,0 C 11,1 C 95 % 1010,7 hPa 0,0 l/m 18,8 km/h (3 Bft) W 267 0 min 0,000 mm 0,0 UV-I 0 W/m 10,3 C 5,1 C 35,4 km/h (5 Bft) 93,55 %
22.05.2019 03:54 11,1 C 15,0 C 11,1 C 95 % 1010,7 hPa 0,0 l/m 21,9 km/h (4 Bft) W-SW 249 0 min 0,000 mm 0,0 UV-I 0 W/m 10,3 C 4,1 C 33,8 km/h (5 Bft) 91,49 %
22.05.2019 03:56 11,1 C 15,0 C 11,1 C 95 % 1010,8 hPa 0,0 l/m 19,6 km/h (3 Bft) W 267 0 min 0,000 mm 0,0 UV-I 0 W/m 10,3 C 4,8 C 32,2 km/h (5 Bft) 94,00 %
22.05.2019 03:58 11,1 C 15,0 C 11,1 C 95 % 1010,7 hPa 0,0 l/m 19,1 km/h (3 Bft) W 272 0 min 0,000 mm 0,0 UV-I 0 W/m 10,3 C 5,0 C 29,0 km/h (5 Bft) 93,62 %
22.05.2019 04:00 11,1 C 15,0 C 11,1 C 95 % 1010,7 hPa 0,2 l/m 19,2 km/h (3 Bft) SW 214 0 min 0,000 mm 0,0 UV-I 0 W/m 10,3 C 5,0 C 29,0 km/h (5 Bft) 91,49 %
22.05.2019 04:04 11,1 C 15,0 C 11,1 C 95 % 1010,8 hPa 0,0 l/m 18,1 km/h (3 Bft) W-SW 252 0 min 0,000 mm 0,0 UV-I 0 W/m 10,3 C 5,3 C 29,0 km/h (5 Bft) 97,06 %
22.05.2019 04:06 11,1 C 15,0 C 11,1 C 95 % 1010,8 hPa 0,0 l/m 19,2 km/h (3 Bft) W 259 0 min 0,000 mm 0,0 UV-I 0 W/m 10,3 C 5,0 C 27,4 km/h (4 Bft) 91,49 %
22.05.2019 04:08 11,1 C 15,0 C 11,1 C 95 % 1010,7 hPa 0,0 l/m 20,5 km/h (4 Bft) W-SW 254 0 min 0,000 mm 0,0 UV-I 0 W/m 10,3 C 4,6 C 32,2 km/h (5 Bft) 92,31 %
22.05.2019 04:10 11,1 C 15,0 C 11,1 C 95 % 1010,8 hPa 0,2 l/m 18,1 km/h (3 Bft) W-SW 237 0 min 0,000 mm 0,0 UV-I 0 W/m 10,3 C 5,3 C 29,0 km/h (5 Bft) 89,36 %
22.05.2019 04:12 11,1 C 15,0 C 11,1 C 95 % 1010,8 hPa 0,0 l/m 15,3 km/h (3 Bft) S-SW 192 0 min 0,000 mm 0,0 UV-I 0 W/m 10,3 C 6,3 C 20,9 km/h (4 Bft) 90,00 %
22.05.2019 04:14 11,1 C 15,0 C 11,1 C 95 % 1010,7 hPa 0,0 l/m 16,0 km/h (3 Bft) W 271 0 min 0,000 mm 0,0 UV-I 0 W/m 10,3 C 6,1 C 24,1 km/h (4 Bft) 91,49 %
22.05.2019 04:16 11,1 C 15,0 C 11,1 C 95 % 1010,7 hPa 0,2 l/m 18,1 km/h (3 Bft) W-SW 241 0 min 0,000 mm 0,0 UV-I 0 W/m 10,3 C 5,3 C 25,7 km/h (4 Bft) 95,74 %
22.05.2019 04:18 11,1 C 15,0 C 11,1 C 95 % 1010,8 hPa 0,2 l/m 22,7 km/h (4 Bft) W 272 0 min 0,000 mm 0,0 UV-I 0 W/m 10,3 C 3,9 C 30,6 km/h (5 Bft) 91,49 %
22.05.2019 04:20 11,1 C 15,0 C 10,6 C 95 % 1010,8 hPa 0,2 l/m 17,3 km/h (3 Bft) W 269 0 min 0,000 mm 0,0 UV-I 0 W/m 10,3 C 5,6 C 25,7 km/h (4 Bft) 95,74 %
22.05.2019 04:22 11,1 C 15,0 C 10,6 C 95 % 1010,8 hPa 0,2 l/m 20,8 km/h (4 Bft) W-SW 250 0 min 0,000 mm 0,0 UV-I 0 W/m 10,3 C 4,5 C 29,0 km/h (5 Bft) 95,74 %
22.05.2019 04:24 11,1 C 15,0 C 10,6 C 95 % 1010,8 hPa 0,4 l/m 22,4 km/h (4 Bft) W-SW 237 0 min 0,000 mm 0,0 UV-I 0 W/m 10,3 C 4,0 C 33,8 km/h (5 Bft) 95,74 %
22.05.2019 04:26 11,1 C 15,0 C 10,6 C 95 % 1010,8 hPa 0,2 l/m 15,5 km/h (3 Bft) SW 231 0 min 0,000 mm 0,0 UV-I 0 W/m 10,3 C 6,3 C 20,9 km/h (4 Bft) 95,74 %
22.05.2019 04:28 11,1 C 15,0 C 10,6 C 95 % 1010,7 hPa 0,0 l/m 17,1 km/h (3 Bft) W-SW 248 0 min 0,000 mm 0,0 UV-I 0 W/m 10,3 C 5,7 C 25,7 km/h (4 Bft) 97,87 %
22.05.2019 04:30 11,1 C 15,0 C 10,6 C 95 % 1010,8 hPa 0,2 l/m 17,8 km/h (3 Bft) W-SW 240 0 min 0,000 mm 0,0 UV-I 0 W/m 10,3 C 5,4 C 32,2 km/h (5 Bft) 95,92 %
22.05.2019 04:32 11,1 C 15,0 C 10,6 C 95 % 1010,8 hPa 0,2 l/m 21,7 km/h (4 Bft) W-SW 242 0 min 0,000 mm 0,0 UV-I 0 W/m 10,3 C 4,2 C 29,0 km/h (5 Bft) 100,00 %
22.05.2019 04:34 11,1 C 15,0 C 10,6 C 95 % 1010,8 hPa 0,2 l/m 21,6 km/h (4 Bft) W-SW 258 0 min 0,000 mm 0,0 UV-I 0 W/m 10,3 C 4,2 C 35,4 km/h (5 Bft) 100,00 %
22.05.2019 04:36 11,1 C 15,0 C 10,6 C 95 % 1011,0 hPa 0,0 l/m 21,5 km/h (4 Bft) SW 227 0 min 0,000 mm 0,0 UV-I 0 W/m 10,3 C 4,3 C 30,6 km/h (5 Bft) 100,00 %
22.05.2019 04:38 11,1 C 15,0 C 10,6 C 95 % 1010,9 hPa 0,2 l/m 18,7 km/h (3 Bft) W-SW 239 0 min 0,000 mm 0,0 UV-I 0 W/m 10,3 C 5,1 C 29,0 km/h (5 Bft) 97,87 %
22.05.2019 04:40 11,1 C 15,0 C 10,6 C 95 % 1010,8 hPa 0,0 l/m 22,3 km/h (4 Bft) W-SW 246 0 min 0,000 mm 0,0 UV-I 0 W/m 10,3 C 4,0 C 32,2 km/h (5 Bft) 100,00 %
22.05.2019 04:42 11,1 C 15,0 C 10,6 C 95 % 1010,9 hPa 0,0 l/m 18,1 km/h (3 Bft) W-SW 254 0 min 0,000 mm 0,0 UV-I 0 W/m 10,3 C 5,3 C 29,0 km/h (5 Bft) 100,00 %
22.05.2019 04:44 11,1 C 15,0 C 10,6 C 95 % 1010,8 hPa 0,0 l/m 17,6 km/h (3 Bft) W-SW 244 0 min 0,000 mm 0,0 UV-I 0 W/m 10,3 C 5,5 C 29,0 km/h (5 Bft) 100,00 %
22.05.2019 04:46 11,1 C 15,0 C 10,6 C 95 % 1010,9 hPa 0,0 l/m 21,2 km/h (4 Bft) SW 219 0 min 0,000 mm 0,0 UV-I 0 W/m 10,3 C 4,3 C 30,6 km/h (5 Bft) 100,00 %
22.05.2019 04:48 11,1 C 15,0 C 10,6 C 95 % 1010,9 hPa 0,0 l/m 18,6 km/h (3 Bft) W-SW 247 0 min 0,000 mm 0,0 UV-I 0 W/m 10,3 C 5,2 C 27,4 km/h (4 Bft) 97,37 %
22.05.2019 04:50 11,1 C 15,0 C 10,6 C 95 % 1010,9 hPa 0,0 l/m 16,9 km/h (3 Bft) W-SW 252 0 min 0,000 mm 0,0 UV-I 0 W/m 10,3 C 5,7 C 27,4 km/h (4 Bft) 98,00 %
22.05.2019 04:52 11,1 C 15,0 C 11,1 C 95 % 1010,9 hPa 0,0 l/m 15,9 km/h (3 Bft) W-SW 252 0 min 0,000 mm 0,0 UV-I 0 W/m 10,3 C 6,1 C 22,5 km/h (4 Bft) 100,00 %
22.05.2019 04:54 11,1 C 15,0 C 10,6 C 95 % 1011,0 hPa 0,0 l/m 18,6 km/h (3 Bft) SW 224 0 min 0,000 mm 0,0 UV-I 0 W/m 10,3 C 5,2 C 25,7 km/h (4 Bft) 97,87 %
22.05.2019 04:56 11,1 C 15,0 C 10,6 C 95 % 1010,9 hPa 0,0 l/m 24,7 km/h (4 Bft) W-SW 247 0 min 0,000 mm 0,0 UV-I 0 W/m 10,3 C 3,4 C 35,4 km/h (5 Bft) 100,00 %
22.05.2019 04:58 11,1 C 15,0 C 11,1 C 95 % 1011,0 hPa 0,0 l/m 20,8 km/h (4 Bft) SW 229 0 min 0,000 mm 0,0 UV-I 0 W/m 10,3 C 4,5 C 29,0 km/h (5 Bft) 98,00 %
22.05.2019 05:00 11,1 C 15,0 C 11,1 C 95 % 1011,0 hPa 0,0 l/m 17,9 km/h (3 Bft) SW 224 0 min 0,000 mm 0,0 UV-I 0 W/m 10,3 C 5,4 C 30,6 km/h (5 Bft) 100,00 %
22.05.2019 05:02 11,1 C 15,0 C 11,1 C 95 % 1011,1 hPa 0,0 l/m 19,9 km/h (4 Bft) W-SW 239 0 min 0,000 mm 0,0 UV-I 0 W/m 10,3 C 4,7 C 30,6 km/h (5 Bft) 97,87 %
22.05.2019 05:04 11,1 C 15,0 C 10,6 C 95 % 1011,1 hPa 0,0 l/m 16,0 km/h (3 Bft) SW 236 0 min 0,000 mm 0,0 UV-I 0 W/m 10,3 C 6,1 C 25,7 km/h (4 Bft) 100,00 %
22.05.2019 05:06 11,1 C 15,0 C 11,1 C 95 % 1011,1 hPa 0,0 l/m 19,5 km/h (3 Bft) SW 234 0 min 0,000 mm 0,0 UV-I 0 W/m 10,3 C 4,9 C 29,0 km/h (5 Bft) 100,00 %
22.05.2019 05:08 11,1 C 15,0 C 11,1 C 95 % 1011,1 hPa 0,0 l/m 17,2 km/h (3 Bft) SW 219 0 min 0,000 mm 0,0 UV-I 0 W/m 10,3 C 5,6 C 25,7 km/h (4 Bft) 97,87 %
22.05.2019 05:10 11,1 C 15,0 C 11,1 C 95 % 1011,1 hPa 0,0 l/m 20,4 km/h (4 Bft) W 275 0 min 0,000 mm 0,0 UV-I 0 W/m 10,3 C 4,6 C 27,4 km/h (4 Bft) 97,87 %
22.05.2019 05:12 11,1 C 15,0 C 11,1 C 95 % 1011,2 hPa 0,0 l/m 19,3 km/h (3 Bft) W-SW 252 0 min 0,000 mm 0,0 UV-I 0 W/m 10,3 C 4,9 C 27,4 km/h (4 Bft) 100,00 %
22.05.2019 05:14 11,1 C 15,0 C 11,1 C 95 % 1011,2 hPa 0,0 l/m 17,4 km/h (3 Bft) W-SW 253 0 min 0,000 mm 0,0 UV-I 0 W/m 10,3 C 5,6 C 24,1 km/h (4 Bft) 96,61 %
22.05.2019 05:16 11,0 C 15,0 C 11,1 C 95 % 1011,3 hPa 0,0 l/m 20,4 km/h (4 Bft) W-SW 240 0 min 0,000 mm 0,0 UV-I 0 W/m 10,2 C 4,5 C 30,6 km/h (5 Bft) 100,00 %
22.05.2019 05:18 11,1 C 15,0 C 11,1 C 95 % 1011,3 hPa 0,0 l/m 16,1 km/h (3 Bft) SW 234 0 min 0,000 mm 0,0 UV-I 0 W/m 10,3 C 6,0 C 20,9 km/h (4 Bft) 95,74 %
22.05.2019 05:20 11,1 C 15,0 C 11,1 C 95 % 1011,3 hPa 0,0 l/m 20,8 km/h (4 Bft) W-SW 240 0 min 0,000 mm 0,0 UV-I 0 W/m 10,3 C 4,5 C 35,4 km/h (5 Bft) 94,74 %
22.05.2019 05:22 11,1 C 15,0 C 11,1 C 95 % 1011,3 hPa 0,0 l/m 20,2 km/h (4 Bft) W-SW 237 0 min 0,000 mm 0,0 UV-I 0 W/m 10,3 C 4,6 C 30,6 km/h (5 Bft) 98,39 %
22.05.2019 05:24 11,1 C 15,0 C 11,1 C 95 % 1011,3 hPa 0,0 l/m 18,2 km/h (3 Bft) W 275 0 min 0,000 mm 0,0 UV-I 0 W/m 10,3 C 5,3 C 30,6 km/h (5 Bft) 97,87 %
22.05.2019 05:26 11,1 C 15,0 C 11,1 C 95 % 1011,3 hPa 0,0 l/m 15,8 km/h (3 Bft) W 267 0 min 0,000 mm 0,0 UV-I 0 W/m 10,3 C 6,2 C 22,5 km/h (4 Bft) 97,87 %
22.05.2019 05:28 11,1 C 15,0 C 11,1 C 95 % 1011,4 hPa 0,0 l/m 19,7 km/h (3 Bft) W-SW 246 0 min 0,000 mm 0,0 UV-I 3 W/m 10,3 C 4,8 C 29,0 km/h (5 Bft) 95,74 %
22.05.2019 05:30 11,1 C 15,0 C 11,1 C 95 % 1011,4 hPa 0,0 l/m 14,7 km/h (3 Bft) SW 234 0 min 0,000 mm 0,0 UV-I 5 W/m 10,3 C 6,6 C 25,7 km/h (4 Bft) 95,74 %
22.05.2019 05:32 11,1 C 15,0 C 11,1 C 95 % 1011,4 hPa 0,0 l/m 16,0 km/h (3 Bft) W 272 0 min 0,000 mm 0,0 UV-I 5 W/m 10,3 C 6,1 C 22,5 km/h (4 Bft) 95,74 %
22.05.2019 05:34 11,1 C 15,0 C 11,1 C 95 % 1011,4 hPa 0,0 l/m 18,0 km/h (3 Bft) W 260 0 min 0,000 mm 0,0 UV-I 5 W/m 10,3 C 5,4 C 24,1 km/h (4 Bft) 97,67 %
22.05.2019 05:36 11,1 C 15,0 C 11,1 C 95 % 1011,4 hPa 0,0 l/m 17,2 km/h (3 Bft) W 273 0 min 0,000 mm 0,0 UV-I 5 W/m 10,3 C 5,6 C 27,4 km/h (4 Bft) 95,74 %
22.05.2019 05:38 11,1 C 15,0 C 11,1 C 95 % 1011,4 hPa 0,2 l/m 16,7 km/h (3 Bft) W 263 0 min 0,000 mm 0,0 UV-I 5 W/m 10,3 C 5,8 C 25,7 km/h (4 Bft) 97,87 %
22.05.2019 05:40 11,1 C 15,0 C 11,1 C 95 % 1011,4 hPa 0,0 l/m 18,3 km/h (3 Bft) W 278 0 min 0,000 mm 0,0 UV-I 5 W/m 10,3 C 5,3 C 27,4 km/h (4 Bft) 95,74 %
22.05.2019 05:42 11,1 C 15,0 C 11,1 C 95 % 1011,5 hPa 0,0 l/m 18,0 km/h (3 Bft) S-SW 210 0 min 0,000 mm 0,0 UV-I 5 W/m 10,3 C 5,4 C 29,0 km/h (5 Bft) 98,00 %
22.05.2019 05:44 11,1 C 15,0 C 11,1 C 95 % 1011,5 hPa 0,0 l/m 17,1 km/h (3 Bft) W-SW 253 0 min 0,000 mm 0,0 UV-I 7 W/m 10,3 C 5,7 C 27,4 km/h (4 Bft) 100,00 %
22.05.2019 05:46 11,1 C 15,0 C 11,1 C 95 % 1011,5 hPa 0,0 l/m 15,8 km/h (3 Bft) W-SW 252 0 min 0,000 mm 0,0 UV-I 7 W/m 10,3 C 6,2 C 24,1 km/h (4 Bft) 97,87 %
22.05.2019 05:48 11,0 C 15,0 C 11,1 C 95 % 1011,6 hPa 0,0 l/m 15,3 km/h (3 Bft) W-SW 238 0 min 0,000 mm 0,0 UV-I 7 W/m 10,2 C 6,2 C 22,5 km/h (4 Bft) 100,00 %
22.05.2019 05:50 11,1 C 15,0 C 11,1 C 95 % 1011,5 hPa 0,0 l/m 19,6 km/h (3 Bft) W 261 0 min 0,000 mm 0,0 UV-I 7 W/m 10,3 C 4,8 C 33,8 km/h (5 Bft) 97,37 %
22.05.2019 05:52 11,1 C 15,0 C 11,1 C 95 % 1011,5 hPa 0,0 l/m 17,6 km/h (3 Bft) SW 218 0 min 0,000 mm 0,0 UV-I 7 W/m 10,3 C 5,5 C 22,5 km/h (4 Bft) 100,00 %
22.05.2019 05:54 11,1 C 15,0 C 11,1 C 95 % 1011,6 hPa 0,0 l/m 15,0 km/h (3 Bft) W-SW 250 0 min 0,000 mm 0,0 UV-I 7 W/m 10,3 C 6,5 C 27,4 km/h (4 Bft) 100,00 %
22.05.2019 05:56 11,1 C 15,0 C 11,1 C 95 % 1011,6 hPa 0,0 l/m 18,9 km/h (3 Bft) W-SW 239 0 min 0,000 mm 0,0 UV-I 7 W/m 10,3 C 5,1 C 25,7 km/h (4 Bft) 97,87 %
22.05.2019 05:58 11,0 C 15,0 C 11,1 C 95 % 1011,6 hPa 0,0 l/m 16,1 km/h (3 Bft) SW 230 0 min 0,000 mm 0,0 UV-I 7 W/m 10,2 C 5,9 C 22,5 km/h (4 Bft) 91,49 %
22.05.2019 06:00 11,0 C 15,0 C 11,1 C 95 % 1011,6 hPa 0,0 l/m 15,2 km/h (3 Bft) W-SW 238 0 min 0,000 mm 0,0 UV-I 8 W/m 10,2 C 6,3 C 22,5 km/h (4 Bft) 97,87 %
22.05.2019 06:02 11,0 C 15,0 C 11,1 C 95 % 1011,6 hPa 0,0 l/m 20,2 km/h (4 Bft) W 266 0 min 0,000 mm 0,0 UV-I 9 W/m 10,2 C 4,5 C 30,6 km/h (5 Bft) 94,00 %
22.05.2019 06:04 11,0 C 15,0 C 11,1 C 95 % 1011,6 hPa 0,0 l/m 16,5 km/h (3 Bft) W-SW 239 0 min 0,000 mm 0,0 UV-I 9 W/m 10,2 C 5,8 C 22,5 km/h (4 Bft) 95,74 %
22.05.2019 06:06 11,0 C 15,0 C 11,1 C 95 % 1011,6 hPa 0,0 l/m 15,2 km/h (3 Bft) W 270 0 min 0,000 mm 0,0 UV-I 11 W/m 10,2 C 6,3 C 20,9 km/h (4 Bft) 95,74 %
22.05.2019 06:08 11,0 C 15,0 C 11,1 C 95 % 1011,6 hPa 0,0 l/m 13,8 km/h (3 Bft) W-NW 282 0 min 0,000 mm 0,0 UV-I 11 W/m 10,2 C 6,8 C 22,5 km/h (4 Bft) 95,74 %
22.05.2019 06:10 11,0 C 15,0 C 11,1 C 95 % 1011,6 hPa 0,0 l/m 15,6 km/h (3 Bft) SW 229 0 min 0,000 mm 0,0 UV-I 13 W/m 10,2 C 6,1 C 29,0 km/h (5 Bft) 97,87 %
22.05.2019 06:12 11,0 C 15,0 C 11,1 C 95 % 1011,7 hPa 0,0 l/m 19,5 km/h (3 Bft) W-SW 251 0 min 0,000 mm 0,0 UV-I 14 W/m 10,2 C 4,7 C 30,6 km/h (5 Bft) 93,62 %
22.05.2019 06:14 11,0 C 15,0 C 11,1 C 95 % 1011,7 hPa 0,2 l/m 17,7 km/h (3 Bft) W-SW 242 0 min 0,000 mm 0,0 UV-I 14 W/m 10,2 C 5,3 C 25,7 km/h (4 Bft) 96,00 %
22.05.2019 06:16 11,0 C 15,0 C 11,1 C 95 % 1011,6 hPa 0,0 l/m 18,1 km/h (3 Bft) W-SW 251 0 min 0,000 mm 0,0 UV-I 14 W/m 10,2 C 5,2 C 27,4 km/h (4 Bft) 95,74 %
22.05.2019 06:18 11,0 C 15,0 C 11,1 C 95 % 1011,7 hPa 0,0 l/m 18,1 km/h (3 Bft) W 269 0 min 0,000 mm 0,0 UV-I 15 W/m 10,2 C 5,2 C 25,7 km/h (4 Bft) 97,14 %
22.05.2019 06:20 11,0 C 15,0 C 11,1 C 95 % 1011,7 hPa 0,0 l/m 17,2 km/h (3 Bft) SW 232 0 min 0,000 mm 0,0 UV-I 16 W/m 10,2 C 5,5 C 27,4 km/h (4 Bft) 97,87 %
22.05.2019 06:22 11,0 C 15,0 C 11,1 C 95 % 1011,7 hPa 0,2 l/m 21,7 km/h (4 Bft) W 269 0 min 0,000 mm 0,0 UV-I 16 W/m 10,2 C 4,1 C 30,6 km/h (5 Bft) 97,87 %
22.05.2019 06:24 11,0 C 15,0 C 11,1 C 95 % 1011,7 hPa 0,0 l/m 17,5 km/h (3 Bft) W-SW 244 0 min 0,000 mm 0,0 UV-I 15 W/m 10,2 C 5,4 C 27,4 km/h (4 Bft) 97,87 %
22.05.2019 06:26 11,0 C 15,0 C 11,1 C 95 % 1011,7 hPa 0,0 l/m 19,0 km/h (3 Bft) SW 233 0 min 0,000 mm 0,0 UV-I 15 W/m 10,2 C 4,9 C 32,2 km/h (5 Bft) 97,87 %
22.05.2019 06:28 11,0 C 15,0 C 11,1 C 96 % 1011,6 hPa 0,0 l/m 18,9 km/h (3 Bft) SW 234 0 min 0,000 mm 0,0 UV-I 16 W/m 10,4 C 4,9 C 29,0 km/h (5 Bft) 95,83 %
22.05.2019 06:30 11,0 C 15,0 C 11,1 C 96 % 1011,6 hPa 0,2 l/m 18,6 km/h (3 Bft) SW 223 0 min 0,000 mm 0,0 UV-I 18 W/m 10,4 C 5,0 C 27,4 km/h (4 Bft) 100,00 %
22.05.2019 06:32 11,0 C 15,0 C 11,1 C 96 % 1011,6 hPa 0,0 l/m 22,2 km/h (4 Bft) W-SW 239 0 min 0,000 mm 0,0 UV-I 21 W/m 10,4 C 3,9 C 30,6 km/h (5 Bft) 100,00 %
22.05.2019 06:34 11,0 C 15,0 C 11,1 C 96 % 1011,7 hPa 0,0 l/m 21,6 km/h (4 Bft) W-SW 238 0 min 0,000 mm 0,0 UV-I 23 W/m 10,4 C 4,1 C 33,8 km/h (5 Bft) 97,87 %
22.05.2019 06:36 11,0 C 15,0 C 11,1 C 95 % 1011,6 hPa 0,0 l/m 16,8 km/h (3 Bft) SW 220 0 min 0,000 mm 0,0 UV-I 22 W/m 10,2 C 5,7 C 25,7 km/h (4 Bft) 100,00 %
22.05.2019 06:38 11,0 C 15,0 C 11,1 C 95 % 1011,7 hPa 0,2 l/m 14,6 km/h (3 Bft) W 268 0 min 0,000 mm 0,0 UV-I 20 W/m 10,2 C 6,5 C 25,7 km/h (4 Bft) 97,87 %
22.05.2019 06:40 11,0 C 15,0 C 11,1 C 96 % 1011,7 hPa 0,0 l/m 15,3 km/h (3 Bft) SW 232 0 min 0,000 mm 0,0 UV-I 19 W/m 10,4 C 6,2 C 20,9 km/h (4 Bft) 100,00 %
22.05.2019 06:42 11,0 C 15,0 C 11,1 C 96 % 1011,7 hPa 0,2 l/m 17,8 km/h (3 Bft) W-SW 240 0 min 0,000 mm 0,0 UV-I 19 W/m 10,4 C 5,3 C 25,7 km/h (4 Bft) 97,87 %
22.05.2019 06:44 11,0 C 15,0 C 11,1 C 96 % 1011,7 hPa 0,0 l/m 12,9 km/h (3 Bft) W-SW 242 0 min 0,000 mm 0,0 UV-I 19 W/m 10,4 C 7,2 C 20,9 km/h (4 Bft) 98,00 %
22.05.2019 06:46 11,0 C 15,0 C 11,1 C 96 % 1011,7 hPa 0,2 l/m 15,0 km/h (3 Bft) W-SW 257 0 min 0,000 mm 0,0 UV-I 18 W/m 10,4 C 6,3 C 25,7 km/h (4 Bft) 97,87 %
22.05.2019 06:48 11,0 C 15,0 C 11,1 C 96 % 1011,7 hPa 0,0 l/m 15,9 km/h (3 Bft) W-NW 292 0 min 0,000 mm 0,0 UV-I 17 W/m 10,4 C 6,0 C 24,1 km/h (4 Bft) 97,87 %
22.05.2019 06:50 11,0 C 15,0 C 11,1 C 96 % 1011,8 hPa 0,0 l/m 17,8 km/h (3 Bft) SW 227 0 min 0,000 mm 0,0 UV-I 17 W/m 10,4 C 5,3 C 25,7 km/h (4 Bft) 97,87 %
22.05.2019 06:52 11,0 C 15,0 C 11,1 C 96 % 1011,7 hPa 0,0 l/m 20,7 km/h (4 Bft) SW 236 0 min 0,000 mm 0,0 UV-I 19 W/m 10,4 C 4,4 C 30,6 km/h (5 Bft) 97,87 %
22.05.2019 06:54 11,0 C 15,0 C 11,1 C 96 % 1011,8 hPa 0,2 l/m 16,5 km/h (3 Bft) W-SW 253 0 min 0,000 mm 0,0 UV-I 22 W/m 10,4 C 5,8 C 24,1 km/h (4 Bft) 96,00 %
22.05.2019 06:56 11,0 C 15,0 C 11,1 C 96 % 1011,8 hPa 0,0 l/m 17,0 km/h (3 Bft) W-SW 238 0 min 0,000 mm 0,0 UV-I 24 W/m 10,4 C 5,6 C 27,4 km/h (4 Bft) 95,74 %
22.05.2019 06:58 11,0 C 15,0 C 11,1 C 96 % 1011,7 hPa 0,0 l/m 18,7 km/h (3 Bft) SW 216 0 min 0,000 mm 0,0 UV-I 25 W/m 10,4 C 5,0 C 32,2 km/h (5 Bft) 97,87 %
22.05.2019 07:00 11,0 C 15,0 C 11,1 C 96 % 1011,8 hPa 0,0 l/m 16,6 km/h (3 Bft) W-SW 254 0 min 0,026 mm 0,0 UV-I 25 W/m 10,4 C 5,7 C 25,7 km/h (4 Bft) 95,74 %
22.05.2019 07:02 11,1 C 15,0 C 11,1 C 96 % 1011,8 hPa 0,0 l/m 15,0 km/h (3 Bft) W 259 0 min 0,000 mm 0,0 UV-I 26 W/m 10,5 C 6,5 C 24,1 km/h (4 Bft) 100,00 %
22.05.2019 07:04 11,1 C 15,0 C 11,1 C 96 % 1011,8 hPa 0,2 l/m 17,5 km/h (3 Bft) SW 235 0 min 0,000 mm 0,0 UV-I 27 W/m 10,5 C 5,5 C 25,7 km/h (4 Bft) 96,00 %
22.05.2019 07:06 11,1 C 15,0 C 11,1 C 96 % 1011,8 hPa 0,2 l/m 20,2 km/h (4 Bft) W-SW 238 0 min 0,000 mm 0,0 UV-I 26 W/m 10,5 C 4,6 C 30,6 km/h (5 Bft) 100,00 %
22.05.2019 07:08 11,1 C 15,0 C 11,1 C 96 % 1011,9 hPa 0,0 l/m 17,2 km/h (3 Bft) W-SW 242 0 min 0,000 mm 0,0 UV-I 26 W/m 10,5 C 5,6 C 32,2 km/h (5 Bft) 100,00 %
22.05.2019 07:10 11,1 C 15,0 C 11,1 C 96 % 1011,9 hPa 0,0 l/m 14,9 km/h (3 Bft) W 262 0 min 0,000 mm 0,0 UV-I 28 W/m 10,5 C 6,5 C 22,5 km/h (4 Bft) 97,92 %
22.05.2019 07:12 11,1 C 15,0 C 11,1 C 96 % 1011,9 hPa 0,0 l/m 20,4 km/h (4 Bft) W-SW 251 0 min 0,000 mm 0,0 UV-I 29 W/m 10,5 C 4,6 C 30,6 km/h (5 Bft) 100,00 %
22.05.2019 07:14 11,1 C 15,0 C 11,1 C 96 % 1011,9 hPa 0,0 l/m 19,9 km/h (4 Bft) W-SW 247 0 min 0,000 mm 0,0 UV-I 29 W/m 10,5 C 4,7 C 29,0 km/h (5 Bft) 100,00 %
22.05.2019 07:16 11,1 C 15,0 C 11,1 C 96 % 1011,9 hPa 0,0 l/m 18,4 km/h (3 Bft) W 277 0 min 0,000 mm 0,0 UV-I 29 W/m 10,5 C 5,2 C 24,1 km/h (4 Bft) 100,00 %
22.05.2019 07:18 11,1 C 15,0 C 11,1 C 96 % 1011,9 hPa 0,0 l/m 17,6 km/h (3 Bft) W-SW 244 0 min 0,000 mm 0,0 UV-I 29 W/m 10,5 C 5,5 C 27,4 km/h (4 Bft) 100,00 %
22.05.2019 07:20 11,1 C 15,0 C 11,1 C 96 % 1011,9 hPa 0,0 l/m 16,9 km/h (3 Bft) W-SW 252 0 min 0,000 mm 0,0 UV-I 28 W/m 10,5 C 5,7 C 25,7 km/h (4 Bft) 97,87 %
22.05.2019 07:22 11,1 C 15,0 C 11,1 C 96 % 1011,9 hPa 0,0 l/m 18,6 km/h (3 Bft) W 273 0 min 0,000 mm 0,0 UV-I 29 W/m 10,5 C 5,2 C 25,7 km/h (4 Bft) 100,00 %
22.05.2019 07:24 11,1 C 15,0 C 11,1 C 96 % 1011,9 hPa 0,0 l/m 17,3 km/h (3 Bft) W-SW 255 0 min 0,000 mm 0,0 UV-I 34 W/m 10,5 C 5,6 C 29,0 km/h (5 Bft) 97,87 %
22.05.2019 07:26 11,1 C 15,0 C 11,1 C 96 % 1011,9 hPa 0,0 l/m 14,6 km/h (3 Bft) W-SW 238 0 min 0,000 mm 0,0 UV-I 34 W/m 10,5 C 6,6 C 22,5 km/h (4 Bft) 97,87 %
22.05.2019 07:28 11,1 C 15,0 C 11,1 C 96 % 1011,9 hPa 0,0 l/m 18,0 km/h (3 Bft) W-SW 257 0 min 0,000 mm 0,0 UV-I 39 W/m 10,5 C 5,4 C 25,7 km/h (4 Bft) 100,00 %
22.05.2019 07:30 11,1 C 15,0 C 11,1 C 96 % 1012,0 hPa 0,0 l/m 21,4 km/h (4 Bft) W-SW 243 0 min 0,000 mm 0,0 UV-I 44 W/m 10,5 C 4,3 C 30,6 km/h (5 Bft) 100,00 %
22.05.2019 07:32 11,1 C 15,0 C 11,1 C 96 % 1011,9 hPa 0,0 l/m 20,3 km/h (4 Bft) SW 234 0 min 0,000 mm 0,0 UV-I 40 W/m 10,5 C 4,6 C 33,8 km/h (5 Bft) 98,00 %
22.05.2019 07:34 11,1 C 15,0 C 11,1 C 96 % 1012,0 hPa 0,0 l/m 17,9 km/h (3 Bft) W-SW 237 0 min 0,000 mm 0,0 UV-I 39 W/m 10,5 C 5,4 C 27,4 km/h (4 Bft) 97,87 %
22.05.2019 07:36 11,1 C 15,0 C 11,1 C 96 % 1012,0 hPa 0,0 l/m 18,3 km/h (3 Bft) W-SW 242 0 min 0,000 mm 0,0 UV-I 41 W/m 10,5 C 5,3 C 27,4 km/h (4 Bft) 94,00 %
22.05.2019 07:38 11,2 C 15,0 C 11,1 C 96 % 1012,0 hPa 0,0 l/m 18,0 km/h (3 Bft) SW 229 0 min 0,000 mm 0,0 UV-I 41 W/m 10,6 C 5,5 C 27,4 km/h (4 Bft) 97,87 %
22.05.2019 07:40 11,2 C 15,0 C 11,1 C 96 % 1012,0 hPa 0,0 l/m 22,7 km/h (4 Bft) W 261 0 min 0,000 mm 0,0 UV-I 40 W/m 10,6 C 4,1 C 30,6 km/h (5 Bft) 97,87 %
22.05.2019 07:42 11,2 C 15,0 C 11,1 C 96 % 1012,1 hPa 0,0 l/m 17,0 km/h (3 Bft) W-SW 241 0 min 0,000 mm 0,0 UV-I 37 W/m 10,6 C 5,8 C 25,7 km/h (4 Bft) 93,62 %
22.05.2019 07:44 11,2 C 15,0 C 11,1 C 96 % 1012,1 hPa 0,0 l/m 16,4 km/h (3 Bft) W-SW 248 0 min 0,000 mm 0,0 UV-I 35 W/m 10,6 C 6,1 C 22,5 km/h (4 Bft) 97,87 %
22.05.2019 07:46 11,2 C 15,0 C 11,1 C 96 % 1012,1 hPa 0,0 l/m 15,6 km/h (3 Bft) SW 230 0 min 0,000 mm 0,0 UV-I 36 W/m 10,6 C 6,4 C 29,0 km/h (5 Bft) 97,87 %
22.05.2019 07:48 11,2 C 15,0 C 11,1 C 96 % 1012,1 hPa 0,0 l/m 14,1 km/h (3 Bft) W-NW 292 0 min 0,000 mm 0,0 UV-I 32 W/m 10,6 C 7,0 C 22,5 km/h (4 Bft) 97,62 %
22.05.2019 07:50 11,2 C 15,0 C 11,1 C 96 % 1012,2 hPa 0,0 l/m 13,5 km/h (3 Bft) W-SW 244 0 min 0,000 mm 0,0 UV-I 29 W/m 10,6 C 7,2 C 19,3 km/h (3 Bft) 97,87 %
22.05.2019 07:52 11,2 C 15,0 C 11,1 C 96 % 1012,1 hPa 0,0 l/m 17,9 km/h (3 Bft) SW 229 0 min 0,000 mm 0,0 UV-I 26 W/m 10,6 C 5,5 C 25,7 km/h (4 Bft) 97,87 %
22.05.2019 07:54 11,2 C 15,0 C 11,1 C 96 % 1012,2 hPa 0,0 l/m 17,3 km/h (3 Bft) W 260 0 min 0,000 mm 0,0 UV-I 24 W/m 10,6 C 5,7 C 24,1 km/h (4 Bft) 97,87 %
22.05.2019 07:56 11,2 C 15,0 C 11,1 C 96 % 1012,2 hPa 0,0 l/m 16,5 km/h (3 Bft) W 269 0 min 0,000 mm 0,0 UV-I 24 W/m 10,6 C 6,0 C 29,0 km/h (5 Bft) 98,11 %
22.05.2019 07:58 11,2 C 15,0 C 11,1 C 96 % 1012,2 hPa 0,0 l/m 24,1 km/h (4 Bft) W-SW 241 0 min 0,000 mm 0,0 UV-I 29 W/m 10,6 C 3,7 C 33,8 km/h (5 Bft) 93,62 %
22.05.2019 08:00 11,2 C 15,0 C 11,1 C 96 % 1012,2 hPa 0,0 l/m 21,0 km/h (4 Bft) SW 227 0 min 0,025 mm 0,0 UV-I 29 W/m 10,6 C 4,5 C 32,2 km/h (5 Bft) 95,74 %
22.05.2019 08:02 11,3 C 15,0 C 11,1 C 96 % 1012,2 hPa 0,0 l/m 21,0 km/h (4 Bft) SW 225 0 min 0,000 mm 0,0 UV-I 26 W/m 10,7 C 4,7 C 32,2 km/h (5 Bft) 92,00 %
22.05.2019 08:04 11,3 C 15,0 C 11,1 C 96 % 1012,2 hPa 0,0 l/m 21,6 km/h (4 Bft) W-SW 244 0 min 0,000 mm 0,0 UV-I 25 W/m 10,7 C 4,5 C 29,0 km/h (5 Bft) 95,74 %
22.05.2019 08:06 11,3 C 15,0 C 11,1 C 96 % 1012,2 hPa 0,0 l/m 18,4 km/h (3 Bft) W-SW 244 0 min 0,000 mm 0,0 UV-I 25 W/m 10,7 C 5,5 C 25,7 km/h (4 Bft) 94,29 %
22.05.2019 08:08 11,3 C 15,0 C 11,1 C 95 % 1012,2 hPa 0,0 l/m 22,2 km/h (4 Bft) S-SW 209 0 min 0,000 mm 0,0 UV-I 24 W/m 10,5 C 4,3 C 30,6 km/h (5 Bft) 92,00 %
22.05.2019 08:10 11,3 C 15,0 C 11,1 C 95 % 1012,4 hPa 0,0 l/m 18,2 km/h (3 Bft) W 259 0 min 0,000 mm 0,0 UV-I 23 W/m 10,5 C 5,5 C 25,7 km/h (4 Bft) 95,74 %
22.05.2019 08:12 11,3 C 15,0 C 11,1 C 95 % 1012,4 hPa 0,2 l/m 20,4 km/h (4 Bft) W-SW 248 0 min 0,000 mm 0,0 UV-I 22 W/m 10,5 C 4,8 C 30,6 km/h (5 Bft) 91,49 %
22.05.2019 08:14 11,3 C 15,0 C 11,1 C 95 % 1012,4 hPa 0,0 l/m 15,2 km/h (3 Bft) W-SW 257 0 min 0,000 mm 0,0 UV-I 19 W/m 10,5 C 6,6 C 27,4 km/h (4 Bft) 93,62 %
22.05.2019 08:16 11,3 C 15,0 C 11,1 C 95 % 1012,4 hPa 0,0 l/m 18,8 km/h (3 Bft) SW 228 0 min 0,000 mm 0,0 UV-I 19 W/m 10,5 C 5,3 C 25,7 km/h (4 Bft) 89,36 %
22.05.2019 08:18 11,3 C 15,0 C 11,1 C 95 % 1012,4 hPa 0,0 l/m 16,3 km/h (3 Bft) W 279 0 min 0,000 mm 0,0 UV-I 19 W/m 10,5 C 6,2 C 25,7 km/h (4 Bft) 93,62 %
22.05.2019 08:20 11,3 C 15,0 C 11,1 C 95 % 1012,4 hPa 0,0 l/m 17,1 km/h (3 Bft) S 190 0 min 0,000 mm 0,0 UV-I 20 W/m 10,5 C 5,9 C 25,7 km/h (4 Bft) 91,49 %
22.05.2019 08:22 11,3 C 15,0 C 11,1 C 95 % 1012,5 hPa 0,0 l/m 19,1 km/h (3 Bft) W 274 0 min 0,000 mm 0,0 UV-I 19 W/m 10,5 C 5,2 C 30,6 km/h (5 Bft) 89,36 %
22.05.2019 08:24 11,3 C 15,0 C 11,1 C 95 % 1012,4 hPa 0,0 l/m 16,9 km/h (3 Bft) SW 226 0 min 0,000 mm 0,0 UV-I 21 W/m 10,5 C 6,0 C 22,5 km/h (4 Bft) 91,49 %
22.05.2019 08:26 11,3 C 15,0 C 11,1 C 95 % 1012,4 hPa 0,0 l/m 18,7 km/h (3 Bft) W-SW 253 0 min 0,000 mm 0,0 UV-I 21 W/m 10,5 C 5,4 C 30,6 km/h (5 Bft) 89,58 %
22.05.2019 08:28 11,3 C 15,0 C 11,1 C 95 % 1012,4 hPa 0,0 l/m 17,8 km/h (3 Bft) W-SW 256 0 min 0,000 mm 0,0 UV-I 21 W/m 10,5 C 5,7 C 27,4 km/h (4 Bft) 96,00 %
22.05.2019 08:30 11,3 C 15,0 C 11,1 C 95 % 1012,5 hPa 0,0 l/m 18,8 km/h (3 Bft) W-SW 241 0 min 0,000 mm 0,0 UV-I 22 W/m 10,5 C 5,3 C 32,2 km/h (5 Bft) 93,62 %
22.05.2019 08:32 11,3 C 15,0 C 11,1 C 95 % 1012,5 hPa 0,0 l/m 16,9 km/h (3 Bft) W-SW 246 0 min 0,000 mm 0,0 UV-I 21 W/m 10,5 C 6,0 C 25,7 km/h (4 Bft) 93,62 %
22.05.2019 08:34 11,3 C 15,0 C 11,1 C 95 % 1012,6 hPa 0,0 l/m 17,0 km/h (3 Bft) W-SW 251 0 min 0,000 mm 0,0 UV-I 21 W/m 10,5 C 6,0 C 22,5 km/h (4 Bft) 97,87 %
22.05.2019 08:36 11,3 C 15,0 C 11,1 C 95 % 1012,5 hPa 0,0 l/m 13,6 km/h (3 Bft) SW 236 0 min 0,000 mm 0,0 UV-I 21 W/m 10,5 C 7,3 C 19,3 km/h (3 Bft) 94,29 %
22.05.2019 08:38 11,3 C 15,0 C 11,1 C 95 % 1012,6 hPa 0,0 l/m 18,3 km/h (3 Bft) S-SW 213 0 min 0,000 mm 0,0 UV-I 21 W/m 10,5 C 5,5 C 27,4 km/h (4 Bft) 98,00 %
22.05.2019 08:40 11,3 C 15,0 C 11,1 C 95 % 1012,6 hPa 0,0 l/m 15,3 km/h (3 Bft) W-SW 244 0 min 0,000 mm 0,0 UV-I 21 W/m 10,5 C 6,6 C 22,5 km/h (4 Bft) 95,74 %
22.05.2019 08:42 11,3 C 15,0 C 11,1 C 96 % 1012,6 hPa 0,0 l/m 18,7 km/h (3 Bft) W 275 0 min 0,000 mm 0,0 UV-I 19 W/m 10,7 C 5,4 C 27,4 km/h (4 Bft) 95,74 %
22.05.2019 08:44 11,3 C 15,0 C 11,1 C 96 % 1012,7 hPa 0,0 l/m 15,8 km/h (3 Bft) W 262 0 min 0,000 mm 0,0 UV-I 19 W/m 10,7 C 6,4 C 24,1 km/h (4 Bft) 97,87 %
22.05.2019 08:46 11,3 C 15,0 C 11,1 C 96 % 1012,7 hPa 0,2 l/m 16,8 km/h (3 Bft) W-SW 250 0 min 0,000 mm 0,0 UV-I 19 W/m 10,7 C 6,0 C 25,7 km/h (4 Bft) 97,87 %
22.05.2019 08:48 11,2 C 15,0 C 11,1 C 96 % 1012,7 hPa 0,0 l/m 18,0 km/h (3 Bft) W-SW 239 0 min 0,000 mm 0,0 UV-I 19 W/m 10,6 C 5,5 C 27,4 km/h (4 Bft) 100,00 %
22.05.2019 08:50 11,3 C 15,0 C 11,1 C 96 % 1012,7 hPa 0,0 l/m 18,8 km/h (3 Bft) SW 234 0 min 0,000 mm 0,0 UV-I 17 W/m 10,7 C 5,3 C 27,4 km/h (4 Bft) 100,00 %
22.05.2019 08:52 11,2 C 15,0 C 11,1 C 96 % 1012,7 hPa 0,2 l/m 17,2 km/h (3 Bft) W-SW 254 0 min 0,000 mm 0,0 UV-I 15 W/m 10,6 C 5,8 C 27,4 km/h (4 Bft) 98,00 %
22.05.2019 08:54 11,2 C 15,0 C 11,1 C 96 % 1012,7 hPa 0,0 l/m 18,8 km/h (3 Bft) W-SW 248 0 min 0,000 mm 0,0 UV-I 16 W/m 10,6 C 5,2 C 29,0 km/h (5 Bft) 98,00 %
22.05.2019 08:56 11,2 C 15,0 C 11,1 C 96 % 1012,8 hPa 0,0 l/m 16,8 km/h (3 Bft) SW 220 0 min 0,000 mm 0,0 UV-I 15 W/m 10,6 C 5,9 C 22,5 km/h (4 Bft) 97,87 %
22.05.2019 08:58 11,2 C 15,0 C 11,1 C 96 % 1012,8 hPa 0,0 l/m 17,8 km/h (3 Bft) SW 227 0 min 0,000 mm 0,0 UV-I 16 W/m 10,6 C 5,6 C 35,4 km/h (5 Bft) 97,14 %
22.05.2019 09:00 11,2 C 15,0 C 11,1 C 96 % 1012,8 hPa 0,0 l/m 21,6 km/h (4 Bft) W-SW 246 0 min 0,025 mm 0,0 UV-I 17 W/m 10,6 C 4,4 C 33,8 km/h (5 Bft) 100,00 %
22.05.2019 09:02 11,2 C 15,0 C 11,1 C 96 % 1012,7 hPa 0,0 l/m 17,6 km/h (3 Bft) S-SW 213 0 min 0,000 mm 0,0 UV-I 18 W/m 10,6 C 5,6 C 24,1 km/h (4 Bft) 100,00 %
22.05.2019 09:04 11,2 C 15,0 C 11,1 C 96 % 1012,8 hPa 0,0 l/m 18,4 km/h (3 Bft) SW 231 0 min 0,000 mm 0,0 UV-I 21 W/m 10,6 C 5,4 C 29,0 km/h (5 Bft) 98,00 %
22.05.2019 09:06 11,3 C 15,0 C 11,1 C 96 % 1012,7 hPa 0,0 l/m 17,9 km/h (3 Bft) W 263 0 min 0,000 mm 0,0 UV-I 27 W/m 10,7 C 5,6 C 30,6 km/h (5 Bft) 100,00 %
22.05.2019 09:08 11,3 C 15,0 C 11,1 C 96 % 1012,8 hPa 0,0 l/m 18,3 km/h (3 Bft) SW 223 0 min 0,000 mm 0,0 UV-I 31 W/m 10,7 C 5,5 C 33,8 km/h (5 Bft) 100,00 %
22.05.2019 09:10 11,3 C 15,0 C 11,1 C 96 % 1012,8 hPa 0,0 l/m 18,2 km/h (3 Bft) S-SW 194 0 min 0,000 mm 0,0 UV-I 35 W/m 10,7 C 5,5 C 27,4 km/h (4 Bft) 100,00 %
22.05.2019 09:12 11,3 C 15,0 C 11,7 C 96 % 1012,8 hPa 0,0 l/m 15,3 km/h (3 Bft) W-SW 250 0 min 0,000 mm 0,0 UV-I 33 W/m 10,7 C 6,6 C 22,5 km/h (4 Bft) 95,74 %
22.05.2019 09:14 11,3 C 15,0 C 11,7 C 96 % 1012,8 hPa 0,0 l/m 17,1 km/h (3 Bft) W-SW 248 0 min 0,000 mm 0,0 UV-I 35 W/m 10,7 C 5,9 C 24,1 km/h (4 Bft) 97,87 %
22.05.2019 09:16 11,3 C 15,0 C 11,7 C 96 % 1012,9 hPa 0,0 l/m 19,7 km/h (3 Bft) SW 230 0 min 0,000 mm 0,0 UV-I 37 W/m 10,7 C 5,1 C 32,2 km/h (5 Bft) 95,74 %
22.05.2019 09:18 11,3 C 15,0 C 11,7 C 96 % 1012,8 hPa 0,0 l/m 18,0 km/h (3 Bft) SW 236 0 min 0,000 mm 0,0 UV-I 37 W/m 10,7 C 5,6 C 24,1 km/h (4 Bft) 100,00 %
22.05.2019 09:20 11,3 C 15,0 C 11,7 C 95 % 1012,9 hPa 0,0 l/m 18,3 km/h (3 Bft) W-SW 251 0 min 0,000 mm 0,0 UV-I 32 W/m 10,5 C 5,5 C 27,4 km/h (4 Bft) 100,00 %
22.05.2019 09:22 11,3 C 15,0 C 11,7 C 95 % 1013,0 hPa 0,0 l/m 16,4 km/h (3 Bft) W-SW 257 0 min 0,000 mm 0,0 UV-I 30 W/m 10,5 C 6,2 C 22,5 km/h (4 Bft) 100,00 %
22.05.2019 09:24 11,3 C 15,0 C 11,7 C 95 % 1012,9 hPa 0,0 l/m 15,0 km/h (3 Bft) W-SW 237 0 min 0,000 mm 0,0 UV-I 32 W/m 10,5 C 6,7 C 22,5 km/h (4 Bft) 100,00 %
22.05.2019 09:26 11,4 C 15,0 C 11,1 C 95 % 1013,0 hPa 0,2 l/m 20,4 km/h (4 Bft) W-SW 243 0 min 0,000 mm 0,0 UV-I 28 W/m 10,6 C 5,0 C 30,6 km/h (5 Bft) 100,00 %
22.05.2019 09:28 11,3 C 15,0 C 11,7 C 95 % 1013,0 hPa 0,0 l/m 17,5 km/h (3 Bft) W-SW 239 0 min 0,000 mm 0,0 UV-I 27 W/m 10,5 C 5,8 C 27,4 km/h (4 Bft) 97,87 %
22.05.2019 09:30 11,3 C 15,0 C 11,7 C 95 % 1013,0 hPa 0,0 l/m 20,0 km/h (4 Bft) W-SW 246 0 min 0,000 mm 0,0 UV-I 28 W/m 10,5 C 5,0 C 29,0 km/h (5 Bft) 96,00 %
22.05.2019 09:32 11,4 C 15,0 C 11,7 C 95 % 1013,0 hPa 0,0 l/m 17,7 km/h (3 Bft) SW 234 0 min 0,000 mm 0,0 UV-I 33 W/m 10,6 C 5,8 C 25,7 km/h (4 Bft) 95,74 %
22.05.2019 09:34 11,4 C 15,0 C 11,7 C 95 % 1013,1 hPa 0,0 l/m 17,9 km/h (3 Bft) SW 223 0 min 0,000 mm 0,0 UV-I 38 W/m 10,6 C 5,8 C 27,4 km/h (4 Bft) 98,00 %
22.05.2019 09:36 11,4 C 15,0 C 11,7 C 95 % 1013,1 hPa 0,0 l/m 17,6 km/h (3 Bft) SW 221 0 min 0,000 mm 0,0 UV-I 40 W/m 10,6 C 5,9 C 25,7 km/h (4 Bft) 97,87 %
22.05.2019 09:38 11,4 C 15,0 C 11,7 C 95 % 1013,1 hPa 0,0 l/m 18,0 km/h (3 Bft) W 259 0 min 0,000 mm 0,0 UV-I 41 W/m 10,6 C 5,7 C 22,5 km/h (4 Bft) 95,74 %
22.05.2019 09:40 11,4 C 15,0 C 11,7 C 95 % 1013,1 hPa 0,0 l/m 18,5 km/h (3 Bft) W-SW 245 0 min 0,000 mm 0,0 UV-I 45 W/m 10,6 C 5,6 C 29,0 km/h (5 Bft) 93,62 %
22.05.2019 09:42 11,4 C 15,0 C 11,7 C 95 % 1013,1 hPa 0,0 l/m 17,9 km/h (3 Bft) W 263 0 min 0,000 mm 0,0 UV-I 46 W/m 10,6 C 5,8 C 25,7 km/h (4 Bft) 97,87 %
22.05.2019 09:44 11,4 C 15,0 C 11,7 C 95 % 1013,1 hPa 0,0 l/m 15,3 km/h (3 Bft) W 271 0 min 0,000 mm 0,0 UV-I 46 W/m 10,6 C 6,7 C 20,9 km/h (4 Bft) 97,92 %
22.05.2019 09:46 11,4 C 15,0 C 11,7 C 95 % 1013,2 hPa 0,0 l/m 15,9 km/h (3 Bft) SW 233 0 min 0,000 mm 0,0 UV-I 50 W/m 10,6 C 6,5 C 22,5 km/h (4 Bft) 97,87 %
22.05.2019 09:48 11,4 C 15,0 C 11,7 C 95 % 1013,1 hPa 0,0 l/m 16,8 km/h (3 Bft) W-SW 240 0 min 0,000 mm 0,0 UV-I 48 W/m 10,6 C 6,2 C 27,4 km/h (4 Bft) 95,74 %
22.05.2019 09:50 11,4 C 15,0 C 11,7 C 95 % 1013,1 hPa 0,0 l/m 17,2 km/h (3 Bft) SW 215 0 min 0,000 mm 0,0 UV-I 46 W/m 10,6 C 6,0 C 25,7 km/h (4 Bft) 97,87 %
22.05.2019 09:52 11,5 C 15,0 C 11,7 C 95 % 1013,2 hPa 0,0 l/m 15,4 km/h (3 Bft) W-SW 245 0 min 0,000 mm 0,0 UV-I 45 W/m 10,7 C 6,8 C 25,7 km/h (4 Bft) 100,00 %
22.05.2019 09:54 11,5 C 15,0 C 11,7 C 95 % 1013,2 hPa 0,0 l/m 15,7 km/h (3 Bft) W 264 0 min 0,000 mm 0,0 UV-I 40 W/m 10,7 C 6,7 C 24,1 km/h (4 Bft) 100,00 %
22.05.2019 09:56 11,5 C 15,0 C 11,7 C 95 % 1013,2 hPa 0,0 l/m 17,4 km/h (3 Bft) W-SW 257 0 min 0,000 mm 0,0 UV-I 40 W/m 10,7 C 6,1 C 24,1 km/h (4 Bft) 100,00 %
22.05.2019 09:58 11,5 C 15,0 C 11,7 C 96 % 1013,2 hPa 0,0 l/m 15,4 km/h (3 Bft) W-SW 255 0 min 0,000 mm 0,0 UV-I 44 W/m 10,9 C 6,8 C 19,3 km/h (3 Bft) 97,87 %
22.05.2019 10:00 11,5 C 15,0 C 11,7 C 95 % 1013,2 hPa 0,0 l/m 16,5 km/h (3 Bft) SW 219 0 min 0,000 mm 0,0 UV-I 42 W/m 10,7 C 6,4 C 27,4 km/h (4 Bft) 94,00 %
22.05.2019 10:02 11,5 C 15,0 C 11,7 C 95 % 1013,2 hPa 0,0 l/m 15,8 km/h (3 Bft) W 270 0 min 0,026 mm 0,0 UV-I 46 W/m 10,7 C 6,6 C 22,5 km/h (4 Bft) 93,62 %
22.05.2019 10:04 11,6 C 15,0 C 11,7 C 95 % 1013,3 hPa 0,0 l/m 12,1 km/h (2 Bft) W 261 0 min 0,000 mm 0,0 UV-I 47 W/m 10,8 C 8,3 C 20,9 km/h (4 Bft) 98,00 %
22.05.2019 10:06 11,6 C 15,0 C 11,7 C 95 % 1013,3 hPa 0,0 l/m 15,2 km/h (3 Bft) W-SW 252 0 min 0,000 mm 0,0 UV-I 52 W/m 10,8 C 7,0 C 24,1 km/h (4 Bft) 97,87 %
22.05.2019 10:08 11,6 C 15,0 C 11,7 C 95 % 1013,3 hPa 0,0 l/m 15,7 km/h (3 Bft) W 262 0 min 0,000 mm 0,0 UV-I 51 W/m 10,8 C 6,8 C 20,9 km/h (4 Bft) 97,87 %
22.05.2019 10:10 11,6 C 15,0 C 11,7 C 95 % 1013,3 hPa 0,0 l/m 14,5 km/h (3 Bft) W 277 0 min 0,000 mm 0,0 UV-I 54 W/m 10,8 C 7,3 C 22,5 km/h (4 Bft) 97,87 %
22.05.2019 10:12 11,6 C 15,0 C 12,2 C 95 % 1013,4 hPa 0,0 l/m 13,7 km/h (3 Bft) W 271 0 min 0,000 mm 0,0 UV-I 59 W/m 10,8 C 7,6 C 19,3 km/h (3 Bft) 97,37 %
22.05.2019 10:14 11,6 C 15,0 C 12,2 C 95 % 1013,3 hPa 0,0 l/m 15,2 km/h (3 Bft) SW 232 0 min 0,000 mm 0,0 UV-I 63 W/m 10,8 C 7,0 C 20,9 km/h (4 Bft) 97,87 %
22.05.2019 10:16 11,6 C 15,0 C 12,2 C 95 % 1013,4 hPa 0,0 l/m 17,3 km/h (3 Bft) W-SW 257 0 min 0,000 mm 0,0 UV-I 66 W/m 10,8 C 6,2 C 24,1 km/h (4 Bft) 95,74 %
22.05.2019 10:18 11,7 C 15,0 C 12,2 C 95 % 1013,4 hPa 0,0 l/m 15,9 km/h (3 Bft) W-SW 257 0 min 0,000 mm 0,0 UV-I 69 W/m 10,9 C 6,9 C 22,5 km/h (4 Bft) 95,83 %
22.05.2019 10:20 11,7 C 15,0 C 12,2 C 95 % 1013,4 hPa 0,0 l/m 14,4 km/h (3 Bft) W-SW 240 0 min 0,000 mm 0,0 UV-I 73 W/m 10,9 C 7,4 C 20,9 km/h (4 Bft) 97,87 %
22.05.2019 10:22 11,7 C 15,0 C 12,2 C 95 % 1013,5 hPa 0,0 l/m 15,2 km/h (3 Bft) W 261 0 min 0,000 mm 0,0 UV-I 81 W/m 10,9 C 7,1 C 20,9 km/h (4 Bft) 97,87 %
22.05.2019 10:24 11,7 C 15,0 C 12,2 C 95 % 1013,5 hPa 0,0 l/m 13,1 km/h (3 Bft) W 259 0 min 0,000 mm 0,0 UV-I 85 W/m 10,9 C 8,0 C 17,7 km/h (3 Bft) 93,62 %
22.05.2019 10:26 11,7 C 15,0 C 12,2 C 95 % 1013,4 hPa 0,0 l/m 13,8 km/h (3 Bft) W 261 0 min 0,000 mm 0,5 UV-I 103 W/m 10,9 C 7,7 C 20,9 km/h (4 Bft) 98,00 %
22.05.2019 10:28 11,8 C 15,0 C 12,8 C 95 % 1013,4 hPa 0,0 l/m 15,2 km/h (3 Bft) W-SW 248 0 min 0,000 mm 0,6 UV-I 107 W/m 11,0 C 7,2 C 20,9 km/h (4 Bft) 98,00 %
22.05.2019 10:30 11,8 C 15,0 C 12,8 C 95 % 1013,4 hPa 0,0 l/m 15,9 km/h (3 Bft) W 268 0 min 0,000 mm 0,6 UV-I 113 W/m 11,0 C 7,0 C 20,9 km/h (4 Bft) 97,87 %
22.05.2019 10:32 11,8 C 15,0 C 12,8 C 95 % 1013,5 hPa 0,0 l/m 14,1 km/h (3 Bft) W-SW 251 0 min 0,000 mm 0,6 UV-I 118 W/m 11,0 C 7,7 C 17,7 km/h (3 Bft) 95,74 %
22.05.2019 10:34 11,8 C 15,0 C 12,8 C 95 % 1013,5 hPa 0,0 l/m 14,0 km/h (3 Bft) W-SW 251 0 min 0,000 mm 0,7 UV-I 124 W/m 11,0 C 7,7 C 20,9 km/h (4 Bft) 100,00 %
22.05.2019 10:36 11,8 C 15,0 C 12,8 C 95 % 1013,5 hPa 0,0 l/m 14,5 km/h (3 Bft) W 277 0 min 0,000 mm 0,6 UV-I 118 W/m 11,0 C 7,5 C 20,9 km/h (4 Bft) 100,00 %
22.05.2019 10:38 11,8 C 15,0 C 12,2 C 95 % 1013,6 hPa 0,0 l/m 18,0 km/h (3 Bft) W-SW 251 0 min 0,000 mm 0,5 UV-I 104 W/m 11,0 C 6,2 C 27,4 km/h (4 Bft) 100,00 %
22.05.2019 10:40 11,8 C 15,0 C 12,2 C 95 % 1013,6 hPa 0,0 l/m 13,2 km/h (3 Bft) W-NW 286 0 min 0,000 mm 0,5 UV-I 99 W/m 11,0 C 8,1 C 19,3 km/h (3 Bft) 98,11 %
22.05.2019 10:42 11,8 C 15,0 C 12,8 C 95 % 1013,6 hPa 0,0 l/m 12,2 km/h (2 Bft) W 269 0 min 0,000 mm 0,5 UV-I 98 W/m 11,0 C 8,5 C 16,1 km/h (3 Bft) 100,00 %
22.05.2019 10:44 11,8 C 15,0 C 12,2 C 95 % 1013,6 hPa 0,0 l/m 14,3 km/h (3 Bft) W 279 0 min 0,000 mm 0,5 UV-I 91 W/m 11,0 C 7,6 C 20,9 km/h (4 Bft) 98,00 %
22.05.2019 10:46 11,8 C 15,0 C 12,2 C 95 % 1013,6 hPa 0,0 l/m 15,5 km/h (3 Bft) W 265 0 min 0,000 mm 0,3 UV-I 82 W/m 11,0 C 7,1 C 25,7 km/h (4 Bft) 100,00 %
22.05.2019 10:48 11,8 C 15,0 C 12,2 C 95 % 1013,6 hPa 0,0 l/m 19,2 km/h (3 Bft) W 272 0 min 0,000 mm 0,0 UV-I 72 W/m 11,0 C 5,9 C 25,7 km/h (4 Bft) 100,00 %
22.05.2019 10:50 11,8 C 15,0 C 12,2 C 95 % 1013,6 hPa 0,0 l/m 15,8 km/h (3 Bft) W-SW 254 0 min 0,000 mm 0,0 UV-I 72 W/m 11,0 C 7,0 C 22,5 km/h (4 Bft) 100,00 %
22.05.2019 10:52 11,8 C 15,0 C 12,2 C 95 % 1013,7 hPa 0,0 l/m 14,7 km/h (3 Bft) SW 221 0 min 0,000 mm 0,0 UV-I 68 W/m 11,0 C 7,4 C 22,5 km/h (4 Bft) 98,00 %
22.05.2019 10:54 11,8 C 15,0 C 12,2 C 95 % 1013,7 hPa 0,0 l/m 15,2 km/h (3 Bft) W-SW 252 0 min 0,000 mm 0,0 UV-I 58 W/m 11,0 C 7,2 C 22,5 km/h (4 Bft) 97,87 %
22.05.2019 10:56 11,8 C 15,0 C 12,2 C 95 % 1013,7 hPa 0,0 l/m 16,7 km/h (3 Bft) SW 235 0 min 0,000 mm 0,0 UV-I 64 W/m 11,0 C 6,7 C 25,7 km/h (4 Bft) 97,87 %
22.05.2019 10:58 11,8 C 15,0 C 12,2 C 95 % 1013,7 hPa 0,0 l/m 15,9 km/h (3 Bft) SW 234 0 min 0,000 mm 0,1 UV-I 68 W/m 11,0 C 7,0 C 25,7 km/h (4 Bft) 97,44 %
22.05.2019 11:00 11,8 C 15,0 C 12,2 C 95 % 1013,8 hPa 0,0 l/m 16,0 km/h (3 Bft) W 268 0 min 0,000 mm 0,3 UV-I 72 W/m 11,0 C 6,9 C 20,9 km/h (4 Bft) 97,87 %
22.05.2019 11:02 11,8 C 15,0 C 12,2 C 95 % 1013,9 hPa 0,0 l/m 19,1 km/h (3 Bft) W-SW 246 0 min 0,051 mm 0,3 UV-I 75 W/m 11,0 C 5,9 C 27,4 km/h (4 Bft) 98,00 %
22.05.2019 11:04 11,8 C 15,0 C 12,2 C 95 % 1013,9 hPa 0,0 l/m 12,9 km/h (3 Bft) W 280 0 min 0,000 mm 0,3 UV-I 76 W/m 11,0 C 8,2 C 20,9 km/h (4 Bft) 96,00 %
22.05.2019 11:06 11,8 C 15,0 C 12,2 C 95 % 1013,9 hPa 0,0 l/m 14,3 km/h (3 Bft) SW 229 0 min 0,000 mm 0,0 UV-I 69 W/m 11,0 C 7,6 C 22,5 km/h (4 Bft) 98,00 %
22.05.2019 11:08 11,8 C 15,0 C 12,2 C 95 % 1013,9 hPa 0,2 l/m 14,9 km/h (3 Bft) W-NW 298 0 min 0,000 mm 0,0 UV-I 68 W/m 11,0 C 7,4 C 20,9 km/h (4 Bft) 97,87 %
22.05.2019 11:10 11,8 C 15,0 C 12,2 C 95 % 1014,0 hPa 0,0 l/m 13,9 km/h (3 Bft) W 263 0 min 0,000 mm 0,0 UV-I 64 W/m 11,0 C 7,8 C 19,3 km/h (3 Bft) 94,29 %
22.05.2019 11:12 11,8 C 15,0 C 12,2 C 95 % 1014,0 hPa 0,0 l/m 8,8 km/h (2 Bft) W-SW 250 0 min 0,000 mm 0,0 UV-I 54 W/m 11,0 C 10,3 C 14,5 km/h (3 Bft) 98,00 %
22.05.2019 11:14 11,8 C 15,0 C 12,2 C 95 % 1014,0 hPa 0,0 l/m 11,3 km/h (2 Bft) W 281 0 min 0,000 mm 0,0 UV-I 52 W/m 11,0 C 8,9 C 16,1 km/h (3 Bft) 97,87 %
22.05.2019 11:16 11,7 C 15,0 C 12,2 C 95 % 1014,1 hPa 0,0 l/m 10,7 km/h (2 Bft) W 271 0 min 0,000 mm 0,0 UV-I 51 W/m 10,9 C 9,1 C 16,1 km/h (3 Bft) 96,00 %
22.05.2019 11:18 11,7 C 15,0 C 12,2 C 95 % 1014,1 hPa 0,0 l/m 11,2 km/h (2 Bft) W-SW 257 0 min 0,000 mm 0,0 UV-I 50 W/m 10,9 C 8,9 C 19,3 km/h (3 Bft) 95,74 %
22.05.2019 11:20 11,7 C 15,0 C 12,2 C 95 % 1014,1 hPa 0,0 l/m 13,9 km/h (3 Bft) W 263 0 min 0,000 mm 0,0 UV-I 50 W/m 10,9 C 7,6 C 19,3 km/h (3 Bft) 100,00 %
22.05.2019 11:22 11,7 C 15,0 C 12,2 C 95 % 1014,2 hPa 0,0 l/m 13,7 km/h (3 Bft) W 262 0 min 0,000 mm 0,0 UV-I 53 W/m 10,9 C 7,7 C 22,5 km/h (4 Bft) 98,00 %
22.05.2019 11:24 11,7 C 15,0 C 12,2 C 95 % 1014,2 hPa 0,0 l/m 18,9 km/h (3 Bft) W-SW 257 0 min 0,000 mm 0,0 UV-I 62 W/m 10,9 C 5,8 C 30,6 km/h (5 Bft) 97,87 %
22.05.2019 11:26 11,7 C 15,0 C 12,2 C 95 % 1014,2 hPa 0,0 l/m 19,9 km/h (4 Bft) W 262 0 min 0,000 mm 0,0 UV-I 63 W/m 10,9 C 5,5 C 32,2 km/h (5 Bft) 97,56 %
22.05.2019 11:28 11,7 C 15,0 C 12,2 C 95 % 1014,1 hPa 0,0 l/m 16,0 km/h (3 Bft) W-SW 242 0 min 0,000 mm 0,0 UV-I 59 W/m 10,9 C 6,8 C 22,5 km/h (4 Bft) 100,00 %
22.05.2019 11:30 11,7 C 15,0 C 12,2 C 95 % 1014,2 hPa 0,0 l/m 16,3 km/h (3 Bft) W 265 0 min 0,000 mm 0,0 UV-I 74 W/m 10,9 C 6,7 C 24,1 km/h (4 Bft) 97,87 %
22.05.2019 11:32 11,7 C 15,0 C 12,2 C 95 % 1014,3 hPa 0,0 l/m 16,0 km/h (3 Bft) W 275 0 min 0,000 mm 0,5 UV-I 82 W/m 10,9 C 6,8 C 27,4 km/h (4 Bft) 98,00 %
22.05.2019 11:34 11,7 C 15,0 C 12,2 C 95 % 1014,3 hPa 0,0 l/m 17,0 km/h (3 Bft) W-NW 290 0 min 0,000 mm 0,5 UV-I 83 W/m 10,9 C 6,5 C 27,4 km/h (4 Bft) 97,87 %
22.05.2019 11:36 11,7 C 15,0 C 12,2 C 95 % 1014,3 hPa 0,0 l/m 14,9 km/h (3 Bft) W 271 0 min 0,000 mm 0,6 UV-I 96 W/m 10,9 C 7,2 C 24,1 km/h (4 Bft) 95,74 %
22.05.2019 11:38 11,7 C 15,0 C 12,2 C 95 % 1014,3 hPa 0,0 l/m 17,6 km/h (3 Bft) W 263 0 min 0,000 mm 0,6 UV-I 101 W/m 10,9 C 6,2 C 32,2 km/h (5 Bft) 100,00 %
22.05.2019 11:40 11,7 C 15,0 C 12,2 C 95 % 1014,1 hPa 0,0 l/m 19,4 km/h (3 Bft) W-SW 242 0 min 0,000 mm 0,7 UV-I 108 W/m 10,9 C 5,7 C 30,6 km/h (5 Bft) 100,00 %
22.05.2019 11:42 11,7 C 15,0 C 12,2 C 95 % 1014,2 hPa 0,0 l/m 18,3 km/h (3 Bft) W-NW 300 0 min 0,000 mm 0,6 UV-I 107 W/m 10,9 C 6,0 C 29,0 km/h (5 Bft) 97,87 %
22.05.2019 11:44 11,8 C 15,0 C 12,8 C 95 % 1014,2 hPa 0,0 l/m 16,5 km/h (3 Bft) W 261 0 min 0,000 mm 0,7 UV-I 119 W/m 11,0 C 6,8 C 24,1 km/h (4 Bft) 97,87 %
22.05.2019 11:46 11,8 C 15,0 C 12,8 C 95 % 1014,3 hPa 0,0 l/m 20,0 km/h (4 Bft) W-SW 251 0 min 0,000 mm 0,7 UV-I 115 W/m 11,0 C 5,6 C 29,0 km/h (5 Bft) 100,00 %
22.05.2019 11:48 11,8 C 15,0 C 12,8 C 95 % 1014,3 hPa 0,0 l/m 16,7 km/h (3 Bft) W 272 0 min 0,000 mm 0,7 UV-I 118 W/m 11,0 C 6,7 C 29,0 km/h (5 Bft) 95,74 %
22.05.2019 11:50 11,8 C 15,0 C 12,8 C 95 % 1014,3 hPa 0,0 l/m 18,1 km/h (3 Bft) W 273 0 min 0,000 mm 0,7 UV-I 112 W/m 11,0 C 6,2 C 24,1 km/h (4 Bft) 98,00 %
22.05.2019 11:52 11,9 C 15,0 C 12,8 C 95 % 1014,3 hPa 0,0 l/m 16,1 km/h (3 Bft) W 265 0 min 0,000 mm 0,8 UV-I 137 W/m 11,1 C 7,0 C 29,0 km/h (5 Bft) 95,74 %
22.05.2019 11:54 11,9 C 15,0 C 12,8 C 95 % 1014,3 hPa 0,0 l/m 21,2 km/h (4 Bft) W 274 0 min 0,000 mm 0,9 UV-I 145 W/m 11,1 C 5,4 C 33,8 km/h (5 Bft) 95,74 %
22.05.2019 11:56 11,9 C 15,0 C 12,8 C 95 % 1014,3 hPa 0,0 l/m 17,0 km/h (3 Bft) W 261 0 min 0,000 mm 1,1 UV-I 172 W/m 11,1 C 6,7 C 24,1 km/h (4 Bft) 97,87 %
22.05.2019 11:58 11,9 C 15,0 C 13,3 C 95 % 1014,3 hPa 0,0 l/m 19,1 km/h (3 Bft) W-SW 244 0 min 0,000 mm 1,3 UV-I 208 W/m 11,1 C 6,0 C 32,2 km/h (5 Bft) 95,74 %
22.05.2019 12:00 12,0 C 15,0 C 13,3 C 95 % 1014,3 hPa 0,0 l/m 18,2 km/h (3 Bft) W 261 0 min 0,050 mm 1,3 UV-I 213 W/m 11,2 C 6,4 C 30,6 km/h (5 Bft) 96,23 %
22.05.2019 12:02 12,0 C 15,0 C 13,3 C 95 % 1014,4 hPa 0,0 l/m 17,7 km/h (3 Bft) W-NW 286 0 min 0,000 mm 1,1 UV-I 180 W/m 11,2 C 6,6 C 25,7 km/h (4 Bft) 95,74 %
22.05.2019 12:04 12,1 C 15,0 C 13,3 C 95 % 1014,4 hPa 0,0 l/m 18,2 km/h (3 Bft) W-SW 257 0 min 0,000 mm 1,0 UV-I 168 W/m 11,3 C 6,6 C 27,4 km/h (4 Bft) 97,87 %
22.05.2019 12:06 12,1 C 15,0 C 13,3 C 95 % 1014,4 hPa 0,0 l/m 16,9 km/h (3 Bft) W 267 0 min 0,000 mm 1,2 UV-I 194 W/m 11,3 C 7,0 C 29,0 km/h (5 Bft) 94,29 %
22.05.2019 12:08 12,1 C 15,0 C 13,3 C 95 % 1014,5 hPa 0,0 l/m 15,4 km/h (3 Bft) W 281 0 min 0,000 mm 1,3 UV-I 221 W/m 11,3 C 7,5 C 22,5 km/h (4 Bft) 96,00 %
22.05.2019 12:10 12,1 C 15,0 C 13,3 C 95 % 1014,5 hPa 0,0 l/m 14,7 km/h (3 Bft) W-SW 241 0 min 0,000 mm 1,3 UV-I 218 W/m 11,3 C 7,8 C 22,5 km/h (4 Bft) 96,00 %
22.05.2019 12:12 12,2 C 15,0 C 13,9 C 95 % 1014,4 hPa 0,0 l/m 16,2 km/h (3 Bft) W 264 0 min 0,000 mm 1,6 UV-I 267 W/m 11,4 C 7,4 C 24,1 km/h (4 Bft) 95,74 %
22.05.2019 12:14 12,2 C 15,0 C 14,4 C 95 % 1014,5 hPa 0,0 l/m 17,4 km/h (3 Bft) W 267 0 min 0,000 mm 1,6 UV-I 272 W/m 11,4 C 6,9 C 24,1 km/h (4 Bft) 91,49 %
22.05.2019 12:16 12,2 C 15,0 C 13,9 C 95 % 1014,4 hPa 0,0 l/m 19,0 km/h (3 Bft) W 267 0 min 0,000 mm 1,5 UV-I 254 W/m 11,4 C 6,4 C 30,6 km/h (5 Bft) 95,83 %
22.05.2019 12:18 12,2 C 15,0 C 13,9 C 95 % 1014,5 hPa 0,0 l/m 19,0 km/h (3 Bft) W-SW 251 0 min 0,000 mm 1,3 UV-I 228 W/m 11,4 C 6,4 C 30,6 km/h (5 Bft) 94,00 %
22.05.2019 12:20 12,2 C 15,0 C 13,3 C 95 % 1014,5 hPa 0,0 l/m 18,6 km/h (3 Bft) W 262 0 min 0,000 mm 1,2 UV-I 198 W/m 11,4 C 6,6 C 29,0 km/h (5 Bft) 89,36 %
22.05.2019 12:22 12,3 C 15,0 C 13,9 C 94 % 1014,5 hPa 0,0 l/m 23,9 km/h (4 Bft) W 273 0 min 0,000 mm 1,3 UV-I 222 W/m 11,4 C 5,2 C 33,8 km/h (5 Bft) 93,62 %
22.05.2019 12:24 12,3 C 15,0 C 13,9 C 94 % 1014,5 hPa 0,0 l/m 15,6 km/h (3 Bft) W-SW 252 0 min 0,000 mm 1,4 UV-I 229 W/m 11,4 C 7,7 C 22,5 km/h (4 Bft) 93,62 %
22.05.2019 12:26 12,3 C 15,0 C 13,9 C 94 % 1014,5 hPa 0,0 l/m 22,0 km/h (4 Bft) W-SW 252 0 min 0,000 mm 1,3 UV-I 219 W/m 11,4 C 5,7 C 33,8 km/h (5 Bft) 91,49 %
22.05.2019 12:28 12,3 C 15,0 C 13,9 C 94 % 1014,5 hPa 0,0 l/m 16,4 km/h (3 Bft) W 259 0 min 0,000 mm 1,1 UV-I 184 W/m 11,4 C 7,4 C 25,7 km/h (4 Bft) 93,62 %
22.05.2019 12:30 12,4 C 15,0 C 13,9 C 94 % 1014,5 hPa 0,0 l/m 20,3 km/h (4 Bft) W 274 0 min 0,000 mm 1,1 UV-I 182 W/m 11,5 C 6,3 C 35,4 km/h (5 Bft) 93,62 %
22.05.2019 12:32 12,4 C 15,0 C 13,3 C 94 % 1014,5 hPa 0,0 l/m 19,6 km/h (3 Bft) W 277 0 min 0,000 mm 1,1 UV-I 178 W/m 11,5 C 6,5 C 29,0 km/h (5 Bft) 92,11 %
22.05.2019 12:34 12,4 C 15,0 C 13,3 C 94 % 1014,5 hPa 0,0 l/m 21,9 km/h (4 Bft) W 259 0 min 0,000 mm 1,2 UV-I 185 W/m 11,5 C 5,9 C 30,6 km/h (5 Bft) 93,62 %
22.05.2019 12:36 12,4 C 15,0 C 13,9 C 94 % 1014,6 hPa 0,0 l/m 18,4 km/h (3 Bft) W-SW 241 0 min 0,000 mm 1,1 UV-I 176 W/m 11,5 C 6,9 C 37,0 km/h (5 Bft) 93,62 %
22.05.2019 12:38 12,4 C 15,0 C 13,3 C 94 % 1014,6 hPa 0,0 l/m 19,5 km/h (3 Bft) SW 222 0 min 0,000 mm 1,1 UV-I 164 W/m 11,5 C 6,5 C 27,4 km/h (4 Bft) 94,34 %
22.05.2019 12:40 12,4 C 15,0 C 13,3 C 93 % 1014,6 hPa 0,0 l/m 18,5 km/h (3 Bft) W 265 0 min 0,000 mm 1,0 UV-I 159 W/m 11,3 C 6,8 C 29,0 km/h (5 Bft) 95,74 %
22.05.2019 12:42 12,3 C 15,0 C 13,3 C 93 % 1014,6 hPa 0,0 l/m 22,0 km/h (4 Bft) W-SW 258 0 min 0,000 mm 1,1 UV-I 165 W/m 11,2 C 5,7 C 37,0 km/h (5 Bft) 94,74 %
22.05.2019 12:44 12,3 C 15,0 C 12,8 C 93 % 1014,6 hPa 0,0 l/m 20,2 km/h (4 Bft) W-SW 258 0 min 0,000 mm 1,0 UV-I 158 W/m 11,2 C 6,2 C 30,6 km/h (5 Bft) 96,23 %
22.05.2019 12:46 12,3 C 15,0 C 13,3 C 93 % 1014,6 hPa 0,0 l/m 21,5 km/h (4 Bft) W-SW 245 0 min 0,000 mm 1,0 UV-I 160 W/m 11,2 C 5,8 C 38,6 km/h (5 Bft) 93,62 %
22.05.2019 12:48 12,3 C 15,0 C 13,3 C 93 % 1014,6 hPa 0,0 l/m 20,3 km/h (4 Bft) W 265 0 min 0,000 mm 0,9 UV-I 136 W/m 11,2 C 6,2 C 32,2 km/h (5 Bft) 97,87 %
22.05.2019 12:50 12,3 C 15,0 C 13,3 C 93 % 1014,7 hPa 0,0 l/m 19,3 km/h (3 Bft) W-SW 258 0 min 0,000 mm 0,8 UV-I 130 W/m 11,2 C 6,5 C 27,4 km/h (4 Bft) 97,87 %
22.05.2019 12:52 12,3 C 15,0 C 13,3 C 93 % 1014,7 hPa 0,0 l/m 20,7 km/h (4 Bft) W-SW 248 0 min 0,000 mm 0,9 UV-I 140 W/m 11,2 C 6,1 C 37,0 km/h (5 Bft) 97,92 %
22.05.2019 12:54 12,3 C 15,0 C 12,8 C 93 % 1014,7 hPa 0,0 l/m 23,8 km/h (4 Bft) W 269 0 min 0,000 mm 0,8 UV-I 137 W/m 11,2 C 5,2 C 32,2 km/h (5 Bft) 95,74 %
22.05.2019 12:56 12,3 C 15,0 C 12,8 C 93 % 1014,8 hPa 0,0 l/m 20,8 km/h (4 Bft) W-SW 258 0 min 0,000 mm 0,8 UV-I 135 W/m 11,2 C 6,0 C 37,0 km/h (5 Bft) 93,62 %
22.05.2019 12:58 12,3 C 15,0 C 12,8 C 93 % 1014,8 hPa 0,0 l/m 18,1 km/h (3 Bft) W-SW 251 0 min 0,000 mm 0,8 UV-I 125 W/m 11,2 C 6,8 C 29,0 km/h (5 Bft) 100,00 %
22.05.2019 13:00 12,3 C 15,0 C 13,3 C 93 % 1014,9 hPa 0,0 l/m 20,8 km/h (4 Bft) W 267 0 min 0,000 mm 0,9 UV-I 143 W/m 11,2 C 6,0 C 32,2 km/h (5 Bft) 100,00 %
22.05.2019 13:02 12,3 C 15,0 C 13,3 C 93 % 1014,8 hPa 0,0 l/m 24,5 km/h (4 Bft) W 270 0 min 0,102 mm 1,1 UV-I 167 W/m 11,2 C 5,1 C 35,4 km/h (5 Bft) 98,00 %
22.05.2019 13:04 12,3 C 15,0 C 13,3 C 92 % 1014,9 hPa 0,0 l/m 19,5 km/h (3 Bft) W 271 0 min 0,000 mm 0,8 UV-I 134 W/m 11,0 C 6,4 C 27,4 km/h (4 Bft) 97,87 %
22.05.2019 13:06 12,4 C 15,0 C 12,8 C 92 % 1014,9 hPa 0,0 l/m 15,6 km/h (3 Bft) W 273 0 min 0,000 mm 0,6 UV-I 104 W/m 11,1 C 7,8 C 22,5 km/h (4 Bft) 100,00 %
22.05.2019 13:08 12,3 C 15,0 C 12,8 C 92 % 1014,9 hPa 0,0 l/m 21,1 km/h (4 Bft) W-NW 286 0 min 0,000 mm 0,6 UV-I 95 W/m 11,0 C 5,9 C 33,8 km/h (5 Bft) 100,00 %
22.05.2019 13:10 12,3 C 15,0 C 12,8 C 92 % 1014,9 hPa 0,0 l/m 17,4 km/h (3 Bft) W 269 0 min 0,000 mm 0,6 UV-I 93 W/m 11,0 C 7,1 C 27,4 km/h (4 Bft) 95,74 %
22.05.2019 13:12 12,3 C 15,0 C 12,8 C 92 % 1014,9 hPa 0,0 l/m 22,2 km/h (4 Bft) W-SW 256 0 min 0,000 mm 0,7 UV-I 106 W/m 11,0 C 5,6 C 33,8 km/h (5 Bft) 97,87 %
22.05.2019 13:14 12,3 C 15,0 C 12,8 C 92 % 1015,0 hPa 0,0 l/m 17,9 km/h (3 Bft) W 265 0 min 0,000 mm 0,6 UV-I 93 W/m 11,0 C 6,9 C 25,7 km/h (4 Bft) 100,00 %
22.05.2019 13:16 12,3 C 15,0 C 12,8 C 92 % 1015,0 hPa 0,0 l/m 18,8 km/h (3 Bft) W 273 0 min 0,000 mm 0,3 UV-I 78 W/m 11,0 C 6,6 C 30,6 km/h (5 Bft) 97,87 %
22.05.2019 13:18 12,2 C 15,0 C 12,2 C 92 % 1015,0 hPa 0,0 l/m 19,8 km/h (3 Bft) W-NW 282 0 min 0,000 mm 0,1 UV-I 73 W/m 10,9 C 6,2 C 33,8 km/h (5 Bft) 100,00 %
22.05.2019 13:20 12,2 C 15,0 C 12,2 C 92 % 1015,1 hPa 0,0 l/m 12,1 km/h (2 Bft) W-NW 285 0 min 0,000 mm 0,0 UV-I 69 W/m 10,9 C 9,0 C 17,7 km/h (3 Bft) 100,00 %
22.05.2019 13:22 12,2 C 15,0 C 12,8 C 92 % 1015,1 hPa 0,0 l/m 14,6 km/h (3 Bft) W 273 0 min 0,000 mm 0,1 UV-I 78 W/m 10,9 C 8,0 C 22,5 km/h (4 Bft) 98,00 %
22.05.2019 13:24 12,2 C 15,0 C 12,8 C 92 % 1015,1 hPa 0,0 l/m 17,1 km/h (3 Bft) W 263 0 min 0,000 mm 0,6 UV-I 91 W/m 10,9 C 7,0 C 29,0 km/h (5 Bft) 100,00 %
22.05.2019 13:26 12,2 C 15,0 C 12,8 C 93 % 1015,2 hPa 0,0 l/m 16,3 km/h (3 Bft) W-NW 283 0 min 0,000 mm 0,6 UV-I 109 W/m 11,1 C 7,3 C 25,7 km/h (4 Bft) 100,00 %
22.05.2019 13:28 12,2 C 15,0 C 12,8 C 93 % 1015,2 hPa 0,0 l/m 12,6 km/h (3 Bft) W-SW 250 0 min 0,000 mm 0,6 UV-I 107 W/m 11,1 C 8,8 C 25,7 km/h (4 Bft) 100,00 %
22.05.2019 13:30 12,2 C 15,0 C 12,8 C 93 % 1015,1 hPa 0,0 l/m 16,5 km/h (3 Bft) W-SW 256 0 min 0,000 mm 0,5 UV-I 94 W/m 11,1 C 7,3 C 27,4 km/h (4 Bft) 98,00 %
22.05.2019 13:32 12,2 C 15,0 C 12,8 C 92 % 1015,1 hPa 0,0 l/m 17,1 km/h (3 Bft) W 267 0 min 0,000 mm 0,6 UV-I 98 W/m 10,9 C 7,0 C 24,1 km/h (4 Bft) 100,00 %
22.05.2019 13:34 12,3 C 15,0 C 12,8 C 92 % 1015,1 hPa 0,0 l/m 18,2 km/h (3 Bft) W 261 0 min 0,000 mm 0,7 UV-I 119 W/m 11,0 C 6,8 C 29,0 km/h (5 Bft) 100,00 %
22.05.2019 13:36 12,3 C 15,0 C 12,8 C 92 % 1015,2 hPa 0,0 l/m 16,6 km/h (3 Bft) W 275 0 min 0,000 mm 0,8 UV-I 137 W/m 11,0 C 7,3 C 22,5 km/h (4 Bft) 97,87 %
22.05.2019 13:38 12,3 C 15,0 C 13,3 C 92 % 1015,1 hPa 0,0 l/m 17,8 km/h (3 Bft) W-SW 256 0 min 0,000 mm 0,8 UV-I 137 W/m 11,0 C 6,9 C 25,7 km/h (4 Bft) 100,00 %
22.05.2019 13:40 12,3 C 15,0 C 13,3 C 92 % 1015,1 hPa 0,0 l/m 20,2 km/h (4 Bft) W-SW 249 0 min 0,000 mm 0,8 UV-I 141 W/m 11,0 C 6,2 C 32,2 km/h (5 Bft) 94,74 %
22.05.2019 13:42 12,4 C 15,0 C 13,3 C 92 % 1015,1 hPa 0,0 l/m 19,8 km/h (3 Bft) W-SW 257 0 min 0,000 mm 0,9 UV-I 149 W/m 11,1 C 6,4 C 30,6 km/h (5 Bft) 100,00 %
22.05.2019 13:44 12,4 C 15,0 C 13,3 C 92 % 1015,1 hPa 0,0 l/m 20,0 km/h (4 Bft) W-SW 245 0 min 0,000 mm 0,8 UV-I 145 W/m 11,1 C 6,4 C 27,4 km/h (4 Bft) 95,74 %
22.05.2019 13:46 12,4 C 15,0 C 13,3 C 92 % 1015,2 hPa 0,0 l/m 16,8 km/h (3 Bft) W-SW 250 0 min 0,000 mm 0,8 UV-I 142 W/m 11,1 C 7,4 C 29,0 km/h (5 Bft) 97,87 %
22.05.2019 13:48 12,4 C 15,0 C 13,3 C 92 % 1015,1 hPa 0,0 l/m 20,8 km/h (4 Bft) W 278 0 min 0,000 mm 0,9 UV-I 152 W/m 11,1 C 6,2 C 32,2 km/h (5 Bft) 97,87 %
22.05.2019 13:50 12,3 C 15,0 C 13,3 C 92 % 1015,2 hPa 0,0 l/m 21,2 km/h (4 Bft) W-SW 250 0 min 0,000 mm 1,0 UV-I 173 W/m 11,0 C 5,9 C 32,2 km/h (5 Bft) 97,87 %
22.05.2019 13:52 12,3 C 15,0 C 13,3 C 92 % 1015,1 hPa 0,0 l/m 16,9 km/h (3 Bft) W 271 0 min 0,000 mm 1,2 UV-I 204 W/m 11,0 C 7,2 C 24,1 km/h (4 Bft) 95,74 %
22.05.2019 13:54 12,4 C 15,0 C 13,9 C 93 % 1015,2 hPa 0,0 l/m 16,1 km/h (3 Bft) W 263 0 min 0,000 mm 1,2 UV-I 209 W/m 11,3 C 7,6 C 30,6 km/h (5 Bft) 98,00 %
22.05.2019 13:56 12,4 C 15,0 C 13,9 C 92 % 1015,2 hPa 0,0 l/m 15,2 km/h (3 Bft) W 269 0 min 0,000 mm 1,2 UV-I 210 W/m 11,1 C 8,0 C 24,1 km/h (4 Bft) 97,87 %
22.05.2019 13:58 12,5 C 15,0 C 13,9 C 92 % 1015,2 hPa 0,0 l/m 14,7 km/h (3 Bft) W-SW 248 0 min 0,000 mm 1,2 UV-I 202 W/m 11,2 C 8,3 C 24,1 km/h (4 Bft) 94,74 %
22.05.2019 14:00 12,5 C 15,0 C 13,9 C 92 % 1015,3 hPa 0,0 l/m 18,2 km/h (3 Bft) W 260 0 min 0,076 mm 1,1 UV-I 198 W/m 11,2 C 7,1 C 27,4 km/h (4 Bft) 95,74 %
22.05.2019 14:02 12,5 C 15,0 C 14,4 C 92 % 1015,2 hPa 0,0 l/m 14,7 km/h (3 Bft) W-SW 258 0 min 0,000 mm 1,3 UV-I 218 W/m 11,2 C 8,3 C 24,1 km/h (4 Bft) 95,83 %
22.05.2019 14:04 12,6 C 15,0 C 14,4 C 92 % 1015,2 hPa 0,0 l/m 16,2 km/h (3 Bft) SW 234 0 min 0,000 mm 1,3 UV-I 224 W/m 11,3 C 7,9 C 24,1 km/h (4 Bft) 95,74 %
22.05.2019 14:06 12,6 C 15,0 C 14,4 C 92 % 1015,2 hPa 0,0 l/m 18,8 km/h (3 Bft) W 275 0 min 0,000 mm 1,3 UV-I 229 W/m 11,3 C 7,0 C 25,7 km/h (4 Bft) 93,62 %
22.05.2019 14:08 12,6 C 15,0 C 14,4 C 92 % 1015,2 hPa 0,0 l/m 16,6 km/h (3 Bft) W-SW 256 0 min 0,000 mm 1,3 UV-I 221 W/m 11,3 C 7,7 C 25,7 km/h (4 Bft) 93,62 %
22.05.2019 14:10 12,7 C 15,0 C 13,9 C 91 % 1015,2 hPa 0,0 l/m 22,2 km/h (4 Bft) SW 227 0 min 0,000 mm 1,0 UV-I 189 W/m 11,3 C 6,2 C 29,0 km/h (5 Bft) 96,00 %
22.05.2019 14:12 12,6 C 15,0 C 13,9 C 91 % 1015,2 hPa 0,0 l/m 20,1 km/h (4 Bft) W-NW 286 0 min 0,000 mm 0,9 UV-I 157 W/m 11,2 C 6,6 C 35,4 km/h (5 Bft) 97,87 %
22.05.2019 14:14 12,6 C 15,0 C 13,9 C 91 % 1015,2 hPa 0,0 l/m 19,5 km/h (3 Bft) W 267 0 min 0,000 mm 0,8 UV-I 149 W/m 11,2 C 6,8 C 27,4 km/h (4 Bft) 95,74 %
22.05.2019 14:16 12,6 C 15,0 C 13,3 C 91 % 1015,3 hPa 0,0 l/m 19,2 km/h (3 Bft) W-SW 258 0 min 0,000 mm 0,7 UV-I 136 W/m 11,2 C 6,9 C 25,7 km/h (4 Bft) 96,23 %
22.05.2019 14:18 12,6 C 15,0 C 13,3 C 91 % 1015,3 hPa 0,0 l/m 16,5 km/h (3 Bft) W 275 0 min 0,000 mm 0,6 UV-I 117 W/m 11,2 C 7,7 C 27,4 km/h (4 Bft) 91,49 %
22.05.2019 14:20 12,6 C 15,0 C 13,3 C 91 % 1015,3 hPa 0,0 l/m 20,8 km/h (4 Bft) W 275 0 min 0,000 mm 0,7 UV-I 133 W/m 11,2 C 6,4 C 33,8 km/h (5 Bft) 95,74 %
22.05.2019 14:22 12,6 C 15,0 C 13,3 C 91 % 1015,3 hPa 0,0 l/m 19,7 km/h (3 Bft) W 271 0 min 0,000 mm 0,7 UV-I 130 W/m 11,2 C 6,7 C 30,6 km/h (5 Bft) 97,14 %
22.05.2019 14:24 12,6 C 15,0 C 13,3 C 91 % 1015,3 hPa 0,0 l/m 18,2 km/h (3 Bft) W-NW 287 0 min 0,000 mm 0,9 UV-I 160 W/m 11,2 C 7,2 C 25,7 km/h (4 Bft) 98,00 %
22.05.2019 14:26 12,6 C 15,0 C 13,9 C 91 % 1015,2 hPa 0,0 l/m 17,4 km/h (3 Bft) W-SW 253 0 min 0,000 mm 1,3 UV-I 227 W/m 11,2 C 7,4 C 29,0 km/h (5 Bft) 97,87 %
22.05.2019 14:28 12,7 C 15,0 C 14,4 C 91 % 1015,2 hPa 0,0 l/m 14,9 km/h (3 Bft) W 260 0 min 0,000 mm 1,4 UV-I 247 W/m 11,3 C 8,4 C 22,5 km/h (4 Bft) 98,00 %
22.05.2019 14:30 12,7 C 15,0 C 14,4 C 91 % 1015,2 hPa 0,0 l/m 15,5 km/h (3 Bft) SW 236 0 min 0,000 mm 1,4 UV-I 252 W/m 11,3 C 8,2 C 20,9 km/h (4 Bft) 97,87 %
22.05.2019 14:32 12,8 C 15,0 C 14,4 C 91 % 1015,2 hPa 0,0 l/m 18,9 km/h (3 Bft) W 260 0 min 0,000 mm 1,2 UV-I 229 W/m 11,4 C 7,2 C 29,0 km/h (5 Bft) 97,87 %
22.05.2019 14:34 12,8 C 15,0 C 14,4 C 90 % 1015,2 hPa 0,0 l/m 18,6 km/h (3 Bft) W 273 0 min 0,000 mm 1,2 UV-I 216 W/m 11,2 C 7,3 C 25,7 km/h (4 Bft) 98,00 %
22.05.2019 14:36 12,8 C 15,0 C 14,4 C 91 % 1015,3 hPa 0,0 l/m 19,5 km/h (3 Bft) SW 224 0 min 0,000 mm 1,2 UV-I 210 W/m 11,4 C 7,0 C 29,0 km/h (5 Bft) 93,62 %
22.05.2019 14:38 12,8 C 15,0 C 14,4 C 90 % 1015,3 hPa 0,0 l/m 17,7 km/h (3 Bft) W-SW 249 0 min 0,000 mm 1,0 UV-I 185 W/m 11,2 C 7,6 C 29,0 km/h (5 Bft) 97,87 %
22.05.2019 14:40 12,8 C 15,0 C 14,4 C 90 % 1015,3 hPa 0,0 l/m 14,6 km/h (3 Bft) NW 315 0 min 0,000 mm 1,1 UV-I 196 W/m 11,2 C 8,7 C 25,7 km/h (4 Bft) 100,00 %
22.05.2019 14:42 12,9 C 15,0 C 14,4 C 90 % 1015,3 hPa 0,0 l/m 17,2 km/h (3 Bft) W-SW 254 0 min 0,000 mm 1,1 UV-I 186 W/m 11,3 C 7,9 C 27,4 km/h (4 Bft) 98,08 %
22.05.2019 14:44 12,9 C 15,0 C 13,9 C 90 % 1015,3 hPa 0,0 l/m 16,1 km/h (3 Bft) W-NW 287 0 min 0,000 mm 0,9 UV-I 164 W/m 11,3 C 8,3 C 25,7 km/h (4 Bft) 100,00 %
22.05.2019 14:46 12,9 C 15,0 C 13,9 C 90 % 1015,3 hPa 0,0 l/m 18,5 km/h (3 Bft) W 273 0 min 0,000 mm 0,8 UV-I 139 W/m 11,3 C 7,5 C 27,4 km/h (4 Bft) 100,00 %
22.05.2019 14:48 12,9 C 15,0 C 13,9 C 89 % 1015,3 hPa 0,0 l/m 22,7 km/h (4 Bft) W 263 0 min 0,000 mm 0,7 UV-I 136 W/m 11,1 C 6,3 C 32,2 km/h (5 Bft) 100,00 %
22.05.2019 14:50 12,9 C 15,0 C 13,9 C 89 % 1015,3 hPa 0,0 l/m 22,4 km/h (4 Bft) W 278 0 min 0,000 mm 0,7 UV-I 125 W/m 11,1 C 6,4 C 40,2 km/h (6 Bft) 97,87 %
22.05.2019 14:52 12,9 C 15,0 C 13,3 C 88 % 1015,4 hPa 0,0 l/m 19,5 km/h (3 Bft) W-NW 287 0 min 0,000 mm 0,6 UV-I 119 W/m 11,0 C 7,2 C 32,2 km/h (5 Bft) 100,00 %
22.05.2019 14:54 12,9 C 15,0 C 13,3 C 88 % 1015,4 hPa 0,0 l/m 16,8 km/h (3 Bft) W 274 0 min 0,000 mm 0,6 UV-I 109 W/m 11,0 C 8,0 C 25,7 km/h (4 Bft) 100,00 %
22.05.2019 14:56 12,9 C 15,0 C 13,3 C 88 % 1015,4 hPa 0,0 l/m 18,3 km/h (3 Bft) W-SW 250 0 min 0,000 mm 0,5 UV-I 99 W/m 11,0 C 7,5 C 27,4 km/h (4 Bft) 94,00 %
22.05.2019 14:58 12,9 C 15,0 C 13,3 C 87 % 1015,4 hPa 0,0 l/m 15,5 km/h (3 Bft) W-NW 288 0 min 0,000 mm 0,5 UV-I 94 W/m 10,8 C 8,5 C 27,4 km/h (4 Bft) 97,87 %
22.05.2019 15:00 12,9 C 15,0 C 13,3 C 87 % 1015,4 hPa 0,0 l/m 16,0 km/h (3 Bft) W-SW 244 0 min 0,102 mm 0,5 UV-I 92 W/m 10,8 C 8,3 C 27,4 km/h (4 Bft) 100,00 %
22.05.2019 15:02 12,9 C 15,0 C 13,3 C 87 % 1015,4 hPa 0,0 l/m 16,0 km/h (3 Bft) W 279 0 min 0,000 mm 0,5 UV-I 90 W/m 10,8 C 8,3 C 24,1 km/h (4 Bft) 100,00 %
22.05.2019 15:04 12,9 C 15,0 C 13,3 C 87 % 1015,4 hPa 0,0 l/m 16,3 km/h (3 Bft) W-NW 282 0 min 0,000 mm 0,3 UV-I 85 W/m 10,8 C 8,2 C 24,1 km/h (4 Bft) 93,62 %
22.05.2019 15:06 12,9 C 15,0 C 12,8 C 87 % 1015,3 hPa 0,0 l/m 17,5 km/h (3 Bft) W 271 0 min 0,000 mm 0,0 UV-I 78 W/m 10,8 C 7,8 C 29,0 km/h (5 Bft) 100,00 %
22.05.2019 15:08 12,9 C 15,0 C 12,8 C 87 % 1015,4 hPa 0,0 l/m 20,3 km/h (4 Bft) W 271 0 min 0,000 mm 0,0 UV-I 75 W/m 10,8 C 6,9 C 30,6 km/h (5 Bft) 100,00 %
22.05.2019 15:10 12,9 C 15,0 C 12,8 C 87 % 1015,4 hPa 0,0 l/m 14,4 km/h (3 Bft) SW 235 0 min 0,000 mm 0,0 UV-I 76 W/m 10,8 C 8,9 C 20,9 km/h (4 Bft) 97,14 %
22.05.2019 15:12 12,9 C 15,0 C 12,8 C 87 % 1015,4 hPa 0,0 l/m 13,9 km/h (3 Bft) W 274 0 min 0,000 mm 0,0 UV-I 73 W/m 10,8 C 9,1 C 24,1 km/h (4 Bft) 98,11 %
22.05.2019 15:14 12,9 C 15,0 C 12,8 C 87 % 1015,4 hPa 0,0 l/m 17,3 km/h (3 Bft) W-NW 292 0 min 0,000 mm 0,0 UV-I 72 W/m 10,8 C 7,9 C 25,7 km/h (4 Bft) 91,49 %
22.05.2019 15:16 12,9 C 15,0 C 12,8 C 87 % 1015,4 hPa 0,0 l/m 15,4 km/h (3 Bft) W 265 0 min 0,000 mm 0,0 UV-I 66 W/m 10,8 C 8,5 C 24,1 km/h (4 Bft) 95,74 %
22.05.2019 15:18 12,9 C 15,0 C 12,8 C 87 % 1015,4 hPa 0,0 l/m 13,5 km/h (3 Bft) W 279 0 min 0,000 mm 0,0 UV-I 71 W/m 10,8 C 9,2 C 22,5 km/h (4 Bft) 97,87 %
22.05.2019 15:20 12,9 C 15,0 C 12,8 C 87 % 1015,4 hPa 0,0 l/m 17,2 km/h (3 Bft) W 272 0 min 0,000 mm 0,3 UV-I 87 W/m 10,8 C 7,9 C 27,4 km/h (4 Bft) 98,00 %
22.05.2019 15:22 12,9 C 15,0 C 12,8 C 87 % 1015,3 hPa 0,0 l/m 15,4 km/h (3 Bft) W 266 0 min 0,000 mm 0,3 UV-I 89 W/m 10,8 C 8,5 C 22,5 km/h (4 Bft) 97,87 %
22.05.2019 15:24 12,9 C 15,0 C 13,3 C 87 % 1015,3 hPa 0,0 l/m 19,9 km/h (4 Bft) W-NW 283 0 min 0,000 mm 0,5 UV-I 93 W/m 10,8 C 7,1 C 30,6 km/h (5 Bft) 97,92 %
22.05.2019 15:26 12,9 C 15,0 C 13,3 C 87 % 1015,3 hPa 0,0 l/m 19,2 km/h (3 Bft) W 267 0 min 0,000 mm 0,5 UV-I 96 W/m 10,8 C 7,3 C 29,0 km/h (5 Bft) 97,87 %
22.05.2019 15:28 12,9 C 15,0 C 13,3 C 87 % 1015,3 hPa 0,0 l/m 14,2 km/h (3 Bft) SW 229 0 min 0,000 mm 0,3 UV-I 94 W/m 10,8 C 8,9 C 20,9 km/h (4 Bft) 95,74 %
22.05.2019 15:30 12,9 C 15,0 C 13,3 C 87 % 1015,3 hPa 0,0 l/m 13,8 km/h (3 Bft) W 263 0 min 0,000 mm 0,3 UV-I 91 W/m 10,8 C 9,1 C 20,9 km/h (4 Bft) 97,87 %
22.05.2019 15:32 12,9 C 15,0 C 13,3 C 87 % 1015,4 hPa 0,0 l/m 16,8 km/h (3 Bft) W 268 0 min 0,000 mm 0,5 UV-I 94 W/m 10,8 C 8,0 C 27,4 km/h (4 Bft) 95,74 %
22.05.2019 15:34 12,9 C 15,0 C 13,3 C 87 % 1015,3 hPa 0,0 l/m 16,5 km/h (3 Bft) W 267 0 min 0,000 mm 0,5 UV-I 105 W/m 10,8 C 8,1 C 25,7 km/h (4 Bft) 97,87 %
22.05.2019 15:36 13,0 C 15,0 C 13,3 C 87 % 1015,3 hPa 0,0 l/m 18,5 km/h (3 Bft) W 267 0 min 0,000 mm 0,5 UV-I 106 W/m 10,9 C 7,6 C 38,6 km/h (5 Bft) 100,00 %
22.05.2019 15:38 13,0 C 15,0 C 13,3 C 87 % 1015,2 hPa 0,0 l/m 20,3 km/h (4 Bft) W-NW 284 0 min 0,000 mm 0,9 UV-I 168 W/m 10,9 C 7,1 C 33,8 km/h (5 Bft) 98,00 %
22.05.2019 15:40 13,1 C 15,0 C 13,9 C 87 % 1015,3 hPa 0,0 l/m 17,1 km/h (3 Bft) W-SW 249 0 min 0,000 mm 1,0 UV-I 197 W/m 11,0 C 8,2 C 27,4 km/h (4 Bft) 97,87 %
22.05.2019 15:42 13,2 C 15,0 C 14,4 C 87 % 1015,3 hPa 0,0 l/m 16,0 km/h (3 Bft) W-SW 257 0 min 0,000 mm 1,1 UV-I 210 W/m 11,1 C 8,7 C 27,4 km/h (4 Bft) 100,00 %
22.05.2019 15:44 13,2 C 15,0 C 14,4 C 86 % 1015,3 hPa 0,0 l/m 18,3 km/h (3 Bft) W 259 0 min 0,000 mm 1,3 UV-I 248 W/m 10,9 C 7,9 C 27,4 km/h (4 Bft) 98,00 %
22.05.2019 15:46 13,3 C 15,0 C 15,0 C 86 % 1015,3 hPa 0,0 l/m 17,3 km/h (3 Bft) W 268 0 min 0,000 mm 1,3 UV-I 269 W/m 11,0 C 8,4 C 25,7 km/h (4 Bft) 97,87 %
22.05.2019 15:48 13,4 C 15,0 C 16,1 C 86 % 1015,3 hPa 0,0 l/m 17,2 km/h (3 Bft) W 259 0 min 0,000 mm 1,6 UV-I 340 W/m 11,1 C 8,5 C 27,4 km/h (4 Bft) 95,74 %
22.05.2019 15:50 13,6 C 15,0 C 16,7 C 86 % 1015,3 hPa 0,0 l/m 18,1 km/h (3 Bft) W 275 2 min 0,000 mm 1,9 UV-I 404 W/m 11,3 C 8,5 C 30,6 km/h (5 Bft) 100,00 %
22.05.2019 15:52 13,8 C 15,0 C 17,2 C 86 % 1015,3 hPa 0,0 l/m 13,2 km/h (3 Bft) W-NW 299 0 min 0,000 mm 1,8 UV-I 389 W/m 11,5 C 10,4 C 29,0 km/h (5 Bft) 97,87 %
22.05.2019 15:54 13,9 C 15,0 C 16,7 C 85 % 1015,3 hPa 0,0 l/m 20,5 km/h (4 Bft) W 266 0 min 0,000 mm 1,6 UV-I 341 W/m 11,4 C 8,2 C 30,6 km/h (5 Bft) 95,74 %
22.05.2019 15:56 13,9 C 15,0 C 16,7 C 84 % 1015,3 hPa 0,0 l/m 17,8 km/h (3 Bft) W 264 0 min 0,000 mm 1,3 UV-I 282 W/m 11,2 C 9,0 C 25,7 km/h (4 Bft) 100,00 %
22.05.2019 15:58 13,9 C 15,0 C 16,1 C 84 % 1015,3 hPa 0,0 l/m 23,5 km/h (4 Bft) W-SW 252 0 min 0,000 mm 1,2 UV-I 257 W/m 11,2 C 7,5 C 35,4 km/h (5 Bft) 97,87 %
22.05.2019 16:00 13,9 C 15,0 C 15,6 C 84 % 1015,3 hPa 0,0 l/m 20,8 km/h (4 Bft) W 276 0 min 0,000 mm 1,0 UV-I 205 W/m 11,2 C 8,1 C 33,8 km/h (5 Bft) 97,62 %
22.05.2019 16:02 13,9 C 15,0 C 15,0 C 83 % 1015,3 hPa 0,0 l/m 20,2 km/h (4 Bft) W-SW 244 0 min 0,101 mm 0,8 UV-I 185 W/m 11,1 C 8,3 C 32,2 km/h (5 Bft) 94,23 %
22.05.2019 16:04 13,9 C 15,0 C 15,0 C 84 % 1015,4 hPa 0,0 l/m 16,9 km/h (3 Bft) SW 225 0 min 0,000 mm 0,8 UV-I 181 W/m 11,2 C 9,2 C 29,0 km/h (5 Bft) 97,22 %
22.05.2019 16:06 13,8 C 15,0 C 14,4 C 84 % 1015,4 hPa 0,0 l/m 20,2 km/h (4 Bft) W 274 0 min 0,000 mm 0,8 UV-I 178 W/m 11,1 C 8,1 C 32,2 km/h (5 Bft) 94,00 %
22.05.2019 16:08 13,8 C 15,0 C 15,0 C 84 % 1015,4 hPa 0,0 l/m 12,0 km/h (2 Bft) W 278 0 min 0,000 mm 0,7 UV-I 157 W/m 11,1 C 10,9 C 16,1 km/h (3 Bft) 96,00 %
22.05.2019 16:10 13,8 C 15,0 C 15,0 C 84 % 1015,4 hPa 0,0 l/m 12,8 km/h (3 Bft) W 279 0 min 0,000 mm 0,7 UV-I 173 W/m 11,1 C 10,6 C 20,9 km/h (4 Bft) 95,74 %
22.05.2019 16:12 13,8 C 15,0 C 15,0 C 84 % 1015,4 hPa 0,0 l/m 16,2 km/h (3 Bft) W 267 0 min 0,000 mm 0,8 UV-I 187 W/m 11,1 C 9,3 C 20,9 km/h (4 Bft) 96,00 %
22.05.2019 16:14 13,9 C 15,0 C 15,0 C 84 % 1015,4 hPa 0,0 l/m 16,8 km/h (3 Bft) W 271 0 min 0,000 mm 0,8 UV-I 195 W/m 11,2 C 9,3 C 27,4 km/h (4 Bft) 92,11 %
22.05.2019 16:16 13,9 C 15,0 C 15,6 C 84 % 1015,4 hPa 0,0 l/m 16,6 km/h (3 Bft) W-SW 240 0 min 0,000 mm 0,9 UV-I 231 W/m 11,2 C 9,3 C 30,6 km/h (5 Bft) 95,74 %
22.05.2019 16:18 14,0 C 15,0 C 16,1 C 84 % 1015,3 hPa 0,0 l/m 18,7 km/h (3 Bft) W-SW 251 0 min 0,000 mm 1,3 UV-I 307 W/m 11,3 C 8,8 C 25,7 km/h (4 Bft) 95,74 %
22.05.2019 16:20 14,1 C 15,0 C 16,1 C 83 % 1015,3 hPa 0,0 l/m 21,7 km/h (4 Bft) W-SW 257 0 min 0,000 mm 1,3 UV-I 306 W/m 11,3 C 8,1 C 29,0 km/h (5 Bft) 92,00 %
22.05.2019 16:22 14,1 C 15,0 C 16,1 C 83 % 1015,4 hPa 0,0 l/m 22,3 km/h (4 Bft) S-SW 194 0 min 0,000 mm 1,0 UV-I 237 W/m 11,3 C 8,0 C 30,6 km/h (5 Bft) 94,00 %
22.05.2019 16:24 14,2 C 15,0 C 16,1 C 83 % 1015,4 hPa 0,0 l/m 16,1 km/h (3 Bft) SW 222 0 min 0,000 mm 1,0 UV-I 236 W/m 11,4 C 9,9 C 27,4 km/h (4 Bft) 95,74 %
22.05.2019 16:26 14,2 C 15,0 C 16,1 C 83 % 1015,4 hPa 0,0 l/m 16,6 km/h (3 Bft) W-NW 282 0 min 0,000 mm 0,9 UV-I 214 W/m 11,4 C 9,7 C 24,1 km/h (4 Bft) 96,00 %
22.05.2019 16:28 14,2 C 15,0 C 16,7 C 83 % 1015,4 hPa 0,0 l/m 17,8 km/h (3 Bft) W 277 0 min 0,000 mm 0,9 UV-I 221 W/m 11,4 C 9,3 C 30,6 km/h (5 Bft) 94,74 %
22.05.2019 16:30 14,2 C 15,0 C 16,7 C 83 % 1015,4 hPa 0,0 l/m 19,7 km/h (3 Bft) W 269 0 min 0,000 mm 0,9 UV-I 236 W/m 11,4 C 8,8 C 27,4 km/h (4 Bft) 97,87 %
22.05.2019 16:32 14,2 C 15,0 C 16,1 C 83 % 1015,4 hPa 0,0 l/m 21,8 km/h (4 Bft) W-NW 286 0 min 0,000 mm 0,9 UV-I 204 W/m 11,4 C 8,3 C 30,6 km/h (5 Bft) 93,62 %
22.05.2019 16:34 14,2 C 15,0 C 16,1 C 83 % 1015,4 hPa 0,0 l/m 18,4 km/h (3 Bft) W-SW 252 0 min 0,000 mm 0,7 UV-I 157 W/m 11,4 C 9,2 C 27,4 km/h (4 Bft) 93,62 %
22.05.2019 16:36 14,1 C 15,0 C 15,6 C 83 % 1015,4 hPa 0,0 l/m 20,9 km/h (4 Bft) W-SW 252 0 min 0,000 mm 0,7 UV-I 161 W/m 11,3 C 8,3 C 30,6 km/h (5 Bft) 93,75 %
22.05.2019 16:38 14,1 C 15,0 C 15,6 C 83 % 1015,3 hPa 0,0 l/m 17,0 km/h (3 Bft) W-NW 284 0 min 0,000 mm 0,7 UV-I 167 W/m 11,3 C 9,4 C 22,5 km/h (4 Bft) 87,23 %
22.05.2019 16:40 14,1 C 15,0 C 16,1 C 83 % 1015,4 hPa 0,0 l/m 19,7 km/h (3 Bft) W-SW 252 0 min 0,000 mm 0,7 UV-I 180 W/m 11,3 C 8,7 C 33,8 km/h (5 Bft) 91,49 %
22.05.2019 16:42 14,1 C 15,0 C 16,1 C 83 % 1015,4 hPa 0,0 l/m 15,4 km/h (3 Bft) W-NW 290 0 min 0,000 mm 0,7 UV-I 177 W/m 11,3 C 10,0 C 25,7 km/h (4 Bft) 97,14 %
22.05.2019 16:44 14,1 C 15,0 C 16,1 C 83 % 1015,4 hPa 0,0 l/m 15,0 km/h (3 Bft) W 262 0 min 0,000 mm 0,5 UV-I 158 W/m 11,3 C 10,1 C 22,5 km/h (4 Bft) 88,71 %
22.05.2019 16:46 14,1 C 15,0 C 15,6 C 83 % 1015,4 hPa 0,0 l/m 12,9 km/h (3 Bft) W 266 0 min 0,000 mm 0,5 UV-I 144 W/m 11,3 C 10,9 C 20,9 km/h (4 Bft) 95,74 %
22.05.2019 16:48 14,1 C 15,0 C 15,6 C 83 % 1015,4 hPa 0,0 l/m 13,1 km/h (3 Bft) W-SW 257 0 min 0,000 mm 0,1 UV-I 120 W/m 11,3 C 10,8 C 19,3 km/h (3 Bft) 95,74 %
22.05.2019 16:50 14,0 C 15,0 C 15,6 C 83 % 1015,4 hPa 0,0 l/m 18,7 km/h (3 Bft) W-SW 250 0 min 0,000 mm 0,5 UV-I 129 W/m 11,2 C 8,8 C 27,4 km/h (4 Bft) 95,74 %
22.05.2019 16:52 14,0 C 15,0 C 15,0 C 83 % 1015,4 hPa 0,0 l/m 20,2 km/h (4 Bft) W 270 0 min 0,000 mm 0,5 UV-I 135 W/m 11,2 C 8,4 C 25,7 km/h (4 Bft) 97,87 %
22.05.2019 16:54 14,0 C 15,0 C 15,0 C 83 % 1015,4 hPa 0,0 l/m 19,2 km/h (3 Bft) W 274 0 min 0,000 mm 0,4 UV-I 122 W/m 11,2 C 8,7 C 33,8 km/h (5 Bft) 94,00 %
22.05.2019 16:56 13,9 C 15,0 C 15,0 C 83 % 1015,4 hPa 0,0 l/m 21,6 km/h (4 Bft) W 261 0 min 0,000 mm 0,4 UV-I 135 W/m 11,1 C 7,9 C 32,2 km/h (5 Bft) 95,74 %
22.05.2019 16:58 13,9 C 15,0 C 15,0 C 83 % 1015,4 hPa 0,0 l/m 18,5 km/h (3 Bft) W 259 0 min 0,000 mm 0,3 UV-I 111 W/m 11,1 C 8,7 C 30,6 km/h (5 Bft) 97,37 %
22.05.2019 17:00 13,9 C 15,0 C 15,0 C 83 % 1015,4 hPa 0,0 l/m 13,9 km/h (3 Bft) W 277 0 min 0,000 mm 0,0 UV-I 90 W/m 11,1 C 10,3 C 25,7 km/h (4 Bft) 96,00 %
22.05.2019 17:02 13,9 C 15,0 C 14,4 C 83 % 1015,3 hPa 0,0 l/m 14,3 km/h (3 Bft) W-SW 254 0 min 0,127 mm 0,0 UV-I 100 W/m 11,1 C 10,1 C 19,3 km/h (3 Bft) 96,00 %
22.05.2019 17:04 13,9 C 15,0 C 15,0 C 83 % 1015,4 hPa 0,0 l/m 14,0 km/h (3 Bft) W 273 0 min 0,000 mm 0,1 UV-I 110 W/m 11,1 C 10,2 C 22,5 km/h (4 Bft) 97,87 %
22.05.2019 17:06 13,9 C 15,0 C 15,0 C 83 % 1015,4 hPa 0,0 l/m 18,3 km/h (3 Bft) W 279 0 min 0,000 mm 0,2 UV-I 119 W/m 11,1 C 8,8 C 29,0 km/h (5 Bft) 95,74 %
22.05.2019 17:08 13,9 C 15,0 C 15,0 C 83 % 1015,3 hPa 0,0 l/m 19,2 km/h (3 Bft) W 264 0 min 0,000 mm 0,0 UV-I 99 W/m 11,1 C 8,5 C 30,6 km/h (5 Bft) 97,37 %
22.05.2019 17:10 13,9 C 15,0 C 14,4 C 83 % 1015,3 hPa 0,0 l/m 20,3 km/h (4 Bft) W 259 0 min 0,000 mm 0,0 UV-I 85 W/m 11,1 C 8,2 C 27,4 km/h (4 Bft) 97,92 %
22.05.2019 17:12 13,9 C 15,0 C 14,4 C 83 % 1015,4 hPa 0,0 l/m 14,7 km/h (3 Bft) W-SW 254 0 min 0,000 mm 0,0 UV-I 82 W/m 11,1 C 10,0 C 25,7 km/h (4 Bft) 97,96 %
22.05.2019 17:14 13,9 C 15,0 C 14,4 C 83 % 1015,4 hPa 0,0 l/m 14,7 km/h (3 Bft) W-SW 255 0 min 0,000 mm 0,0 UV-I 92 W/m 11,1 C 10,0 C 22,5 km/h (4 Bft) 97,92 %
22.05.2019 17:16 13,9 C 15,0 C 14,4 C 84 % 1015,4 hPa 0,0 l/m 17,3 km/h (3 Bft) W 277 0 min 0,000 mm 0,0 UV-I 73 W/m 11,2 C 9,1 C 27,4 km/h (4 Bft) 97,83 %
22.05.2019 17:18 13,8 C 15,0 C 14,4 C 83 % 1015,4 hPa 0,0 l/m 16,4 km/h (3 Bft) W 273 0 min 0,000 mm 0,0 UV-I 70 W/m 11,0 C 9,3 C 27,4 km/h (4 Bft) 97,87 %
22.05.2019 17:20 13,8 C 15,0 C 14,4 C 84 % 1015,4 hPa 0,0 l/m 13,9 km/h (3 Bft) W 265 0 min 0,000 mm 0,0 UV-I 100 W/m 11,1 C 10,1 C 22,5 km/h (4 Bft) 97,87 %
22.05.2019 17:22 13,8 C 15,0 C 15,0 C 84 % 1015,5 hPa 0,0 l/m 18,6 km/h (3 Bft) W 267 0 min 0,000 mm 0,3 UV-I 145 W/m 11,1 C 8,6 C 25,7 km/h (4 Bft) 100,00 %
22.05.2019 17:24 13,8 C 15,0 C 15,0 C 83 % 1015,4 hPa 0,0 l/m 17,7 km/h (3 Bft) SW 229 0 min 0,000 mm 0,6 UV-I 168 W/m 11,0 C 8,9 C 30,6 km/h (5 Bft) 100,00 %
22.05.2019 17:26 13,9 C 15,0 C 15,0 C 83 % 1015,5 hPa 0,0 l/m 17,2 km/h (3 Bft) W 277 0 min 0,000 mm 0,5 UV-I 157 W/m 11,1 C 9,1 C 25,7 km/h (4 Bft) 100,00 %
22.05.2019 17:28 13,9 C 15,0 C 15,6 C 83 % 1015,5 hPa 0,0 l/m 16,8 km/h (3 Bft) SW 236 0 min 0,000 mm 0,5 UV-I 153 W/m 11,1 C 9,3 C 25,7 km/h (4 Bft) 98,00 %
22.05.2019 17:30 14,0 C 15,0 C 15,6 C 83 % 1015,5 hPa 0,0 l/m 14,8 km/h (3 Bft) W 260 0 min 0,000 mm 0,7 UV-I 206 W/m 11,2 C 10,1 C 20,9 km/h (4 Bft) 97,37 %
22.05.2019 17:32 14,1 C 15,0 C 16,1 C 83 % 1015,5 hPa 0,0 l/m 15,4 km/h (3 Bft) W-SW 252 0 min 0,000 mm 0,8 UV-I 224 W/m 11,3 C 10,0 C 24,1 km/h (4 Bft) 100,00 %
22.05.2019 17:34 14,1 C 15,0 C 16,1 C 83 % 1015,4 hPa 0,0 l/m 17,2 km/h (3 Bft) W-SW 254 0 min 0,000 mm 0,6 UV-I 176 W/m 11,3 C 9,4 C 25,7 km/h (4 Bft) 97,87 %
22.05.2019 17:36 14,1 C 15,0 C 16,1 C 83 % 1015,5 hPa 0,0 l/m 12,7 km/h (3 Bft) W-SW 257 0 min 0,000 mm 0,6 UV-I 167 W/m 11,3 C 11,0 C 27,4 km/h (4 Bft) 97,87 %
22.05.2019 17:38 14,1 C 15,0 C 16,1 C 83 % 1015,4 hPa 0,0 l/m 13,4 km/h (3 Bft) W 275 0 min 0,000 mm 0,5 UV-I 145 W/m 11,3 C 10,7 C 19,3 km/h (3 Bft) 100,00 %
22.05.2019 17:40 14,1 C 15,0 C 15,6 C 83 % 1015,5 hPa 0,0 l/m 15,6 km/h (3 Bft) W-NW 290 0 min 0,000 mm 0,0 UV-I 120 W/m 11,3 C 9,9 C 24,1 km/h (4 Bft) 98,00 %
22.05.2019 17:42 14,1 C 15,0 C 15,6 C 83 % 1015,5 hPa 0,0 l/m 13,7 km/h (3 Bft) W 265 0 min 0,000 mm 0,0 UV-I 106 W/m 11,3 C 10,6 C 19,3 km/h (3 Bft) 100,00 %
22.05.2019 17:44 13,9 C 15,0 C 15,0 C 83 % 1015,4 hPa 0,0 l/m 18,1 km/h (3 Bft) W-NW 286 0 min 0,000 mm 0,0 UV-I 99 W/m 11,1 C 8,9 C 27,4 km/h (4 Bft) 100,00 %
22.05.2019 17:46 13,9 C 15,0 C 15,0 C 83 % 1015,4 hPa 0,0 l/m 17,6 km/h (3 Bft) W 273 0 min 0,000 mm 0,0 UV-I 102 W/m 11,1 C 9,0 C 30,6 km/h (5 Bft) 97,87 %
22.05.2019 17:48 13,9 C 15,0 C 15,0 C 83 % 1015,5 hPa 0,0 l/m 13,6 km/h (3 Bft) W 263 0 min 0,000 mm 0,0 UV-I 109 W/m 11,1 C 10,4 C 29,0 km/h (5 Bft) 100,00 %
22.05.2019 17:50 13,9 C 15,0 C 15,0 C 83 % 1015,5 hPa 0,0 l/m 19,7 km/h (3 Bft) W-SW 243 0 min 0,000 mm 0,0 UV-I 129 W/m 11,1 C 8,4 C 27,4 km/h (4 Bft) 100,00 %
22.05.2019 17:52 13,9 C 15,0 C 15,0 C 84 % 1015,4 hPa 0,0 l/m 15,4 km/h (3 Bft) W 259 0 min 0,000 mm 0,3 UV-I 150 W/m 11,2 C 9,7 C 20,9 km/h (4 Bft) 100,00 %
22.05.2019 17:54 13,9 C 15,0 C 15,6 C 84 % 1015,4 hPa 0,0 l/m 12,6 km/h (3 Bft) W-SW 243 0 min 0,000 mm 0,5 UV-I 168 W/m 11,2 C 10,8 C 19,3 km/h (3 Bft) 100,00 %
22.05.2019 17:56 13,9 C 15,0 C 15,6 C 84 % 1015,4 hPa 0,0 l/m 14,9 km/h (3 Bft) W-SW 254 0 min 0,000 mm 0,5 UV-I 165 W/m 11,2 C 9,9 C 22,5 km/h (4 Bft) 97,87 %
22.05.2019 17:58 13,9 C 15,0 C 15,6 C 83 % 1015,4 hPa 0,0 l/m 18,7 km/h (3 Bft) W 263 0 min 0,000 mm 0,5 UV-I 155 W/m 11,1 C 8,7 C 27,4 km/h (4 Bft) 100,00 %
22.05.2019 18:00 13,9 C 15,0 C 15,6 C 84 % 1015,4 hPa 0,0 l/m 16,7 km/h (3 Bft) W 279 0 min 0,102 mm 0,3 UV-I 146 W/m 11,2 C 9,3 C 24,1 km/h (4 Bft) 100,00 %
22.05.2019 18:02 13,9 C 15,0 C 15,6 C 84 % 1015,5 hPa 0,0 l/m 18,5 km/h (3 Bft) W-SW 253 0 min 0,000 mm 0,5 UV-I 150 W/m 11,2 C 8,7 C 33,8 km/h (5 Bft) 92,00 %
22.05.2019 18:04 13,9 C 15,0 C 15,6 C 83 % 1015,4 hPa 0,0 l/m 19,6 km/h (3 Bft) W 265 0 min 0,000 mm 0,0 UV-I 149 W/m 11,1 C 8,4 C 25,7 km/h (4 Bft) 95,74 %
22.05.2019 18:06 13,9 C 15,0 C 15,6 C 83 % 1015,5 hPa 0,0 l/m 17,3 km/h (3 Bft) W-SW 243 0 min 0,000 mm 0,0 UV-I 150 W/m 11,1 C 9,1 C 29,0 km/h (5 Bft) 93,62 %
22.05.2019 18:08 13,9 C 15,0 C 15,6 C 84 % 1015,5 hPa 0,0 l/m 15,6 km/h (3 Bft) W 261 0 min 0,000 mm 0,0 UV-I 138 W/m 11,2 C 9,7 C 25,7 km/h (4 Bft) 93,62 %
22.05.2019 18:10 13,9 C 15,0 C 15,6 C 84 % 1015,5 hPa 0,0 l/m 14,8 km/h (3 Bft) W-SW 250 0 min 0,000 mm 0,0 UV-I 135 W/m 11,2 C 9,9 C 22,5 km/h (4 Bft) 95,74 %
22.05.2019 18:12 13,9 C 15,0 C 15,0 C 84 % 1015,5 hPa 0,0 l/m 20,5 km/h (4 Bft) W-SW 252 0 min 0,000 mm 0,0 UV-I 135 W/m 11,2 C 8,2 C 35,4 km/h (5 Bft) 97,87 %
22.05.2019 18:14 13,8 C 15,0 C 15,0 C 84 % 1015,5 hPa 0,0 l/m 17,3 km/h (3 Bft) W 268 0 min 0,000 mm 0,0 UV-I 135 W/m 11,1 C 9,0 C 25,7 km/h (4 Bft) 94,00 %
22.05.2019 18:16 13,8 C 15,0 C 15,0 C 84 % 1015,6 hPa 0,0 l/m 14,3 km/h (3 Bft) W-SW 246 0 min 0,000 mm 0,0 UV-I 156 W/m 11,1 C 10,0 C 20,9 km/h (4 Bft) 94,00 %
22.05.2019 18:18 13,8 C 15,0 C 15,6 C 85 % 1015,6 hPa 0,0 l/m 14,7 km/h (3 Bft) W 275 0 min 0,000 mm 0,0 UV-I 177 W/m 11,3 C 9,8 C 22,5 km/h (4 Bft) 93,62 %
22.05.2019 18:20 13,8 C 15,0 C 15,6 C 85 % 1015,6 hPa 0,0 l/m 17,3 km/h (3 Bft) W-SW 257 0 min 0,000 mm 0,0 UV-I 164 W/m 11,3 C 9,0 C 27,4 km/h (4 Bft) 92,11 %
22.05.2019 18:22 13,8 C 15,0 C 15,6 C 84 % 1015,7 hPa 0,0 l/m 19,3 km/h (3 Bft) W-SW 258 0 min 0,000 mm 0,0 UV-I 147 W/m 11,1 C 8,4 C 32,2 km/h (5 Bft) 94,00 %
22.05.2019 18:24 13,8 C 15,0 C 15,6 C 84 % 1015,7 hPa 0,0 l/m 14,7 km/h (3 Bft) W 277 0 min 0,000 mm 0,0 UV-I 149 W/m 11,1 C 9,8 C 20,9 km/h (4 Bft) 95,74 %
22.05.2019 18:26 13,8 C 15,0 C 15,6 C 84 % 1015,7 hPa 0,0 l/m 16,7 km/h (3 Bft) W 269 0 min 0,000 mm 0,0 UV-I 168 W/m 11,1 C 9,2 C 30,6 km/h (5 Bft) 97,87 %
22.05.2019 18:28 13,8 C 15,0 C 15,6 C 84 % 1015,7 hPa 0,0 l/m 17,0 km/h (3 Bft) W 270 0 min 0,000 mm 0,0 UV-I 172 W/m 11,1 C 9,1 C 30,6 km/h (5 Bft) 97,87 %
22.05.2019 18:30 13,9 C 15,0 C 15,6 C 84 % 1015,7 hPa 0,0 l/m 19,5 km/h (3 Bft) W 262 0 min 0,000 mm 0,0 UV-I 169 W/m 11,2 C 8,5 C 30,6 km/h (5 Bft) 93,62 %
22.05.2019 18:32 13,9 C 15,0 C 15,6 C 84 % 1015,7 hPa 0,0 l/m 20,3 km/h (4 Bft) W 261 0 min 0,000 mm 0,0 UV-I 167 W/m 11,2 C 8,2 C 30,6 km/h (5 Bft) 95,83 %
22.05.2019 18:34 13,9 C 15,0 C 15,6 C 84 % 1015,7 hPa 0,0 l/m 14,3 km/h (3 Bft) W-SW 242 0 min 0,000 mm 0,0 UV-I 154 W/m 11,2 C 10,1 C 19,3 km/h (3 Bft) 100,00 %
22.05.2019 18:36 13,9 C 15,0 C 15,6 C 84 % 1015,7 hPa 0,0 l/m 16,0 km/h (3 Bft) W 264 0 min 0,000 mm 0,0 UV-I 135 W/m 11,2 C 9,5 C 24,1 km/h (4 Bft) 100,00 %
22.05.2019 18:38 13,9 C 15,0 C 15,0 C 84 % 1015,7 hPa 0,0 l/m 14,7 km/h (3 Bft) W-SW 251 0 min 0,000 mm 0,0 UV-I 120 W/m 11,2 C 10,0 C 24,1 km/h (4 Bft) 97,87 %
22.05.2019 18:40 13,9 C 15,0 C 15,0 C 84 % 1015,6 hPa 0,0 l/m 13,3 km/h (3 Bft) W-SW 242 0 min 0,000 mm 0,0 UV-I 122 W/m 11,2 C 10,5 C 22,5 km/h (4 Bft) 93,62 %
22.05.2019 18:42 13,9 C 15,0 C 15,0 C 84 % 1015,6 hPa 0,0 l/m 16,9 km/h (3 Bft) W 263 0 min 0,000 mm 0,0 UV-I 109 W/m 11,2 C 9,2 C 27,4 km/h (4 Bft) 97,87 %
22.05.2019 18:44 13,8 C 15,0 C 14,4 C 84 % 1015,6 hPa 0,0 l/m 18,0 km/h (3 Bft) W-SW 256 0 min 0,000 mm 0,0 UV-I 93 W/m 11,1 C 8,8 C 30,6 km/h (5 Bft) 100,00 %
22.05.2019 18:46 13,8 C 15,0 C 14,4 C 84 % 1015,6 hPa 0,0 l/m 15,4 km/h (3 Bft) W-SW 244 0 min 0,000 mm 0,0 UV-I 83 W/m 11,1 C 9,6 C 24,1 km/h (4 Bft) 100,00 %
22.05.2019 18:48 13,8 C 15,0 C 14,4 C 84 % 1015,7 hPa 0,0 l/m 18,9 km/h (3 Bft) W 261 0 min 0,000 mm 0,0 UV-I 75 W/m 11,1 C 8,5 C 30,6 km/h (5 Bft) 97,14 %
22.05.2019 18:50 13,8 C 15,0 C 14,4 C 84 % 1015,7 hPa 0,0 l/m 19,5 km/h (3 Bft) W 280 0 min 0,000 mm 0,0 UV-I 68 W/m 11,1 C 8,3 C 30,6 km/h (5 Bft) 100,00 %
22.05.2019 18:52 13,8 C 15,0 C 14,4 C 84 % 1015,6 hPa 0,0 l/m 17,5 km/h (3 Bft) W 271 0 min 0,000 mm 0,0 UV-I 68 W/m 11,1 C 8,9 C 29,0 km/h (5 Bft) 100,00 %
22.05.2019 18:54 13,7 C 15,0 C 14,4 C 84 % 1015,7 hPa 0,0 l/m 11,4 km/h (2 Bft) W 269 0 min 0,000 mm 0,0 UV-I 74 W/m 11,0 C 11,0 C 20,9 km/h (4 Bft) 100,00 %
22.05.2019 18:56 13,7 C 15,0 C 14,4 C 84 % 1015,7 hPa 0,0 l/m 18,1 km/h (3 Bft) W 278 0 min 0,000 mm 0,0 UV-I 78 W/m 11,0 C 8,6 C 29,0 km/h (5 Bft) 100,00 %
22.05.2019 18:58 13,7 C 15,0 C 14,4 C 84 % 1015,8 hPa 0,0 l/m 16,6 km/h (3 Bft) W 281 0 min 0,000 mm 0,0 UV-I 99 W/m 11,0 C 9,1 C 22,5 km/h (4 Bft) 100,00 %
22.05.2019 19:00 13,7 C 15,0 C 14,4 C 84 % 1015,7 hPa 0,0 l/m 16,9 km/h (3 Bft) W 260 0 min 0,000 mm 0,0 UV-I 107 W/m 11,0 C 9,0 C 29,0 km/h (5 Bft) 100,00 %
22.05.2019 19:02 13,7 C 15,0 C 14,4 C 84 % 1015,8 hPa 0,0 l/m 17,5 km/h (3 Bft) W 263 0 min 0,102 mm 0,0 UV-I 122 W/m 11,0 C 8,8 C 32,2 km/h (5 Bft) 100,00 %
22.05.2019 19:04 13,7 C 15,0 C 14,4 C 84 % 1015,8 hPa 0,0 l/m 18,8 km/h (3 Bft) W-SW 243 0 min 0,000 mm 0,0 UV-I 120 W/m 11,0 C 8,4 C 25,7 km/h (4 Bft) 100,00 %
22.05.2019 19:06 13,7 C 15,0 C 14,4 C 84 % 1015,8 hPa 0,0 l/m 14,4 km/h (3 Bft) W 270 0 min 0,000 mm 0,0 UV-I 109 W/m 11,0 C 9,8 C 24,1 km/h (4 Bft) 97,87 %
22.05.2019 19:08 13,7 C 15,0 C 14,4 C 84 % 1015,8 hPa 0,0 l/m 15,2 km/h (3 Bft) W 263 0 min 0,000 mm 0,0 UV-I 101 W/m 11,0 C 9,5 C 25,7 km/h (4 Bft) 95,74 %
22.05.2019 19:10 13,7 C 15,0 C 14,4 C 84 % 1015,9 hPa 0,0 l/m 16,3 km/h (3 Bft) W 273 0 min 0,000 mm 0,0 UV-I 92 W/m 11,0 C 9,2 C 30,6 km/h (5 Bft) 100,00 %
22.05.2019 19:12 13,6 C 15,0 C 14,4 C 84 % 1015,8 hPa 0,0 l/m 15,5 km/h (3 Bft) W 259 0 min 0,000 mm 0,0 UV-I 78 W/m 10,9 C 9,3 C 22,5 km/h (4 Bft) 100,00 %
22.05.2019 19:14 13,6 C 15,0 C 13,9 C 84 % 1015,9 hPa 0,0 l/m 11,3 km/h (2 Bft) W-SW 250 0 min 0,000 mm 0,0 UV-I 66 W/m 10,9 C 11,0 C 16,1 km/h (3 Bft) 100,00 %
22.05.2019 19:16 13,6 C 15,0 C 13,9 C 85 % 1015,9 hPa 0,0 l/m 14,0 km/h (3 Bft) W-SW 250 0 min 0,000 mm 0,0 UV-I 65 W/m 11,1 C 9,9 C 17,7 km/h (3 Bft) 100,00 %
22.05.2019 19:18 13,5 C 15,0 C 13,9 C 85 % 1016,0 hPa 0,0 l/m 15,1 km/h (3 Bft) W 265 0 min 0,000 mm 0,0 UV-I 63 W/m 11,0 C 9,3 C 22,5 km/h (4 Bft) 100,00 %
22.05.2019 19:20 13,5 C 15,0 C 13,9 C 85 % 1015,9 hPa 0,0 l/m 14,5 km/h (3 Bft) W-SW 248 0 min 0,000 mm 0,0 UV-I 61 W/m 11,0 C 9,6 C 22,5 km/h (4 Bft) 100,00 %
22.05.2019 19:22 13,4 C 15,0 C 13,9 C 85 % 1016,1 hPa 0,0 l/m 15,3 km/h (3 Bft) W-NW 287 0 min 0,000 mm 0,0 UV-I 49 W/m 10,9 C 9,1 C 19,3 km/h (3 Bft) 100,00 %
22.05.2019 19:24 13,4 C 15,0 C 13,3 C 85 % 1016,1 hPa 0,0 l/m 12,7 km/h (3 Bft) W-NW 284 0 min 0,000 mm 0,0 UV-I 41 W/m 10,9 C 10,1 C 19,3 km/h (3 Bft) 97,87 %
22.05.2019 19:26 13,4 C 15,0 C 13,3 C 85 % 1016,1 hPa 0,0 l/m 10,8 km/h (2 Bft) W 278 0 min 0,000 mm 0,0 UV-I 37 W/m 10,9 C 11,0 C 17,7 km/h (3 Bft) 97,87 %
22.05.2019 19:28 13,3 C 15,0 C 13,3 C 85 % 1016,1 hPa 0,0 l/m 13,4 km/h (3 Bft) W-SW 254 0 min 0,000 mm 0,0 UV-I 34 W/m 10,8 C 9,7 C 20,9 km/h (4 Bft) 97,87 %
22.05.2019 19:30 13,3 C 15,0 C 13,3 C 85 % 1016,1 hPa 0,0 l/m 13,5 km/h (3 Bft) W 261 0 min 0,000 mm 0,0 UV-I 33 W/m 10,8 C 9,7 C 20,9 km/h (4 Bft) 98,00 %
22.05.2019 19:32 13,3 C 15,0 C 13,3 C 85 % 1016,0 hPa 0,0 l/m 13,3 km/h (3 Bft) W-SW 251 0 min 0,000 mm 0,0 UV-I 33 W/m 10,8 C 9,8 C 22,5 km/h (4 Bft) 98,00 %
22.05.2019 19:34 13,3 C 15,0 C 13,3 C 85 % 1015,9 hPa 0,0 l/m 19,5 km/h (3 Bft) W 263 0 min 0,000 mm 0,0 UV-I 33 W/m 10,8 C 7,7 C 27,4 km/h (4 Bft) 97,87 %
22.05.2019 19:36 13,3 C 15,0 C 13,3 C 85 % 1015,9 hPa 0,0 l/m 16,3 km/h (3 Bft) W 277 0 min 0,000 mm 0,0 UV-I 34 W/m 10,8 C 8,7 C 22,5 km/h (4 Bft) 95,74 %
22.05.2019 19:38 13,3 C 15,0 C 13,3 C 85 % 1015,9 hPa 0,0 l/m 20,3 km/h (4 Bft) W 266 0 min 0,000 mm 0,0 UV-I 34 W/m 10,8 C 7,5 C 32,2 km/h (5 Bft) 97,87 %
22.05.2019 19:40 13,3 C 15,0 C 13,3 C 85 % 1015,8 hPa 0,0 l/m 19,9 km/h (4 Bft) W 261 0 min 0,000 mm 0,0 UV-I 34 W/m 10,8 C 7,6 C 29,0 km/h (5 Bft) 97,87 %
22.05.2019 19:42 13,3 C 15,0 C 13,3 C 85 % 1015,8 hPa 0,0 l/m 18,7 km/h (3 Bft) W-SW 253 0 min 0,000 mm 0,0 UV-I 35 W/m 10,8 C 7,9 C 30,6 km/h (5 Bft) 95,83 %
22.05.2019 19:44 13,3 C 15,0 C 13,3 C 85 % 1015,8 hPa 0,0 l/m 17,8 km/h (3 Bft) W 275 0 min 0,000 mm 0,0 UV-I 36 W/m 10,8 C 8,2 C 24,1 km/h (4 Bft) 95,31 %
22.05.2019 19:46 13,2 C 15,0 C 13,3 C 85 % 1015,9 hPa 0,0 l/m 17,9 km/h (3 Bft) W-NW 282 0 min 0,000 mm 0,0 UV-I 33 W/m 10,7 C 8,0 C 24,1 km/h (4 Bft) 97,87 %
22.05.2019 19:48 13,2 C 15,0 C 13,3 C 85 % 1015,9 hPa 0,0 l/m 12,6 km/h (3 Bft) W-SW 257 0 min 0,000 mm 0,0 UV-I 28 W/m 10,7 C 9,9 C 17,7 km/h (3 Bft) 97,92 %
22.05.2019 19:50 13,2 C 15,0 C 12,8 C 85 % 1015,8 hPa 0,0 l/m 23,0 km/h (4 Bft) W 259 0 min 0,000 mm 0,0 UV-I 25 W/m 10,7 C 6,6 C 32,2 km/h (5 Bft) 97,37 %
22.05.2019 19:52 13,2 C 15,0 C 12,8 C 85 % 1015,9 hPa 0,0 l/m 20,6 km/h (4 Bft) W 274 0 min 0,000 mm 0,0 UV-I 24 W/m 10,7 C 7,3 C 30,6 km/h (5 Bft) 96,00 %
22.05.2019 19:54 13,2 C 15,0 C 12,8 C 85 % 1015,9 hPa 0,0 l/m 16,6 km/h (3 Bft) W 261 0 min 0,000 mm 0,0 UV-I 24 W/m 10,7 C 8,5 C 27,4 km/h (4 Bft) 95,74 %
22.05.2019 19:56 13,2 C 15,0 C 12,8 C 85 % 1015,9 hPa 0,0 l/m 19,1 km/h (3 Bft) W-SW 246 0 min 0,000 mm 0,0 UV-I 21 W/m 10,7 C 7,7 C 30,6 km/h (5 Bft) 95,74 %
22.05.2019 19:58 13,2 C 15,0 C 12,8 C 85 % 1015,9 hPa 0,0 l/m 17,7 km/h (3 Bft) W-SW 240 0 min 0,000 mm 0,0 UV-I 18 W/m 10,7 C 8,1 C 37,0 km/h (5 Bft) 100,00 %
22.05.2019 20:00 13,2 C 15,0 C 12,8 C 85 % 1015,9 hPa 0,0 l/m 24,0 km/h (4 Bft) S-SW 206 0 min 0,000 mm 0,0 UV-I 16 W/m 10,7 C 6,4 C 37,0 km/h (5 Bft) 93,62 %
22.05.2019 20:02 13,2 C 15,0 C 12,8 C 85 % 1015,9 hPa 0,0 l/m 14,5 km/h (3 Bft) W-SW 241 0 min 0,050 mm 0,0 UV-I 16 W/m 10,7 C 9,2 C 19,3 km/h (3 Bft) 96,00 %
22.05.2019 20:04 13,2 C 15,0 C 12,8 C 85 % 1015,9 hPa 0,0 l/m 16,7 km/h (3 Bft) W 265 0 min 0,000 mm 0,0 UV-I 15 W/m 10,7 C 8,4 C 22,5 km/h (4 Bft) 96,00 %
22.05.2019 20:06 13,2 C 15,0 C 12,8 C 85 % 1015,9 hPa 0,0 l/m 15,0 km/h (3 Bft) W 279 0 min 0,000 mm 0,0 UV-I 14 W/m 10,7 C 9,0 C 24,1 km/h (4 Bft) 94,00 %
22.05.2019 20:08 13,2 C 15,0 C 12,8 C 85 % 1015,9 hPa 0,0 l/m 21,2 km/h (4 Bft) W-SW 253 0 min 0,000 mm 0,0 UV-I 12 W/m 10,7 C 7,1 C 29,0 km/h (5 Bft) 97,87 %
22.05.2019 20:10 13,2 C 15,0 C 12,8 C 85 % 1015,9 hPa 0,0 l/m 20,4 km/h (4 Bft) W-SW 255 0 min 0,000 mm 0,0 UV-I 12 W/m 10,7 C 7,3 C 27,4 km/h (4 Bft) 97,14 %
22.05.2019 20:12 13,2 C 15,0 C 12,8 C 85 % 1016,0 hPa 0,0 l/m 17,8 km/h (3 Bft) W 263 0 min 0,000 mm 0,0 UV-I 12 W/m 10,7 C 8,1 C 22,5 km/h (4 Bft) 97,87 %
22.05.2019 20:14 13,2 C 15,0 C 12,8 C 85 % 1016,1 hPa 0,0 l/m 20,9 km/h (4 Bft) W 261 0 min 0,000 mm 0,0 UV-I 12 W/m 10,7 C 7,2 C 29,0 km/h (5 Bft) 97,87 %
22.05.2019 20:16 13,2 C 15,0 C 12,8 C 85 % 1016,1 hPa 0,0 l/m 17,5 km/h (3 Bft) W 267 0 min 0,000 mm 0,0 UV-I 12 W/m 10,7 C 8,2 C 22,5 km/h (4 Bft) 93,62 %
22.05.2019 20:18 13,2 C 15,0 C 12,8 C 85 % 1016,1 hPa 0,0 l/m 18,7 km/h (3 Bft) W-SW 248 0 min 0,000 mm 0,0 UV-I 13 W/m 10,7 C 7,8 C 29,0 km/h (5 Bft) 98,00 %
22.05.2019 20:20 13,2 C 15,0 C 12,8 C 85 % 1016,2 hPa 0,0 l/m 17,0 km/h (3 Bft) SW 236 0 min 0,000 mm 0,0 UV-I 14 W/m 10,7 C 8,3 C 24,1 km/h (4 Bft) 98,00 %
22.05.2019 20:22 13,1 C 15,0 C 12,8 C 85 % 1016,2 hPa 0,0 l/m 15,1 km/h (3 Bft) W 281 0 min 0,000 mm 0,0 UV-I 14 W/m 10,6 C 8,9 C 24,1 km/h (4 Bft) 95,74 %
22.05.2019 20:24 13,1 C 15,0 C 12,8 C 85 % 1016,2 hPa 0,0 l/m 16,7 km/h (3 Bft) W 263 0 min 0,000 mm 0,0 UV-I 13 W/m 10,6 C 8,3 C 20,9 km/h (4 Bft) 93,62 %
22.05.2019 20:26 13,1 C 15,0 C 12,8 C 85 % 1016,2 hPa 0,0 l/m 16,3 km/h (3 Bft) W-SW 252 0 min 0,000 mm 0,0 UV-I 11 W/m 10,6 C 8,4 C 24,1 km/h (4 Bft) 98,00 %
22.05.2019 20:28 13,1 C 15,0 C 12,8 C 85 % 1016,2 hPa 0,0 l/m 17,1 km/h (3 Bft) W 273 0 min 0,000 mm 0,0 UV-I 11 W/m 10,6 C 8,2 C 25,7 km/h (4 Bft) 93,62 %
22.05.2019 20:30 13,1 C 15,0 C 12,8 C 85 % 1016,3 hPa 0,0 l/m 20,1 km/h (4 Bft) W-SW 248 0 min 0,000 mm 0,0 UV-I 9 W/m 10,6 C 7,3 C 29,0 km/h (5 Bft) 95,83 %
22.05.2019 20:32 13,1 C 15,0 C 12,8 C 85 % 1016,3 hPa 0,0 l/m 20,9 km/h (4 Bft) W 265 2 min 0,000 mm 0,0 UV-I 9 W/m 10,6 C 7,0 C 30,6 km/h (5 Bft) 93,62 %
22.05.2019 20:34 13,1 C 15,0 C 12,8 C 85 % 1016,3 hPa 0,0 l/m 15,2 km/h (3 Bft) W-SW 252 0 min 0,000 mm 0,0 UV-I 9 W/m 10,6 C 8,8 C 19,3 km/h (3 Bft) 97,56 %
22.05.2019 20:36 13,1 C 15,0 C 12,8 C 85 % 1016,3 hPa 0,0 l/m 16,8 km/h (3 Bft) W-NW 289 0 min 0,000 mm 0,0 UV-I 8 W/m 10,6 C 8,3 C 25,7 km/h (4 Bft) 96,00 %
22.05.2019 20:38 13,1 C 15,0 C 12,8 C 85 % 1016,3 hPa 0,0 l/m 16,3 km/h (3 Bft) W-NW 291 0 min 0,000 mm 0,0 UV-I 7 W/m 10,6 C 8,4 C 24,1 km/h (4 Bft) 95,74 %
22.05.2019 20:40 13,0 C 15,0 C 12,8 C 85 % 1016,3 hPa 0,0 l/m 18,3 km/h (3 Bft) W 267 0 min 0,000 mm 0,0 UV-I 7 W/m 10,5 C 7,7 C 29,0 km/h (5 Bft) 97,87 %
22.05.2019 20:42 13,0 C 15,0 C 12,8 C 86 % 1016,3 hPa 0,0 l/m 15,8 km/h (3 Bft) W-SW 258 0 min 0,000 mm 0,0 UV-I 6 W/m 10,7 C 8,5 C 24,1 km/h (4 Bft) 95,74 %
22.05.2019 20:44 12,9 C 15,0 C 12,8 C 86 % 1016,3 hPa 0,0 l/m 19,1 km/h (3 Bft) W-SW 250 0 min 0,000 mm 0,0 UV-I 5 W/m 10,6 C 7,3 C 27,4 km/h (4 Bft) 95,12 %
22.05.2019 20:46 12,9 C 15,0 C 12,8 C 86 % 1016,4 hPa 0,0 l/m 16,9 km/h (3 Bft) W 270 0 min 0,000 mm 0,0 UV-I 5 W/m 10,6 C 8,0 C 25,7 km/h (4 Bft) 95,74 %
22.05.2019 20:48 12,9 C 15,0 C 12,2 C 86 % 1016,4 hPa 0,0 l/m 18,1 km/h (3 Bft) W 259 0 min 0,000 mm 0,0 UV-I 5 W/m 10,6 C 7,6 C 29,0 km/h (5 Bft) 97,87 %
22.05.2019 20:50 12,9 C 15,0 C 12,2 C 86 % 1016,5 hPa 0,0 l/m 16,0 km/h (3 Bft) W-SW 246 0 min 0,000 mm 0,0 UV-I 5 W/m 10,6 C 8,3 C 22,5 km/h (4 Bft) 91,49 %
22.05.2019 20:52 12,9 C 15,0 C 12,2 C 86 % 1016,5 hPa 0,0 l/m 14,3 km/h (3 Bft) W 278 0 min 0,000 mm 0,0 UV-I 5 W/m 10,6 C 8,9 C 20,9 km/h (4 Bft) 95,74 %
22.05.2019 20:54 12,9 C 15,0 C 12,2 C 86 % 1016,7 hPa 0,0 l/m 16,8 km/h (3 Bft) W 261 0 min 0,000 mm 0,0 UV-I 5 W/m 10,6 C 8,0 C 25,7 km/h (4 Bft) 96,00 %
22.05.2019 20:56 12,8 C 15,0 C 12,2 C 86 % 1016,6 hPa 0,0 l/m 16,6 km/h (3 Bft) W-SW 244 0 min 0,000 mm 0,0 UV-I 1 W/m 10,5 C 8,0 C 27,4 km/h (4 Bft) 95,74 %
22.05.2019 20:58 12,8 C 15,0 C 12,8 C 86 % 1016,7 hPa 0,0 l/m 16,3 km/h (3 Bft) SW 227 0 min 0,000 mm 0,0 UV-I 0 W/m 10,5 C 8,1 C 25,7 km/h (4 Bft) 93,62 %
22.05.2019 21:00 12,8 C 15,0 C 12,8 C 86 % 1016,7 hPa 0,0 l/m 15,4 km/h (3 Bft) W-SW 252 0 min 0,000 mm 0,0 UV-I 0 W/m 10,5 C 8,4 C 22,5 km/h (4 Bft) 95,74 %
22.05.2019 21:02 12,8 C 15,0 C 12,8 C 86 % 1016,8 hPa 0,0 l/m 12,7 km/h (3 Bft) W 281 0 min 0,026 mm 0,0 UV-I 0 W/m 10,5 C 9,4 C 20,9 km/h (4 Bft) 94,87 %
22.05.2019 21:04 12,8 C 15,0 C 12,8 C 86 % 1016,7 hPa 0,0 l/m 11,2 km/h (2 Bft) W 265 0 min 0,000 mm 0,0 UV-I 0 W/m 10,5 C 10,1 C 16,1 km/h (3 Bft) 95,74 %
22.05.2019 21:06 12,8 C 15,0 C 12,8 C 86 % 1016,8 hPa 0,0 l/m 8,3 km/h (2 Bft) W 265 0 min 0,000 mm 0,0 UV-I 0 W/m 10,5 C 11,6 C 12,9 km/h (3 Bft) 93,62 %
22.05.2019 21:08 12,8 C 15,0 C 12,2 C 86 % 1016,8 hPa 0,0 l/m 9,9 km/h (2 Bft) W 267 0 min 0,000 mm 0,0 UV-I 0 W/m 10,5 C 10,7 C 17,7 km/h (3 Bft) 96,00 %
22.05.2019 21:10 12,8 C 15,0 C 12,2 C 87 % 1016,8 hPa 0,0 l/m 13,9 km/h (3 Bft) W-SW 243 0 min 0,000 mm 0,0 UV-I 0 W/m 10,7 C 8,9 C 22,5 km/h (4 Bft) 95,74 %
22.05.2019 21:12 12,8 C 15,0 C 12,2 C 87 % 1016,8 hPa 0,0 l/m 15,3 km/h (3 Bft) W 268 0 min 0,000 mm 0,0 UV-I 0 W/m 10,7 C 8,4 C 22,5 km/h (4 Bft) 95,74 %
22.05.2019 21:14 12,8 C 15,0 C 12,2 C 87 % 1016,9 hPa 0,0 l/m 14,6 km/h (3 Bft) W 270 0 min 0,000 mm 0,0 UV-I 0 W/m 10,7 C 8,7 C 22,5 km/h (4 Bft) 95,74 %
22.05.2019 21:16 12,8 C 15,0 C 12,2 C 87 % 1016,9 hPa 0,0 l/m 12,3 km/h (3 Bft) W-SW 252 0 min 0,000 mm 0,0 UV-I 0 W/m 10,7 C 9,6 C 19,3 km/h (3 Bft) 97,87 %
22.05.2019 21:18 12,8 C 15,0 C 12,8 C 87 % 1016,9 hPa 0,0 l/m 15,6 km/h (3 Bft) SW 228 0 min 0,000 mm 0,0 UV-I 0 W/m 10,7 C 8,3 C 22,5 km/h (4 Bft) 96,00 %
22.05.2019 21:20 12,8 C 15,0 C 12,8 C 87 % 1016,9 hPa 0,0 l/m 16,0 km/h (3 Bft) W-SW 258 0 min 0,000 mm 0,0 UV-I 0 W/m 10,7 C 8,2 C 24,1 km/h (4 Bft) 97,87 %
22.05.2019 21:22 12,8 C 15,0 C 12,8 C 87 % 1017,0 hPa 0,0 l/m 11,4 km/h (2 Bft) W 267 0 min 0,000 mm 0,0 UV-I 0 W/m 10,7 C 10,0 C 17,7 km/h (3 Bft) 95,74 %
22.05.2019 21:24 12,8 C 15,0 C 12,8 C 87 % 1016,9 hPa 0,0 l/m 11,5 km/h (2 Bft) W-SW 243 0 min 0,000 mm 0,0 UV-I 0 W/m 10,7 C 10,0 C 17,7 km/h (3 Bft) 97,87 %
22.05.2019 21:26 12,8 C 15,0 C 12,2 C 87 % 1016,9 hPa 0,0 l/m 11,6 km/h (2 Bft) W-SW 255 0 min 0,000 mm 0,0 UV-I 0 W/m 10,7 C 9,9 C 16,1 km/h (3 Bft) 95,74 %
22.05.2019 21:28 12,8 C 15,0 C 12,2 C 87 % 1016,9 hPa 0,0 l/m 13,6 km/h (3 Bft) W 275 0 min 0,000 mm 0,0 UV-I 0 W/m 10,7 C 9,1 C 17,7 km/h (3 Bft) 97,37 %
22.05.2019 21:30 12,8 C 15,0 C 12,2 C 87 % 1016,9 hPa 0,0 l/m 12,2 km/h (2 Bft) W-SW 253 0 min 0,000 mm 0,0 UV-I 0 W/m 10,7 C 9,7 C 17,7 km/h (3 Bft) 98,08 %
22.05.2019 21:32 12,8 C 15,0 C 12,2 C 87 % 1016,9 hPa 0,0 l/m 14,5 km/h (3 Bft) W-SW 258 0 min 0,000 mm 0,0 UV-I 0 W/m 10,7 C 8,7 C 24,1 km/h (4 Bft) 95,74 %
22.05.2019 21:34 12,7 C 15,0 C 12,2 C 87 % 1017,0 hPa 0,0 l/m 12,1 km/h (2 Bft) W-SW 238 0 min 0,000 mm 0,0 UV-I 0 W/m 10,6 C 9,6 C 19,3 km/h (3 Bft) 98,00 %
22.05.2019 21:36 12,7 C 15,0 C 12,2 C 87 % 1016,9 hPa 0,0 l/m 12,0 km/h (2 Bft) W-SW 243 0 min 0,000 mm 0,0 UV-I 0 W/m 10,6 C 9,6 C 19,3 km/h (3 Bft) 97,87 %
22.05.2019 21:38 12,7 C 15,0 C 12,2 C 87 % 1017,0 hPa 0,0 l/m 9,4 km/h (2 Bft) SW 228 0 min 0,000 mm 0,0 UV-I 0 W/m 10,6 C 10,9 C 16,1 km/h (3 Bft) 100,00 %
22.05.2019 21:40 12,7 C 15,0 C 12,2 C 87 % 1017,0 hPa 0,0 l/m 13,2 km/h (3 Bft) W-SW 239 0 min 0,000 mm 0,0 UV-I 0 W/m 10,6 C 9,1 C 17,7 km/h (3 Bft) 98,04 %
22.05.2019 21:42 12,7 C 15,0 C 12,2 C 87 % 1017,0 hPa 0,0 l/m 12,7 km/h (3 Bft) S-SW 204 0 min 0,000 mm 0,0 UV-I 0 W/m 10,6 C 9,3 C 16,1 km/h (3 Bft) 97,92 %
22.05.2019 21:44 12,6 C 15,0 C 12,2 C 88 % 1017,0 hPa 0,0 l/m 13,2 km/h (3 Bft) SW 221 0 min 0,000 mm 0,0 UV-I 0 W/m 10,7 C 9,0 C 19,3 km/h (3 Bft) 100,00 %
22.05.2019 21:46 12,6 C 15,0 C 12,2 C 88 % 1017,0 hPa 0,0 l/m 11,8 km/h (2 Bft) SW 232 0 min 0,000 mm 0,0 UV-I 0 W/m 10,7 C 9,6 C 17,7 km/h (3 Bft) 100,00 %
22.05.2019 21:48 12,6 C 15,0 C 12,2 C 88 % 1017,0 hPa 0,0 l/m 12,7 km/h (3 Bft) SW 231 0 min 0,000 mm 0,0 UV-I 0 W/m 10,7 C 9,2 C 19,3 km/h (3 Bft) 97,37 %
22.05.2019 21:50 12,6 C 15,0 C 12,2 C 88 % 1017,0 hPa 0,0 l/m 12,5 km/h (3 Bft) W-SW 237 0 min 0,000 mm 0,0 UV-I 0 W/m 10,7 C 9,3 C 19,3 km/h (3 Bft) 97,87 %
22.05.2019 21:52 12,5 C 15,0 C 12,2 C 89 % 1017,0 hPa 0,0 l/m 9,4 km/h (2 Bft) W-SW 257 0 min 0,000 mm 0,0 UV-I 0 W/m 10,7 C 10,7 C 19,3 km/h (3 Bft) 98,00 %
22.05.2019 21:54 12,5 C 15,0 C 12,2 C 89 % 1017,0 hPa 0,0 l/m 13,0 km/h (3 Bft) W-SW 250 0 min 0,000 mm 0,0 UV-I 0 W/m 10,7 C 9,0 C 20,9 km/h (4 Bft) 95,74 %
22.05.2019 21:56 12,5 C 15,0 C 12,2 C 89 % 1017,0 hPa 0,0 l/m 12,4 km/h (3 Bft) SW 223 0 min 0,000 mm 0,0 UV-I 0 W/m 10,7 C 9,2 C 19,3 km/h (3 Bft) 97,87 %
22.05.2019 21:58 12,5 C 15,0 C 12,2 C 89 % 1017,0 hPa 0,0 l/m 10,0 km/h (2 Bft) W-SW 248 0 min 0,000 mm 0,0 UV-I 0 W/m 10,7 C 10,4 C 16,1 km/h (3 Bft) 100,00 %
22.05.2019 22:00 12,5 C 15,0 C 12,2 C 89 % 1017,0 hPa 0,0 l/m 10,6 km/h (2 Bft) SW 232 0 min 0,000 mm 0,0 UV-I 0 W/m 10,7 C 10,1 C 14,5 km/h (3 Bft) 95,74 %
22.05.2019 22:02 12,4 C 15,0 C 12,2 C 89 % 1017,0 hPa 0,0 l/m 9,0 km/h (2 Bft) W-SW 244 0 min 0,025 mm 0,0 UV-I 0 W/m 10,6 C 10,8 C 14,5 km/h (3 Bft) 97,87 %
22.05.2019 22:04 12,4 C 15,0 C 12,2 C 89 % 1017,0 hPa 0,0 l/m 9,6 km/h (2 Bft) W-SW 256 0 min 0,000 mm 0,0 UV-I 0 W/m 10,6 C 10,5 C 14,5 km/h (3 Bft) 93,62 %
22.05.2019 22:06 12,4 C 15,0 C 12,2 C 89 % 1017,0 hPa 0,0 l/m 8,9 km/h (2 Bft) W 260 0 min 0,000 mm 0,0 UV-I 0 W/m 10,6 C 10,8 C 16,1 km/h (3 Bft) 98,00 %
22.05.2019 22:08 12,4 C 15,0 C 12,2 C 89 % 1017,0 hPa 0,0 l/m 9,9 km/h (2 Bft) W 261 0 min 0,000 mm 0,0 UV-I 0 W/m 10,6 C 10,3 C 17,7 km/h (3 Bft) 95,74 %
22.05.2019 22:10 12,4 C 15,0 C 12,2 C 89 % 1017,0 hPa 0,0 l/m 12,2 km/h (2 Bft) W-SW 247 0 min 0,000 mm 0,0 UV-I 0 W/m 10,6 C 9,2 C 17,7 km/h (3 Bft) 100,00 %
22.05.2019 22:12 12,4 C 15,0 C 12,2 C 89 % 1017,0 hPa 0,0 l/m 10,2 km/h (2 Bft) SW 225 0 min 0,000 mm 0,0 UV-I 0 W/m 10,6 C 10,1 C 17,7 km/h (3 Bft) 97,87 %
22.05.2019 22:14 12,4 C 15,0 C 12,2 C 89 % 1017,0 hPa 0,0 l/m 8,0 km/h (2 Bft) SW 234 0 min 0,000 mm 0,0 UV-I 0 W/m 10,6 C 11,4 C 12,9 km/h (3 Bft) 97,87 %
22.05.2019 22:16 12,4 C 15,0 C 12,2 C 89 % 1017,0 hPa 0,0 l/m 8,8 km/h (2 Bft) SW 230 0 min 0,000 mm 0,0 UV-I 0 W/m 10,6 C 10,9 C 16,1 km/h (3 Bft) 91,49 %
22.05.2019 22:18 12,4 C 15,0 C 12,2 C 90 % 1017,0 hPa 0,0 l/m 10,7 km/h (2 Bft) W 271 0 min 0,000 mm 0,0 UV-I 0 W/m 10,8 C 9,9 C 16,1 km/h (3 Bft) 95,74 %
22.05.2019 22:20 12,3 C 15,0 C 12,2 C 90 % 1017,0 hPa 0,0 l/m 10,8 km/h (2 Bft) W 269 0 min 0,000 mm 0,0 UV-I 0 W/m 10,7 C 9,7 C 16,1 km/h (3 Bft) 95,83 %
22.05.2019 22:22 12,3 C 15,0 C 12,2 C 90 % 1017,0 hPa 0,0 l/m 12,4 km/h (3 Bft) W-SW 241 0 min 0,000 mm 0,0 UV-I 0 W/m 10,7 C 9,0 C 19,3 km/h (3 Bft) 94,74 %
22.05.2019 22:24 12,3 C 15,0 C 12,2 C 90 % 1017,0 hPa 0,0 l/m 12,3 km/h (3 Bft) W-SW 257 0 min 0,000 mm 0,0 UV-I 0 W/m 10,7 C 9,0 C 19,3 km/h (3 Bft) 95,74 %
22.05.2019 22:26 12,3 C 15,0 C 12,2 C 90 % 1017,0 hPa 0,0 l/m 10,1 km/h (2 Bft) SW 236 0 min 0,000 mm 0,0 UV-I 0 W/m 10,7 C 10,1 C 14,5 km/h (3 Bft) 95,74 %
22.05.2019 22:29 12,3 C 15,0 C 12,2 C 90 % 1017,0 hPa 0,0 l/m 12,3 km/h (3 Bft) SW 223 0 min 0,000 mm 0,0 UV-I 0 W/m 10,7 C 9,0 C 17,7 km/h (3 Bft) 93,90 %
22.05.2019 22:30 12,3 C 15,0 C 12,2 C 90 % 1017,0 hPa 0,0 l/m 11,2 km/h (2 Bft) SW 225 0 min 0,000 mm 0,0 UV-I 0 W/m 10,7 C 9,5 C 14,5 km/h (3 Bft) 86,67 %
22.05.2019 22:32 12,3 C 15,0 C 12,2 C 90 % 1017,0 hPa 0,0 l/m 12,4 km/h (3 Bft) W-SW 251 0 min 0,000 mm 0,0 UV-I 0 W/m 10,7 C 9,0 C 17,7 km/h (3 Bft) 95,74 %
22.05.2019 22:34 12,3 C 15,0 C 12,2 C 90 % 1017,0 hPa 0,0 l/m 10,9 km/h (2 Bft) W-SW 241 0 min 0,000 mm 0,0 UV-I 0 W/m 10,7 C 9,7 C 17,7 km/h (3 Bft) 95,74 %
22.05.2019 22:36 12,3 C 15,0 C 12,2 C 90 % 1016,9 hPa 0,0 l/m 13,1 km/h (3 Bft) SW 224 0 min 0,000 mm 0,0 UV-I 0 W/m 10,7 C 8,7 C 19,3 km/h (3 Bft) 95,74 %
22.05.2019 22:38 12,2 C 15,0 C 12,2 C 90 % 1016,9 hPa 0,0 l/m 12,7 km/h (3 Bft) W-SW 243 0 min 0,000 mm 0,0 UV-I 0 W/m 10,6 C 8,7 C 22,5 km/h (4 Bft) 97,87 %
22.05.2019 22:40 12,2 C 15,0 C 12,2 C 90 % 1016,9 hPa 0,0 l/m 12,3 km/h (3 Bft) SW 235 0 min 0,000 mm 0,0 UV-I 0 W/m 10,6 C 8,9 C 19,3 km/h (3 Bft) 97,87 %
22.05.2019 22:42 12,2 C 15,0 C 11,7 C 91 % 1017,0 hPa 0,0 l/m 14,3 km/h (3 Bft) SW 219 0 min 0,000 mm 0,0 UV-I 0 W/m 10,8 C 8,1 C 19,3 km/h (3 Bft) 97,87 %
22.05.2019 22:44 12,2 C 15,0 C 11,7 C 91 % 1016,9 hPa 0,0 l/m 13,0 km/h (3 Bft) SW 231 0 min 0,000 mm 0,0 UV-I 0 W/m 10,8 C 8,6 C 20,9 km/h (4 Bft) 100,00 %
22.05.2019 22:46 12,2 C 15,0 C 11,7 C 91 % 1017,0 hPa 0,0 l/m 12,0 km/h (2 Bft) W-SW 253 0 min 0,000 mm 0,0 UV-I 0 W/m 10,8 C 9,0 C 22,5 km/h (4 Bft) 100,00 %
22.05.2019 22:49 12,2 C 15,0 C 11,7 C 91 % 1017,0 hPa 0,0 l/m 12,3 km/h (3 Bft) W-SW 239 0 min 0,000 mm 0,0 UV-I 0 W/m 10,8 C 8,9 C 17,7 km/h (3 Bft) 100,00 %
22.05.2019 22:50 12,1 C 15,0 C 11,7 C 91 % 1017,0 hPa 0,0 l/m 12,5 km/h (3 Bft) W-SW 238 0 min 0,000 mm 0,0 UV-I 0 W/m 10,7 C 8,7 C 17,7 km/h (3 Bft) 100,00 %
22.05.2019 22:52 12,1 C 15,0 C 11,7 C 91 % 1017,1 hPa 0,0 l/m 12,3 km/h (3 Bft) W 269 0 min 0,000 mm 0,0 UV-I 0 W/m 10,7 C 8,8 C 19,3 km/h (3 Bft) 100,00 %
22.05.2019 22:54 12,1 C 15,0 C 11,7 C 91 % 1017,0 hPa 0,0 l/m 12,6 km/h (3 Bft) W-SW 247 0 min 0,000 mm 0,0 UV-I 0 W/m 10,7 C 8,7 C 17,7 km/h (3 Bft) 100,00 %
22.05.2019 22:56 12,1 C 15,0 C 11,7 C 91 % 1017,1 hPa 0,0 l/m 12,9 km/h (3 Bft) SW 231 0 min 0,000 mm 0,0 UV-I 0 W/m 10,7 C 8,5 C 17,7 km/h (3 Bft) 100,00 %
22.05.2019 22:58 12,1 C 15,0 C 11,7 C 91 % 1017,1 hPa 0,0 l/m 16,5 km/h (3 Bft) W-SW 246 0 min 0,000 mm 0,0 UV-I 0 W/m 10,7 C 7,1 C 22,5 km/h (4 Bft) 100,00 %
22.05.2019 23:00 12,1 C 15,0 C 11,7 C 91 % 1017,2 hPa 0,0 l/m 14,4 km/h (3 Bft) W-SW 239 0 min 0,000 mm 0,0 UV-I 0 W/m 10,7 C 7,9 C 20,9 km/h (4 Bft) 100,00 %
22.05.2019 23:02 12,1 C 15,0 C 11,7 C 91 % 1017,1 hPa 0,0 l/m 12,2 km/h (2 Bft) W 261 0 min 0,026 mm 0,0 UV-I 0 W/m 10,7 C 8,8 C 16,1 km/h (3 Bft) 100,00 %
22.05.2019 23:04 12,1 C 15,0 C 11,7 C 91 % 1017,2 hPa 0,0 l/m 14,6 km/h (3 Bft) W 281 0 min 0,000 mm 0,0 UV-I 0 W/m 10,7 C 7,8 C 22,5 km/h (4 Bft) 100,00 %
22.05.2019 23:06 12,1 C 15,0 C 11,7 C 91 % 1017,1 hPa 0,0 l/m 12,9 km/h (3 Bft) W-SW 252 0 min 0,000 mm 0,0 UV-I 0 W/m 10,7 C 8,5 C 20,9 km/h (4 Bft) 100,00 %
22.05.2019 23:09 12,1 C 15,0 C 11,7 C 91 % 1017,2 hPa 0,0 l/m 14,7 km/h (3 Bft) W-SW 249 0 min 0,000 mm 0,0 UV-I 0 W/m 10,7 C 7,8 C 24,1 km/h (4 Bft) 100,00 %
22.05.2019 23:10 12,1 C 15,0 C 11,7 C 91 % 1017,2 hPa 0,0 l/m 11,0 km/h (2 Bft) W-SW 257 0 min 0,000 mm 0,0 UV-I 0 W/m 10,7 C 9,4 C 17,7 km/h (3 Bft) 100,00 %
22.05.2019 23:12 12,1 C 15,0 C 12,2 C 91 % 1017,2 hPa 0,0 l/m 11,7 km/h (2 Bft) W 259 0 min 0,000 mm 0,0 UV-I 0 W/m 10,7 C 9,1 C 16,1 km/h (3 Bft) 97,87 %
22.05.2019 23:14 12,1 C 15,0 C 12,2 C 91 % 1017,2 hPa 0,0 l/m 15,2 km/h (3 Bft) SW 229 0 min 0,000 mm 0,0 UV-I 0 W/m 10,7 C 7,6 C 22,5 km/h (4 Bft) 100,00 %
22.05.2019 23:16 12,2 C 15,0 C 12,2 C 91 % 1017,3 hPa 0,0 l/m 13,5 km/h (3 Bft) W 259 0 min 0,000 mm 0,0 UV-I 0 W/m 10,8 C 8,4 C 20,9 km/h (4 Bft) 100,00 %
22.05.2019 23:19 12,2 C 15,0 C 12,2 C 91 % 1017,2 hPa 0,0 l/m 12,1 km/h (2 Bft) W-SW 251 0 min 0,000 mm 0,0 UV-I 0 W/m 10,8 C 9,0 C 20,9 km/h (4 Bft) 98,59 %
22.05.2019 23:20 12,2 C 15,0 C 12,2 C 91 % 1017,2 hPa 0,0 l/m 12,5 km/h (3 Bft) W-SW 244 0 min 0,000 mm 0,0 UV-I 0 W/m 10,8 C 8,8 C 14,5 km/h (3 Bft) 100,00 %
22.05.2019 23:22 12,2 C 15,0 C 12,2 C 91 % 1017,2 hPa 0,0 l/m 12,8 km/h (3 Bft) W-SW 252 0 min 0,000 mm 0,0 UV-I 0 W/m 10,8 C 8,7 C 17,7 km/h (3 Bft) 100,00 %
22.05.2019 23:24 12,2 C 15,0 C 12,2 C 91 % 1017,2 hPa 0,0 l/m 12,0 km/h (2 Bft) W-SW 241 0 min 0,000 mm 0,0 UV-I 0 W/m 10,8 C 9,0 C 17,7 km/h (3 Bft) 100,00 %
22.05.2019 23:26 12,2 C 15,0 C 12,2 C 91 % 1017,2 hPa 0,0 l/m 13,1 km/h (3 Bft) W 265 0 min 0,000 mm 0,0 UV-I 0 W/m 10,8 C 8,6 C 20,9 km/h (4 Bft) 100,00 %
22.05.2019 23:29 12,2 C 15,0 C 12,2 C 90 % 1017,2 hPa 0,0 l/m 9,8 km/h (2 Bft) W 267 0 min 0,000 mm 0,0 UV-I 0 W/m 10,6 C 10,1 C 17,7 km/h (3 Bft) 100,00 %
22.05.2019 23:30 12,2 C 15,0 C 12,2 C 90 % 1017,2 hPa 0,0 l/m 11,7 km/h (2 Bft) W-NW 302 0 min 0,000 mm 0,0 UV-I 0 W/m 10,6 C 9,2 C 14,5 km/h (3 Bft) 100,00 %
22.05.2019 23:32 12,3 C 15,0 C 12,2 C 90 % 1017,2 hPa 0,0 l/m 13,9 km/h (3 Bft) W 266 0 min 0,000 mm 0,0 UV-I 0 W/m 10,7 C 8,4 C 19,3 km/h (3 Bft) 100,00 %
22.05.2019 23:34 12,3 C 15,0 C 12,2 C 90 % 1017,3 hPa 0,0 l/m 11,2 km/h (2 Bft) W-SW 257 0 min 0,000 mm 0,0 UV-I 0 W/m 10,7 C 9,5 C 14,5 km/h (3 Bft) 100,00 %
22.05.2019 23:36 12,3 C 14,4 C 12,2 C 90 % 1017,3 hPa 0,0 l/m 12,1 km/h (2 Bft) W 265 0 min 0,000 mm 0,0 UV-I 0 W/m 10,7 C 9,1 C 17,7 km/h (3 Bft) 97,44 %
22.05.2019 23:39 12,3 C 14,4 C 12,2 C 90 % 1017,2 hPa 0,0 l/m 9,0 km/h (2 Bft) W 263 0 min 0,000 mm 0,0 UV-I 0 W/m 10,7 C 10,7 C 16,1 km/h (3 Bft) 95,71 %
22.05.2019 23:40 12,3 C 15,0 C 12,2 C 90 % 1017,2 hPa 0,0 l/m 10,4 km/h (2 Bft) W 267 0 min 0,000 mm 0,0 UV-I 0 W/m 10,7 C 9,9 C 12,9 km/h (3 Bft) 95,83 %
22.05.2019 23:42 12,3 C 14,4 C 12,2 C 90 % 1017,3 hPa 0,0 l/m 11,5 km/h (2 Bft) W-SW 246 0 min 0,000 mm 0,0 UV-I 0 W/m 10,7 C 9,4 C 17,7 km/h (3 Bft) 98,11 %
22.05.2019 23:44 12,3 C 14,4 C 12,2 C 90 % 1017,2 hPa 0,0 l/m 14,3 km/h (3 Bft) W 269 0 min 0,000 mm 0,0 UV-I 0 W/m 10,7 C 8,2 C 22,5 km/h (4 Bft) 97,87 %
22.05.2019 23:46 12,3 C 14,4 C 12,2 C 90 % 1017,3 hPa 0,0 l/m 11,6 km/h (2 Bft) W 265 0 min 0,000 mm 0,0 UV-I 0 W/m 10,7 C 9,3 C 17,7 km/h (3 Bft) 97,87 %
22.05.2019 23:49 12,3 C 14,4 C 12,2 C 89 % 1017,3 hPa 0,0 l/m 12,6 km/h (3 Bft) W-SW 258 0 min 0,000 mm 0,0 UV-I 0 W/m 10,5 C 8,9 C 17,7 km/h (3 Bft) 97,14 %
22.05.2019 23:50 12,3 C 14,4 C 12,2 C 89 % 1017,3 hPa 0,0 l/m 14,7 km/h (3 Bft) W 277 0 min 0,000 mm 0,0 UV-I 0 W/m 10,5 C 8,0 C 19,3 km/h (3 Bft) 100,00 %
22.05.2019 23:52 12,3 C 14,4 C 12,2 C 89 % 1017,3 hPa 0,0 l/m 12,2 km/h (2 Bft) W-NW 290 0 min 0,000 mm 0,0 UV-I 0 W/m 10,5 C 9,1 C 19,3 km/h (3 Bft) 97,87 %
22.05.2019 23:54 12,3 C 14,4 C 12,2 C 89 % 1017,3 hPa 0,0 l/m 11,0 km/h (2 Bft) W-SW 249 0 min 0,000 mm 0,0 UV-I 0 W/m 10,5 C 9,6 C 17,7 km/h (3 Bft) 94,74 %
22.05.2019 23:56 12,3 C 14,4 C 12,2 C 89 % 1017,4 hPa 0,0 l/m 11,6 km/h (2 Bft) W 263 0 min 0,000 mm 0,0 UV-I 0 W/m 10,5 C 9,3 C 16,1 km/h (3 Bft) 97,87 %
22.05.2019 23:58 12,3 C 14,4 C 12,2 C 89 % 1017,3 hPa 0,0 l/m 12,8 km/h (3 Bft) W 266 0 min 0,000 mm 0,0 UV-I 0 W/m 10,5 C 8,8 C 17,7 km/h (3 Bft) 98,00 %
_ Min-Zeit 04:56 23:36 00:00 16:02 01:18 - 22:14 - - - - - - 00:00 01:46 21:06 22:30
Minimum _ 11,0 C 14,4 C 10,6 C 83 % 1010,1 hPa - 8,0 km/h (2 Bft) - - - - - - 9,9 C 3,3 C 12,9 km/h (3 Bft) 86,67 %
_ Max-Zeit 16:22 00:00 15:52 06:28 23:56 02:48 01:46 - - 15:50 17:02 15:50 15:50 15:52 21:06 01:44 00:36
Maximum _ 14,2 C 15,6 C 17,2 C 96 % 1017,4 hPa 0,4 l/m 26,4 km/h
W (4 Bft)
- - 2 min 0,127 mm 1,9 UV-I 404 W/m 11,5 C 11,6 C 43,5 km/h
W-SW (6 Bft)
100,00 %
Durchschnitt _ 12,1 C 15,1 C 12,4 C 91 % 1013,8 hPa #9,2 l/m 17,2 km/h (3 Bft) W-SW - #4 min. #1,118 mm 0,8 UV-I 92 W/m 10,7 C 7,0 C 26,4 km/h (4 Bft) 97,20 %